<?xml version="1.0" encoding="UTF-8" standalone="no" ?>
<gpx xmlns="http://www.topografix.com/GPX/1/1" xmlns:xsi="http://www.w3.org/2001/XMLSchema-instance" xsi:schemaLocation="http://www.topografix.com/GPX/1/1 http://www.topografix.com/GPX/1/1/gpx.xsd" version="1.1" creator="VisuGPX - https://www.visugpx.com">
  <metadata>
    <name>La Chalon</name>
    <desc><![CDATA[presque 100m ascencion]]></desc>
  </metadata>
  <trk>
    <name><![CDATA[Le Chalon]]></name>
    <cmt><![CDATA[Gilles, Bruno, Jean-pierre, Jacques, Thierry2, alain, edouard]]></cmt>
    <trkseg>
      <trkpt lat="45.11612" lon="4.96418">
        <ele>199.98593139648</ele>
        <time>2009-12-12T12:22:14Z</time>
      </trkpt>
      <trkpt lat="45.11613" lon="4.96418">
        <ele>200.04254150391</ele>
        <time>2009-12-12T12:22:15Z</time>
      </trkpt>
      <trkpt lat="45.11609" lon="4.9642">
        <ele>199.65162658691</ele>
        <time>2009-12-12T12:22:26Z</time>
      </trkpt>
      <trkpt lat="45.11582" lon="4.96422">
        <ele>197.75154113769</ele>
        <time>2009-12-12T12:22:31Z</time>
      </trkpt>
      <trkpt lat="45.11581" lon="4.96437">
        <ele>197.17433166504</ele>
        <time>2009-12-12T12:22:35Z</time>
      </trkpt>
      <trkpt lat="45.11581" lon="4.96444">
        <ele>196.93872070312</ele>
        <time>2009-12-12T12:22:37Z</time>
      </trkpt>
      <trkpt lat="45.11583" lon="4.96389">
        <ele>200.31437683106</ele>
        <time>2009-12-12T12:22:41Z</time>
      </trkpt>
      <trkpt lat="45.11581" lon="4.96453">
        <ele>196.57130432129</ele>
        <time>2009-12-12T12:22:43Z</time>
      </trkpt>
      <trkpt lat="45.1158" lon="4.96472">
        <ele>195.86810302734</ele>
        <time>2009-12-12T12:22:50Z</time>
      </trkpt>
      <trkpt lat="45.11579" lon="4.96501">
        <ele>194.78125</ele>
        <time>2009-12-12T12:22:55Z</time>
      </trkpt>
      <trkpt lat="45.11579" lon="4.96505">
        <ele>194.78634643555</ele>
        <time>2009-12-12T12:22:56Z</time>
      </trkpt>
      <trkpt lat="45.11605" lon="4.96565">
        <ele>195.42623901367</ele>
        <time>2009-12-12T12:23:01Z</time>
      </trkpt>
      <trkpt lat="45.11619" lon="4.96597">
        <ele>195.18688964844</ele>
        <time>2009-12-12T12:23:05Z</time>
      </trkpt>
      <trkpt lat="45.11621" lon="4.96603">
        <ele>195.10513305664</ele>
        <time>2009-12-12T12:23:09Z</time>
      </trkpt>
      <trkpt lat="45.11645" lon="4.96665">
        <ele>194.02684020996</ele>
        <time>2009-12-12T12:23:13Z</time>
      </trkpt>
      <trkpt lat="45.11672" lon="4.96733">
        <ele>195.61268615723</ele>
        <time>2009-12-12T12:23:21Z</time>
      </trkpt>
      <trkpt lat="45.11704" lon="4.96788">
        <ele>195.79473876953</ele>
        <time>2009-12-12T12:23:30Z</time>
      </trkpt>
      <trkpt lat="45.11737" lon="4.96831">
        <ele>195.17556762695</ele>
        <time>2009-12-12T12:23:39Z</time>
      </trkpt>
      <trkpt lat="45.1176" lon="4.96868">
        <ele>196.05271911621</ele>
        <time>2009-12-12T12:23:44Z</time>
      </trkpt>
      <trkpt lat="45.11764" lon="4.96875">
        <ele>196.24774169922</ele>
        <time>2009-12-12T12:23:45Z</time>
      </trkpt>
      <trkpt lat="45.11783" lon="4.96913">
        <ele>196.96592712402</ele>
        <time>2009-12-12T12:23:51Z</time>
      </trkpt>
      <trkpt lat="45.11832" lon="4.96988">
        <ele>198.66787719727</ele>
        <time>2009-12-12T12:24:03Z</time>
      </trkpt>
      <trkpt lat="45.11874" lon="4.9705">
        <ele>197.79814147949</ele>
        <time>2009-12-12T12:24:13Z</time>
      </trkpt>
      <trkpt lat="45.11883" lon="4.97063">
        <ele>197.64297485352</ele>
        <time>2009-12-12T12:24:17Z</time>
      </trkpt>
      <trkpt lat="45.11883" lon="4.97063">
        <ele>197.64297485352</ele>
        <time>2009-12-12T12:24:18Z</time>
      </trkpt>
      <trkpt lat="45.1188" lon="4.97121">
        <ele>196.91470336914</ele>
        <time>2009-12-12T12:24:22Z</time>
      </trkpt>
      <trkpt lat="45.11879" lon="4.97176">
        <ele>196.58224487305</ele>
        <time>2009-12-12T12:24:28Z</time>
      </trkpt>
      <trkpt lat="45.11895" lon="4.9727">
        <ele>196.30926513672</ele>
        <time>2009-12-12T12:24:38Z</time>
      </trkpt>
      <trkpt lat="45.11909" lon="4.97348">
        <ele>195.92097473144</ele>
        <time>2009-12-12T12:24:46Z</time>
      </trkpt>
      <trkpt lat="45.11924" lon="4.9743">
        <ele>196.17948913574</ele>
        <time>2009-12-12T12:24:55Z</time>
      </trkpt>
      <trkpt lat="45.11938" lon="4.97509">
        <ele>196.70422363281</ele>
        <time>2009-12-12T12:25:04Z</time>
      </trkpt>
      <trkpt lat="45.11947" lon="4.9756">
        <ele>196.90911865234</ele>
        <time>2009-12-12T12:25:10Z</time>
      </trkpt>
      <trkpt lat="45.11955" lon="4.97603">
        <ele>196.95545959473</ele>
        <time>2009-12-12T12:25:15Z</time>
      </trkpt>
      <trkpt lat="45.11975" lon="4.97718">
        <ele>197.34707641602</ele>
        <time>2009-12-12T12:25:28Z</time>
      </trkpt>
      <trkpt lat="45.11991" lon="4.97806">
        <ele>197.96440124512</ele>
        <time>2009-12-12T12:25:38Z</time>
      </trkpt>
      <trkpt lat="45.12008" lon="4.97891">
        <ele>198.98954772949</ele>
        <time>2009-12-12T12:25:48Z</time>
      </trkpt>
      <trkpt lat="45.12022" lon="4.97966">
        <ele>200.84124755859</ele>
        <time>2009-12-12T12:25:57Z</time>
      </trkpt>
      <trkpt lat="45.12042" lon="4.98059">
        <ele>203.07238769531</ele>
        <time>2009-12-12T12:26:08Z</time>
      </trkpt>
      <trkpt lat="45.12058" lon="4.98134">
        <ele>205.27877807617</ele>
        <time>2009-12-12T12:26:17Z</time>
      </trkpt>
      <trkpt lat="45.12067" lon="4.98204">
        <ele>205.66673278809</ele>
        <time>2009-12-12T12:26:25Z</time>
      </trkpt>
      <trkpt lat="45.12061" lon="4.98278">
        <ele>204.57234191894</ele>
        <time>2009-12-12T12:26:33Z</time>
      </trkpt>
      <trkpt lat="45.1205" lon="4.98361">
        <ele>204.26504516602</ele>
        <time>2009-12-12T12:26:42Z</time>
      </trkpt>
      <trkpt lat="45.12048" lon="4.98378">
        <ele>204.64498901367</ele>
        <time>2009-12-12T12:26:44Z</time>
      </trkpt>
      <trkpt lat="45.12032" lon="4.98404">
        <ele>205.07986450195</ele>
        <time>2009-12-12T12:26:48Z</time>
      </trkpt>
      <trkpt lat="45.1203" lon="4.98409">
        <ele>205.16912841797</ele>
        <time>2009-12-12T12:26:49Z</time>
      </trkpt>
      <trkpt lat="45.12" lon="4.98395">
        <ele>204.48858642578</ele>
        <time>2009-12-12T12:26:52Z</time>
      </trkpt>
      <trkpt lat="45.1198" lon="4.98386">
        <ele>203.72906494141</ele>
        <time>2009-12-12T12:26:55Z</time>
      </trkpt>
      <trkpt lat="45.11978" lon="4.98405">
        <ele>203.9981842041</ele>
        <time>2009-12-12T12:26:57Z</time>
      </trkpt>
      <trkpt lat="45.11978" lon="4.98414">
        <ele>204.15089416504</ele>
        <time>2009-12-12T12:26:58Z</time>
      </trkpt>
      <trkpt lat="45.11996" lon="4.98394">
        <ele>204.34976196289</ele>
        <time>2009-12-12T12:27:02Z</time>
      </trkpt>
      <trkpt lat="45.12008" lon="4.984">
        <ele>204.68504333496</ele>
        <time>2009-12-12T12:27:05Z</time>
      </trkpt>
      <trkpt lat="45.12015" lon="4.98403">
        <ele>204.8464050293</ele>
        <time>2009-12-12T12:27:08Z</time>
      </trkpt>
      <trkpt lat="45.12015" lon="4.98403">
        <ele>204.8464050293</ele>
        <time>2009-12-12T12:27:10Z</time>
      </trkpt>
      <trkpt lat="45.12017" lon="4.98404">
        <ele>204.91278076172</ele>
        <time>2009-12-12T12:27:22Z</time>
      </trkpt>
      <trkpt lat="45.12009" lon="4.9842">
        <ele>205.11315917969</ele>
        <time>2009-12-12T12:30:55Z</time>
      </trkpt>
      <trkpt lat="45.12009" lon="4.9842">
        <ele>205.11315917969</ele>
        <time>2009-12-12T12:30:56Z</time>
      </trkpt>
      <trkpt lat="45.12027" lon="4.98431">
        <ele>205.32830810547</ele>
        <time>2009-12-12T12:31:13Z</time>
      </trkpt>
      <trkpt lat="45.12027" lon="4.98431">
        <ele>205.32830810547</ele>
        <time>2009-12-12T12:32:29Z</time>
      </trkpt>
      <trkpt lat="45.12027" lon="4.98431">
        <ele>205.32830810547</ele>
        <time>2009-12-12T12:32:30Z</time>
      </trkpt>
      <trkpt lat="45.12016" lon="4.98404">
        <ele>204.87730407715</ele>
        <time>2009-12-12T12:33:41Z</time>
      </trkpt>
      <trkpt lat="45.1201" lon="4.984">
        <ele>204.72967529297</ele>
        <time>2009-12-12T12:33:45Z</time>
      </trkpt>
      <trkpt lat="45.12008" lon="4.98399">
        <ele>204.67588806152</ele>
        <time>2009-12-12T12:33:46Z</time>
      </trkpt>
      <trkpt lat="45.11995" lon="4.98393">
        <ele>204.27113342285</ele>
        <time>2009-12-12T12:33:51Z</time>
      </trkpt>
      <trkpt lat="45.11988" lon="4.9839">
        <ele>204.02908325195</ele>
        <time>2009-12-12T12:33:53Z</time>
      </trkpt>
      <trkpt lat="45.1198" lon="4.98386">
        <ele>203.71524047852</ele>
        <time>2009-12-12T12:33:56Z</time>
      </trkpt>
      <trkpt lat="45.11967" lon="4.98379">
        <ele>203.25845336914</ele>
        <time>2009-12-12T12:34:00Z</time>
      </trkpt>
      <trkpt lat="45.11953" lon="4.98364">
        <ele>202.75350952148</ele>
        <time>2009-12-12T12:34:04Z</time>
      </trkpt>
      <trkpt lat="45.11938" lon="4.9834">
        <ele>202.29937744141</ele>
        <time>2009-12-12T12:34:09Z</time>
      </trkpt>
      <trkpt lat="45.11931" lon="4.98305">
        <ele>202.85276794434</ele>
        <time>2009-12-12T12:34:15Z</time>
      </trkpt>
      <trkpt lat="45.11926" lon="4.98282">
        <ele>203.34944152832</ele>
        <time>2009-12-12T12:34:19Z</time>
      </trkpt>
      <trkpt lat="45.11913" lon="4.98284">
        <ele>203.03344726562</ele>
        <time>2009-12-12T12:34:21Z</time>
      </trkpt>
      <trkpt lat="45.11866" lon="4.98297">
        <ele>200.86018371582</ele>
        <time>2009-12-12T12:34:31Z</time>
      </trkpt>
      <trkpt lat="45.11821" lon="4.9831">
        <ele>199.74433898926</ele>
        <time>2009-12-12T12:34:40Z</time>
      </trkpt>
      <trkpt lat="45.11793" lon="4.98318">
        <ele>200.03146362305</ele>
        <time>2009-12-12T12:34:46Z</time>
      </trkpt>
      <trkpt lat="45.1176" lon="4.98329">
        <ele>200.70877075195</ele>
        <time>2009-12-12T12:34:53Z</time>
      </trkpt>
      <trkpt lat="45.11726" lon="4.98341">
        <ele>202.33766174316</ele>
        <time>2009-12-12T12:35:00Z</time>
      </trkpt>
      <trkpt lat="45.11693" lon="4.98352">
        <ele>204.59918212891</ele>
        <time>2009-12-12T12:35:07Z</time>
      </trkpt>
      <trkpt lat="45.11686" lon="4.98354">
        <ele>205.11489868164</ele>
        <time>2009-12-12T12:35:12Z</time>
      </trkpt>
      <trkpt lat="45.11651" lon="4.98352">
        <ele>209.94442749023</ele>
        <time>2009-12-12T12:35:16Z</time>
      </trkpt>
      <trkpt lat="45.11642" lon="4.98342">
        <ele>211.50350952148</ele>
        <time>2009-12-12T12:35:18Z</time>
      </trkpt>
      <trkpt lat="45.11635" lon="4.98302">
        <ele>210.33015441894</ele>
        <time>2009-12-12T12:35:25Z</time>
      </trkpt>
      <trkpt lat="45.11634" lon="4.98298">
        <ele>210.21563720703</ele>
        <time>2009-12-12T12:35:26Z</time>
      </trkpt>
      <trkpt lat="45.11629" lon="4.98289">
        <ele>210.56788635254</ele>
        <time>2009-12-12T12:35:28Z</time>
      </trkpt>
      <trkpt lat="45.11624" lon="4.98279">
        <ele>211.03115844727</ele>
        <time>2009-12-12T12:35:30Z</time>
      </trkpt>
      <trkpt lat="45.11613" lon="4.9826">
        <ele>211.97064208984</ele>
        <time>2009-12-12T12:35:34Z</time>
      </trkpt>
      <trkpt lat="45.11595" lon="4.9824">
        <ele>214.3094329834</ele>
        <time>2009-12-12T12:35:39Z</time>
      </trkpt>
      <trkpt lat="45.11575" lon="4.98223">
        <ele>216.01945495606</ele>
        <time>2009-12-12T12:35:45Z</time>
      </trkpt>
      <trkpt lat="45.1156" lon="4.98211">
        <ele>216.87841796875</ele>
        <time>2009-12-12T12:35:50Z</time>
      </trkpt>
      <trkpt lat="45.11544" lon="4.98197">
        <ele>218.23728942871</ele>
        <time>2009-12-12T12:35:55Z</time>
      </trkpt>
      <trkpt lat="45.11533" lon="4.98188">
        <ele>219.31675720215</ele>
        <time>2009-12-12T12:35:59Z</time>
      </trkpt>
      <trkpt lat="45.11529" lon="4.98161">
        <ele>218.16571044922</ele>
        <time>2009-12-12T12:36:04Z</time>
      </trkpt>
      <trkpt lat="45.11528" lon="4.98151">
        <ele>217.83552551269</ele>
        <time>2009-12-12T12:36:06Z</time>
      </trkpt>
      <trkpt lat="45.11522" lon="4.98136">
        <ele>218.21482849121</ele>
        <time>2009-12-12T12:36:10Z</time>
      </trkpt>
      <trkpt lat="45.11514" lon="4.98136">
        <ele>219.82061767578</ele>
        <time>2009-12-12T12:36:13Z</time>
      </trkpt>
      <trkpt lat="45.11509" lon="4.98149">
        <ele>221.47631835938</ele>
        <time>2009-12-12T12:36:17Z</time>
      </trkpt>
      <trkpt lat="45.11509" lon="4.98154">
        <ele>221.75056457519</ele>
        <time>2009-12-12T12:36:18Z</time>
      </trkpt>
      <trkpt lat="45.11506" lon="4.98195">
        <ele>224.38494873047</ele>
        <time>2009-12-12T12:36:27Z</time>
      </trkpt>
      <trkpt lat="45.1151" lon="4.98236">
        <ele>225.98420715332</ele>
        <time>2009-12-12T12:36:36Z</time>
      </trkpt>
      <trkpt lat="45.11511" lon="4.98258">
        <ele>226.89956665039</ele>
        <time>2009-12-12T12:36:41Z</time>
      </trkpt>
      <trkpt lat="45.11514" lon="4.98289">
        <ele>227.62689208984</ele>
        <time>2009-12-12T12:36:48Z</time>
      </trkpt>
      <trkpt lat="45.11509" lon="4.98315">
        <ele>228.84225463867</ele>
        <time>2009-12-12T12:36:53Z</time>
      </trkpt>
      <trkpt lat="45.11491" lon="4.98349">
        <ele>230.42553710938</ele>
        <time>2009-12-12T12:37:01Z</time>
      </trkpt>
      <trkpt lat="45.11467" lon="4.9838">
        <ele>232.28897094727</ele>
        <time>2009-12-12T12:37:09Z</time>
      </trkpt>
      <trkpt lat="45.11441" lon="4.9841">
        <ele>235.37657165527</ele>
        <time>2009-12-12T12:37:18Z</time>
      </trkpt>
      <trkpt lat="45.11432" lon="4.98425">
        <ele>237.1649017334</ele>
        <time>2009-12-12T12:37:22Z</time>
      </trkpt>
      <trkpt lat="45.1142" lon="4.98449">
        <ele>240.04545593262</ele>
        <time>2009-12-12T12:37:28Z</time>
      </trkpt>
      <trkpt lat="45.11411" lon="4.98481">
        <ele>243.20776367188</ele>
        <time>2009-12-12T12:37:35Z</time>
      </trkpt>
      <trkpt lat="45.11406" lon="4.98488">
        <ele>244.07586669922</ele>
        <time>2009-12-12T12:37:37Z</time>
      </trkpt>
      <trkpt lat="45.11387" lon="4.98502">
        <ele>246.5323638916</ele>
        <time>2009-12-12T12:37:43Z</time>
      </trkpt>
      <trkpt lat="45.1137" lon="4.98517">
        <ele>248.36480712891</ele>
        <time>2009-12-12T12:37:49Z</time>
      </trkpt>
      <trkpt lat="45.11351" lon="4.98539">
        <ele>250.0115814209</ele>
        <time>2009-12-12T12:37:58Z</time>
      </trkpt>
      <trkpt lat="45.11324" lon="4.98558">
        <ele>250.78344726562</ele>
        <time>2009-12-12T12:38:04Z</time>
      </trkpt>
      <trkpt lat="45.11306" lon="4.98572">
        <ele>250.35314941406</ele>
        <time>2009-12-12T12:38:10Z</time>
      </trkpt>
      <trkpt lat="45.11291" lon="4.98595">
        <ele>250.19439697266</ele>
        <time>2009-12-12T12:38:18Z</time>
      </trkpt>
      <trkpt lat="45.11262" lon="4.9863">
        <ele>250.33808898926</ele>
        <time>2009-12-12T12:38:26Z</time>
      </trkpt>
      <trkpt lat="45.11224" lon="4.98677">
        <ele>251.86817932129</ele>
        <time>2009-12-12T12:38:38Z</time>
      </trkpt>
      <trkpt lat="45.11199" lon="4.98704">
        <ele>253.11558532715</ele>
        <time>2009-12-12T12:38:46Z</time>
      </trkpt>
      <trkpt lat="45.11174" lon="4.98729">
        <ele>254.31950378418</ele>
        <time>2009-12-12T12:38:54Z</time>
      </trkpt>
      <trkpt lat="45.11142" lon="4.98759">
        <ele>256.43402099609</ele>
        <time>2009-12-12T12:39:04Z</time>
      </trkpt>
      <trkpt lat="45.11106" lon="4.98789">
        <ele>258.65032958984</ele>
        <time>2009-12-12T12:39:15Z</time>
      </trkpt>
      <trkpt lat="45.1106" lon="4.98828">
        <ele>260.47891235352</ele>
        <time>2009-12-12T12:39:28Z</time>
      </trkpt>
      <trkpt lat="45.11021" lon="4.98858">
        <ele>262.02926635742</ele>
        <time>2009-12-12T12:39:38Z</time>
      </trkpt>
      <trkpt lat="45.10977" lon="4.98891">
        <ele>264.59533691406</ele>
        <time>2009-12-12T12:39:49Z</time>
      </trkpt>
      <trkpt lat="45.10956" lon="4.98901">
        <ele>266.05081176758</ele>
        <time>2009-12-12T12:39:54Z</time>
      </trkpt>
      <trkpt lat="45.10923" lon="4.98901">
        <ele>267.90802001953</ele>
        <time>2009-12-12T12:40:02Z</time>
      </trkpt>
      <trkpt lat="45.10884" lon="4.98897">
        <ele>269.79214477539</ele>
        <time>2009-12-12T12:40:12Z</time>
      </trkpt>
      <trkpt lat="45.10863" lon="4.98907">
        <ele>271.24612426758</ele>
        <time>2009-12-12T12:40:18Z</time>
      </trkpt>
      <trkpt lat="45.10834" lon="4.98935">
        <ele>273.39874267578</ele>
        <time>2009-12-12T12:40:27Z</time>
      </trkpt>
      <trkpt lat="45.10828" lon="4.98941">
        <ele>273.82098388672</ele>
        <time>2009-12-12T12:40:29Z</time>
      </trkpt>
      <trkpt lat="45.10809" lon="4.98959">
        <ele>275.30841064453</ele>
        <time>2009-12-12T12:40:35Z</time>
      </trkpt>
      <trkpt lat="45.10775" lon="4.98992">
        <ele>278.84777832031</ele>
        <time>2009-12-12T12:40:46Z</time>
      </trkpt>
      <trkpt lat="45.10754" lon="4.99012">
        <ele>281.58807373047</ele>
        <time>2009-12-12T12:40:53Z</time>
      </trkpt>
      <trkpt lat="45.10727" lon="4.99039">
        <ele>284.73333740234</ele>
        <time>2009-12-12T12:41:02Z</time>
      </trkpt>
      <trkpt lat="45.10709" lon="4.99045">
        <ele>286.05871582031</ele>
        <time>2009-12-12T12:41:07Z</time>
      </trkpt>
      <trkpt lat="45.10701" lon="4.99043">
        <ele>286.14602661133</ele>
        <time>2009-12-12T12:41:09Z</time>
      </trkpt>
      <trkpt lat="45.10684" lon="4.99021">
        <ele>284.72994995117</ele>
        <time>2009-12-12T12:41:14Z</time>
      </trkpt>
      <trkpt lat="45.10666" lon="4.99002">
        <ele>283.2024230957</ele>
        <time>2009-12-12T12:41:18Z</time>
      </trkpt>
      <trkpt lat="45.1064" lon="4.98996">
        <ele>283.39883422852</ele>
        <time>2009-12-12T12:41:22Z</time>
      </trkpt>
      <trkpt lat="45.10614" lon="4.98978">
        <ele>282.93994140625</ele>
        <time>2009-12-12T12:41:26Z</time>
      </trkpt>
      <trkpt lat="45.10564" lon="4.98936">
        <ele>282.19390869141</ele>
        <time>2009-12-12T12:41:34Z</time>
      </trkpt>
      <trkpt lat="45.10531" lon="4.98911">
        <ele>282.17028808594</ele>
        <time>2009-12-12T12:41:40Z</time>
      </trkpt>
      <trkpt lat="45.10501" lon="4.98887">
        <ele>282.20663452148</ele>
        <time>2009-12-12T12:41:46Z</time>
      </trkpt>
      <trkpt lat="45.10479" lon="4.98858">
        <ele>281.34390258789</ele>
        <time>2009-12-12T12:41:51Z</time>
      </trkpt>
      <trkpt lat="45.1045" lon="4.98815">
        <ele>280.47738647461</ele>
        <time>2009-12-12T12:41:57Z</time>
      </trkpt>
      <trkpt lat="45.10432" lon="4.98799">
        <ele>280.3623046875</ele>
        <time>2009-12-12T12:42:00Z</time>
      </trkpt>
      <trkpt lat="45.10402" lon="4.98776">
        <ele>280.19577026367</ele>
        <time>2009-12-12T12:42:05Z</time>
      </trkpt>
      <trkpt lat="45.1039" lon="4.98768">
        <ele>280.13275146484</ele>
        <time>2009-12-12T12:42:07Z</time>
      </trkpt>
      <trkpt lat="45.10352" lon="4.98739">
        <ele>279.8342590332</ele>
        <time>2009-12-12T12:42:14Z</time>
      </trkpt>
      <trkpt lat="45.10314" lon="4.98715">
        <ele>279.28704833984</ele>
        <time>2009-12-12T12:42:21Z</time>
      </trkpt>
      <trkpt lat="45.10275" lon="4.98696">
        <ele>277.7341003418</ele>
        <time>2009-12-12T12:42:27Z</time>
      </trkpt>
      <trkpt lat="45.10259" lon="4.98689">
        <ele>276.99215698242</ele>
        <time>2009-12-12T12:42:29Z</time>
      </trkpt>
      <trkpt lat="45.10234" lon="4.98686">
        <ele>277.46475219727</ele>
        <time>2009-12-12T12:42:32Z</time>
      </trkpt>
      <trkpt lat="45.10213" lon="4.98708">
        <ele>281.12008666992</ele>
        <time>2009-12-12T12:42:35Z</time>
      </trkpt>
      <trkpt lat="45.10191" lon="4.98722">
        <ele>284.49697875977</ele>
        <time>2009-12-12T12:42:38Z</time>
      </trkpt>
      <trkpt lat="45.1016" lon="4.98717">
        <ele>285.86279296875</ele>
        <time>2009-12-12T12:42:42Z</time>
      </trkpt>
      <trkpt lat="45.1013" lon="4.98702">
        <ele>283.58200073242</ele>
        <time>2009-12-12T12:42:47Z</time>
      </trkpt>
      <trkpt lat="45.10088" lon="4.98684">
        <ele>279.86779785156</ele>
        <time>2009-12-12T12:42:54Z</time>
      </trkpt>
      <trkpt lat="45.10051" lon="4.98674">
        <ele>279.02197265625</ele>
        <time>2009-12-12T12:43:00Z</time>
      </trkpt>
      <trkpt lat="45.10042" lon="4.98672">
        <ele>278.97045898438</ele>
        <time>2009-12-12T12:43:06Z</time>
      </trkpt>
      <trkpt lat="45.09977" lon="4.98666">
        <ele>279.41131591797</ele>
        <time>2009-12-12T12:43:12Z</time>
      </trkpt>
      <trkpt lat="45.09945" lon="4.98679">
        <ele>280.52093505859</ele>
        <time>2009-12-12T12:43:17Z</time>
      </trkpt>
      <trkpt lat="45.09908" lon="4.98698">
        <ele>282.73498535156</ele>
        <time>2009-12-12T12:43:22Z</time>
      </trkpt>
      <trkpt lat="45.09885" lon="4.98694">
        <ele>283.11953735352</ele>
        <time>2009-12-12T12:43:25Z</time>
      </trkpt>
      <trkpt lat="45.09849" lon="4.98668">
        <ele>282.22763061523</ele>
        <time>2009-12-12T12:43:31Z</time>
      </trkpt>
      <trkpt lat="45.09817" lon="4.98665">
        <ele>282.90374755859</ele>
        <time>2009-12-12T12:43:37Z</time>
      </trkpt>
      <trkpt lat="45.09794" lon="4.98667">
        <ele>283.04922485352</ele>
        <time>2009-12-12T12:43:42Z</time>
      </trkpt>
      <trkpt lat="45.09772" lon="4.9867">
        <ele>283.15789794922</ele>
        <time>2009-12-12T12:43:47Z</time>
      </trkpt>
      <trkpt lat="45.0975" lon="4.98672">
        <ele>283.2317199707</ele>
        <time>2009-12-12T12:43:52Z</time>
      </trkpt>
      <trkpt lat="45.09719" lon="4.98657">
        <ele>281.91195678711</ele>
        <time>2009-12-12T12:43:59Z</time>
      </trkpt>
      <trkpt lat="45.09674" lon="4.98631">
        <ele>280.98477172852</ele>
        <time>2009-12-12T12:44:08Z</time>
      </trkpt>
      <trkpt lat="45.09659" lon="4.98621">
        <ele>280.88702392578</ele>
        <time>2009-12-12T12:44:11Z</time>
      </trkpt>
      <trkpt lat="45.09622" lon="4.98599">
        <ele>281.36364746094</ele>
        <time>2009-12-12T12:44:19Z</time>
      </trkpt>
      <trkpt lat="45.09562" lon="4.98574">
        <ele>283.15042114258</ele>
        <time>2009-12-12T12:44:30Z</time>
      </trkpt>
      <trkpt lat="45.0952" lon="4.98556">
        <ele>283.72631835938</ele>
        <time>2009-12-12T12:44:38Z</time>
      </trkpt>
      <trkpt lat="45.0951" lon="4.98552">
        <ele>283.91598510742</ele>
        <time>2009-12-12T12:44:40Z</time>
      </trkpt>
      <trkpt lat="45.0951" lon="4.98552">
        <ele>283.91598510742</ele>
        <time>2009-12-12T12:44:46Z</time>
      </trkpt>
      <trkpt lat="45.09448" lon="4.98541">
        <ele>286.40411376953</ele>
        <time>2009-12-12T12:44:54Z</time>
      </trkpt>
      <trkpt lat="45.09436" lon="4.98539">
        <ele>287.02642822266</ele>
        <time>2009-12-12T12:44:57Z</time>
      </trkpt>
      <trkpt lat="45.09395" lon="4.98532">
        <ele>288.27075195312</ele>
        <time>2009-12-12T12:45:06Z</time>
      </trkpt>
      <trkpt lat="45.09357" lon="4.98524">
        <ele>288.66784667969</ele>
        <time>2009-12-12T12:45:14Z</time>
      </trkpt>
      <trkpt lat="45.0933" lon="4.9851">
        <ele>289.74194335938</ele>
        <time>2009-12-12T12:45:20Z</time>
      </trkpt>
      <trkpt lat="45.09298" lon="4.98478">
        <ele>291.05911254883</ele>
        <time>2009-12-12T12:45:28Z</time>
      </trkpt>
      <trkpt lat="45.09272" lon="4.98447">
        <ele>291.15115356445</ele>
        <time>2009-12-12T12:45:34Z</time>
      </trkpt>
      <trkpt lat="45.0924" lon="4.98409">
        <ele>289.39605712891</ele>
        <time>2009-12-12T12:45:41Z</time>
      </trkpt>
      <trkpt lat="45.09219" lon="4.98384">
        <ele>288.19122314453</ele>
        <time>2009-12-12T12:45:46Z</time>
      </trkpt>
      <trkpt lat="45.09212" lon="4.98373">
        <ele>287.61959838867</ele>
        <time>2009-12-12T12:45:48Z</time>
      </trkpt>
      <trkpt lat="45.09205" lon="4.98362">
        <ele>286.92584228516</ele>
        <time>2009-12-12T12:45:50Z</time>
      </trkpt>
      <trkpt lat="45.09189" lon="4.98338">
        <ele>284.90258789062</ele>
        <time>2009-12-12T12:45:54Z</time>
      </trkpt>
      <trkpt lat="45.09171" lon="4.98264">
        <ele>280.21420288086</ele>
        <time>2009-12-12T12:46:02Z</time>
      </trkpt>
      <trkpt lat="45.09164" lon="4.98194">
        <ele>278.6442565918</ele>
        <time>2009-12-12T12:46:09Z</time>
      </trkpt>
      <trkpt lat="45.0916" lon="4.98157">
        <ele>278.3835144043</ele>
        <time>2009-12-12T12:46:13Z</time>
      </trkpt>
      <trkpt lat="45.09151" lon="4.98091">
        <ele>278.87701416016</ele>
        <time>2009-12-12T12:46:21Z</time>
      </trkpt>
      <trkpt lat="45.09144" lon="4.98047">
        <ele>277.67446899414</ele>
        <time>2009-12-12T12:46:27Z</time>
      </trkpt>
      <trkpt lat="45.09135" lon="4.97995">
        <ele>276.07342529297</ele>
        <time>2009-12-12T12:46:33Z</time>
      </trkpt>
      <trkpt lat="45.09133" lon="4.97986">
        <ele>275.732421875</ele>
        <time>2009-12-12T12:46:34Z</time>
      </trkpt>
      <trkpt lat="45.09119" lon="4.97955">
        <ele>275.08282470703</ele>
        <time>2009-12-12T12:46:38Z</time>
      </trkpt>
      <trkpt lat="45.09092" lon="4.97927">
        <ele>276.23690795898</ele>
        <time>2009-12-12T12:46:44Z</time>
      </trkpt>
      <trkpt lat="45.09074" lon="4.97909">
        <ele>276.97256469727</ele>
        <time>2009-12-12T12:46:48Z</time>
      </trkpt>
      <trkpt lat="45.09035" lon="4.97869">
        <ele>277.00347900391</ele>
        <time>2009-12-12T12:46:57Z</time>
      </trkpt>
      <trkpt lat="45.09005" lon="4.97838">
        <ele>277.0263671875</ele>
        <time>2009-12-12T12:47:03Z</time>
      </trkpt>
      <trkpt lat="45.08971" lon="4.97804">
        <ele>275.1296081543</ele>
        <time>2009-12-12T12:47:09Z</time>
      </trkpt>
      <trkpt lat="45.08936" lon="4.97776">
        <ele>273.37023925781</ele>
        <time>2009-12-12T12:47:14Z</time>
      </trkpt>
      <trkpt lat="45.08882" lon="4.97732">
        <ele>271.68762207031</ele>
        <time>2009-12-12T12:47:21Z</time>
      </trkpt>
      <trkpt lat="45.08834" lon="4.97689">
        <ele>269.76943969727</ele>
        <time>2009-12-12T12:47:27Z</time>
      </trkpt>
      <trkpt lat="45.08793" lon="4.97637">
        <ele>268.11380004883</ele>
        <time>2009-12-12T12:47:33Z</time>
      </trkpt>
      <trkpt lat="45.08775" lon="4.9761">
        <ele>267.38198852539</ele>
        <time>2009-12-12T12:47:36Z</time>
      </trkpt>
      <trkpt lat="45.08758" lon="4.97585">
        <ele>266.56442260742</ele>
        <time>2009-12-12T12:47:39Z</time>
      </trkpt>
      <trkpt lat="45.08728" lon="4.9754">
        <ele>266.76232910156</ele>
        <time>2009-12-12T12:47:45Z</time>
      </trkpt>
      <trkpt lat="45.08692" lon="4.97487">
        <ele>265.93469238281</ele>
        <time>2009-12-12T12:47:53Z</time>
      </trkpt>
      <trkpt lat="45.08677" lon="4.97451">
        <ele>265.615234375</ele>
        <time>2009-12-12T12:47:58Z</time>
      </trkpt>
      <trkpt lat="45.08665" lon="4.9742">
        <ele>265.86209106445</ele>
        <time>2009-12-12T12:48:03Z</time>
      </trkpt>
      <trkpt lat="45.0865" lon="4.97389">
        <ele>264.80505371094</ele>
        <time>2009-12-12T12:48:08Z</time>
      </trkpt>
      <trkpt lat="45.08639" lon="4.97372">
        <ele>264.46667480469</ele>
        <time>2009-12-12T12:48:11Z</time>
      </trkpt>
      <trkpt lat="45.08626" lon="4.97355">
        <ele>264.47918701172</ele>
        <time>2009-12-12T12:48:15Z</time>
      </trkpt>
      <trkpt lat="45.08615" lon="4.97369">
        <ele>264.54769897461</ele>
        <time>2009-12-12T12:48:17Z</time>
      </trkpt>
      <trkpt lat="45.08586" lon="4.97416">
        <ele>263.13650512695</ele>
        <time>2009-12-12T12:48:23Z</time>
      </trkpt>
      <trkpt lat="45.08579" lon="4.97428">
        <ele>262.32583618164</ele>
        <time>2009-12-12T12:48:25Z</time>
      </trkpt>
      <trkpt lat="45.08548" lon="4.97515">
        <ele>258.03671264648</ele>
        <time>2009-12-12T12:48:32Z</time>
      </trkpt>
      <trkpt lat="45.08527" lon="4.97568">
        <ele>257.38189697266</ele>
        <time>2009-12-12T12:48:37Z</time>
      </trkpt>
      <trkpt lat="45.08506" lon="4.97596">
        <ele>257.37017822266</ele>
        <time>2009-12-12T12:48:41Z</time>
      </trkpt>
      <trkpt lat="45.0848" lon="4.97607">
        <ele>257.83715820312</ele>
        <time>2009-12-12T12:48:45Z</time>
      </trkpt>
      <trkpt lat="45.08422" lon="4.97601">
        <ele>258.7014465332</ele>
        <time>2009-12-12T12:48:54Z</time>
      </trkpt>
      <trkpt lat="45.08377" lon="4.97592">
        <ele>258.51953125</ele>
        <time>2009-12-12T12:49:01Z</time>
      </trkpt>
      <trkpt lat="45.0835" lon="4.97584">
        <ele>258.2092590332</ele>
        <time>2009-12-12T12:49:05Z</time>
      </trkpt>
      <trkpt lat="45.08282" lon="4.97563">
        <ele>256.85290527344</ele>
        <time>2009-12-12T12:49:15Z</time>
      </trkpt>
      <trkpt lat="45.08232" lon="4.97549">
        <ele>255.05310058594</ele>
        <time>2009-12-12T12:49:23Z</time>
      </trkpt>
      <trkpt lat="45.08201" lon="4.97543">
        <ele>253.46868896484</ele>
        <time>2009-12-12T12:49:29Z</time>
      </trkpt>
      <trkpt lat="45.0816" lon="4.97549">
        <ele>251.24546813965</ele>
        <time>2009-12-12T12:49:34Z</time>
      </trkpt>
      <trkpt lat="45.08111" lon="4.97556">
        <ele>246.97532653809</ele>
        <time>2009-12-12T12:49:40Z</time>
      </trkpt>
      <trkpt lat="45.0807" lon="4.97556">
        <ele>243.95840454102</ele>
        <time>2009-12-12T12:49:44Z</time>
      </trkpt>
      <trkpt lat="45.0806" lon="4.97556">
        <ele>243.42669677734</ele>
        <time>2009-12-12T12:49:45Z</time>
      </trkpt>
      <trkpt lat="45.08009" lon="4.9753">
        <ele>241.2575378418</ele>
        <time>2009-12-12T12:49:50Z</time>
      </trkpt>
      <trkpt lat="45.0799" lon="4.97519">
        <ele>240.60609436035</ele>
        <time>2009-12-12T12:49:52Z</time>
      </trkpt>
      <trkpt lat="45.0794" lon="4.97506">
        <ele>239.62803649902</ele>
        <time>2009-12-12T12:49:57Z</time>
      </trkpt>
      <trkpt lat="45.07912" lon="4.97514">
        <ele>239.16653442383</ele>
        <time>2009-12-12T12:50:00Z</time>
      </trkpt>
      <trkpt lat="45.07891" lon="4.97534">
        <ele>238.96942138672</ele>
        <time>2009-12-12T12:50:03Z</time>
      </trkpt>
      <trkpt lat="45.07873" lon="4.97551">
        <ele>239.08467102051</ele>
        <time>2009-12-12T12:50:06Z</time>
      </trkpt>
      <trkpt lat="45.07832" lon="4.97581">
        <ele>239.83477783203</ele>
        <time>2009-12-12T12:50:12Z</time>
      </trkpt>
      <trkpt lat="45.0778" lon="4.97615">
        <ele>238.84327697754</ele>
        <time>2009-12-12T12:50:19Z</time>
      </trkpt>
      <trkpt lat="45.07712" lon="4.97668">
        <ele>239.93656921387</ele>
        <time>2009-12-12T12:50:29Z</time>
      </trkpt>
      <trkpt lat="45.07661" lon="4.97718">
        <ele>239.12948608398</ele>
        <time>2009-12-12T12:50:37Z</time>
      </trkpt>
      <trkpt lat="45.07618" lon="4.97765">
        <ele>241.33729553223</ele>
        <time>2009-12-12T12:50:45Z</time>
      </trkpt>
      <trkpt lat="45.07592" lon="4.97809">
        <ele>241.91345214844</ele>
        <time>2009-12-12T12:50:51Z</time>
      </trkpt>
      <trkpt lat="45.07568" lon="4.97857">
        <ele>241.17926025391</ele>
        <time>2009-12-12T12:50:57Z</time>
      </trkpt>
      <trkpt lat="45.07549" lon="4.97896">
        <ele>239.29158020019</ele>
        <time>2009-12-12T12:51:02Z</time>
      </trkpt>
      <trkpt lat="45.07516" lon="4.97926">
        <ele>238.20491027832</ele>
        <time>2009-12-12T12:51:07Z</time>
      </trkpt>
      <trkpt lat="45.07489" lon="4.9793">
        <ele>237.92106628418</ele>
        <time>2009-12-12T12:51:10Z</time>
      </trkpt>
      <trkpt lat="45.07405" lon="4.9791">
        <ele>236.60304260254</ele>
        <time>2009-12-12T12:51:19Z</time>
      </trkpt>
      <trkpt lat="45.07368" lon="4.97908">
        <ele>236.27572631836</ele>
        <time>2009-12-12T12:51:23Z</time>
      </trkpt>
      <trkpt lat="45.07323" lon="4.97925">
        <ele>235.28393554688</ele>
        <time>2009-12-12T12:51:28Z</time>
      </trkpt>
      <trkpt lat="45.07276" lon="4.97959">
        <ele>236.45350646973</ele>
        <time>2009-12-12T12:51:34Z</time>
      </trkpt>
      <trkpt lat="45.07232" lon="4.97974">
        <ele>236.3963470459</ele>
        <time>2009-12-12T12:51:39Z</time>
      </trkpt>
      <trkpt lat="45.07204" lon="4.97976">
        <ele>235.30661010742</ele>
        <time>2009-12-12T12:51:42Z</time>
      </trkpt>
      <trkpt lat="45.07183" lon="4.97979">
        <ele>234.12246704102</ele>
        <time>2009-12-12T12:51:44Z</time>
      </trkpt>
      <trkpt lat="45.07163" lon="4.97991">
        <ele>231.11303710938</ele>
        <time>2009-12-12T12:51:46Z</time>
      </trkpt>
      <trkpt lat="45.07131" lon="4.98014">
        <ele>227.95217895508</ele>
        <time>2009-12-12T12:51:49Z</time>
      </trkpt>
      <trkpt lat="45.07096" lon="4.98035">
        <ele>224.51559448242</ele>
        <time>2009-12-12T12:51:52Z</time>
      </trkpt>
      <trkpt lat="45.07067" lon="4.98072">
        <ele>217.61091613769</ele>
        <time>2009-12-12T12:51:55Z</time>
      </trkpt>
      <trkpt lat="45.07043" lon="4.98088">
        <ele>215.59999084473</ele>
        <time>2009-12-12T12:51:57Z</time>
      </trkpt>
      <trkpt lat="45.06901" lon="4.98131">
        <ele>210.53247070312</ele>
        <time>2009-12-12T12:52:08Z</time>
      </trkpt>
      <trkpt lat="45.06901" lon="4.98131">
        <ele>210.53247070312</ele>
        <time>2009-12-12T12:52:13Z</time>
      </trkpt>
      <trkpt lat="45.06802" lon="4.98153">
        <ele>200.86450195312</ele>
        <time>2009-12-12T12:52:17Z</time>
      </trkpt>
      <trkpt lat="45.06729" lon="4.98151">
        <ele>198.45907592773</ele>
        <time>2009-12-12T12:52:20Z</time>
      </trkpt>
      <trkpt lat="45.067" lon="4.98164">
        <ele>197.29110717773</ele>
        <time>2009-12-12T12:52:22Z</time>
      </trkpt>
      <trkpt lat="45.06639" lon="4.98187">
        <ele>192.88908386231</ele>
        <time>2009-12-12T12:52:26Z</time>
      </trkpt>
      <trkpt lat="45.06597" lon="4.98216">
        <ele>185.21160888672</ele>
        <time>2009-12-12T12:52:29Z</time>
      </trkpt>
      <trkpt lat="45.06586" lon="4.98231">
        <ele>182.2371673584</ele>
        <time>2009-12-12T12:52:30Z</time>
      </trkpt>
      <trkpt lat="45.06531" lon="4.98319">
        <ele>173.94277954102</ele>
        <time>2009-12-12T12:52:35Z</time>
      </trkpt>
      <trkpt lat="45.06473" lon="4.98398">
        <ele>167.22808837891</ele>
        <time>2009-12-12T12:52:40Z</time>
      </trkpt>
      <trkpt lat="45.06462" lon="4.98414">
        <ele>166.23629760742</ele>
        <time>2009-12-12T12:52:41Z</time>
      </trkpt>
      <trkpt lat="45.06451" lon="4.98429">
        <ele>165.45967102051</ele>
        <time>2009-12-12T12:52:42Z</time>
      </trkpt>
      <trkpt lat="45.06406" lon="4.98517">
        <ele>163.43226623535</ele>
        <time>2009-12-12T12:52:48Z</time>
      </trkpt>
      <trkpt lat="45.06374" lon="4.98581">
        <ele>165.43713378906</ele>
        <time>2009-12-12T12:52:53Z</time>
      </trkpt>
      <trkpt lat="45.06368" lon="4.98592">
        <ele>166.07263183594</ele>
        <time>2009-12-12T12:52:54Z</time>
      </trkpt>
      <trkpt lat="45.06349" lon="4.98621">
        <ele>167.9952545166</ele>
        <time>2009-12-12T12:52:57Z</time>
      </trkpt>
      <trkpt lat="45.06317" lon="4.98646">
        <ele>170.0852355957</ele>
        <time>2009-12-12T12:53:02Z</time>
      </trkpt>
      <trkpt lat="45.0631" lon="4.98648">
        <ele>170.33012390137</ele>
        <time>2009-12-12T12:53:03Z</time>
      </trkpt>
      <trkpt lat="45.06289" lon="4.98655">
        <ele>171.20980834961</ele>
        <time>2009-12-12T12:53:07Z</time>
      </trkpt>
      <trkpt lat="45.06272" lon="4.9866">
        <ele>171.98153686523</ele>
        <time>2009-12-12T12:53:11Z</time>
      </trkpt>
      <trkpt lat="45.06265" lon="4.98664">
        <ele>172.39978027344</ele>
        <time>2009-12-12T12:53:13Z</time>
      </trkpt>
      <trkpt lat="45.06246" lon="4.98672">
        <ele>173.73873901367</ele>
        <time>2009-12-12T12:53:18Z</time>
      </trkpt>
      <trkpt lat="45.06229" lon="4.9868">
        <ele>174.36322021484</ele>
        <time>2009-12-12T12:53:23Z</time>
      </trkpt>
      <trkpt lat="45.06205" lon="4.98696">
        <ele>175.3464050293</ele>
        <time>2009-12-12T12:53:29Z</time>
      </trkpt>
      <trkpt lat="45.06197" lon="4.98702">
        <ele>175.63137817383</ele>
        <time>2009-12-12T12:53:37Z</time>
      </trkpt>
      <trkpt lat="45.06158" lon="4.98736">
        <ele>175.2724609375</ele>
        <time>2009-12-12T12:53:42Z</time>
      </trkpt>
      <trkpt lat="45.06149" lon="4.98743">
        <ele>174.22465515137</ele>
        <time>2009-12-12T12:53:44Z</time>
      </trkpt>
      <trkpt lat="45.06128" lon="4.98766">
        <ele>171.25309753418</ele>
        <time>2009-12-12T12:53:48Z</time>
      </trkpt>
      <trkpt lat="45.06108" lon="4.98803">
        <ele>168.8620300293</ele>
        <time>2009-12-12T12:53:53Z</time>
      </trkpt>
      <trkpt lat="45.06095" lon="4.98816">
        <ele>166.68612670898</ele>
        <time>2009-12-12T12:53:57Z</time>
      </trkpt>
      <trkpt lat="45.06091" lon="4.98818">
        <ele>165.89161682129</ele>
        <time>2009-12-12T12:53:59Z</time>
      </trkpt>
      <trkpt lat="45.06092" lon="4.98851">
        <ele>166.90643310547</ele>
        <time>2009-12-12T12:54:04Z</time>
      </trkpt>
      <trkpt lat="45.06095" lon="4.989">
        <ele>167.7508392334</ele>
        <time>2009-12-12T12:54:11Z</time>
      </trkpt>
      <trkpt lat="45.061" lon="4.98972">
        <ele>166.17887878418</ele>
        <time>2009-12-12T12:54:20Z</time>
      </trkpt>
      <trkpt lat="45.061" lon="4.99055">
        <ele>163.5998840332</ele>
        <time>2009-12-12T12:54:30Z</time>
      </trkpt>
      <trkpt lat="45.06093" lon="4.9913">
        <ele>162.22822570801</ele>
        <time>2009-12-12T12:54:39Z</time>
      </trkpt>
      <trkpt lat="45.06078" lon="4.99219">
        <ele>161.166015625</ele>
        <time>2009-12-12T12:54:49Z</time>
      </trkpt>
      <trkpt lat="45.06059" lon="4.99326">
        <ele>160.01110839844</ele>
        <time>2009-12-12T12:55:01Z</time>
      </trkpt>
      <trkpt lat="45.06051" lon="4.99371">
        <ele>160.73931884766</ele>
        <time>2009-12-12T12:55:08Z</time>
      </trkpt>
      <trkpt lat="45.06041" lon="4.99432">
        <ele>161.68357849121</ele>
        <time>2009-12-12T12:55:14Z</time>
      </trkpt>
      <trkpt lat="45.06029" lon="4.9951">
        <ele>162.07354736328</ele>
        <time>2009-12-12T12:55:24Z</time>
      </trkpt>
      <trkpt lat="45.06012" lon="4.99588">
        <ele>162.07708740234</ele>
        <time>2009-12-12T12:55:34Z</time>
      </trkpt>
      <trkpt lat="45.0599" lon="4.99678">
        <ele>160.74328613281</ele>
        <time>2009-12-12T12:55:45Z</time>
      </trkpt>
      <trkpt lat="45.05988" lon="4.99686">
        <ele>160.61740112305</ele>
        <time>2009-12-12T12:55:46Z</time>
      </trkpt>
      <trkpt lat="45.05983" lon="4.99706">
        <ele>160.31527709961</ele>
        <time>2009-12-12T12:55:49Z</time>
      </trkpt>
      <trkpt lat="45.06004" lon="4.99718">
        <ele>160.40603637695</ele>
        <time>2009-12-12T12:55:52Z</time>
      </trkpt>
      <trkpt lat="45.06025" lon="4.99731">
        <ele>160.46244812012</ele>
        <time>2009-12-12T12:55:57Z</time>
      </trkpt>
      <trkpt lat="45.0604" lon="4.99739">
        <ele>160.5486907959</ele>
        <time>2009-12-12T12:56:02Z</time>
      </trkpt>
      <trkpt lat="45.06045" lon="4.99748">
        <ele>160.54943847656</ele>
        <time>2009-12-12T12:56:04Z</time>
      </trkpt>
      <trkpt lat="45.0605" lon="4.99769">
        <ele>160.86299133301</ele>
        <time>2009-12-12T12:56:08Z</time>
      </trkpt>
      <trkpt lat="45.06059" lon="4.99815">
        <ele>161.80018615723</ele>
        <time>2009-12-12T12:56:16Z</time>
      </trkpt>
      <trkpt lat="45.06068" lon="4.99864">
        <ele>162.81861877441</ele>
        <time>2009-12-12T12:56:24Z</time>
      </trkpt>
      <trkpt lat="45.06073" lon="4.99893">
        <ele>163.35191345215</ele>
        <time>2009-12-12T12:56:29Z</time>
      </trkpt>
      <trkpt lat="45.06076" lon="4.99903">
        <ele>163.56591796875</ele>
        <time>2009-12-12T12:56:31Z</time>
      </trkpt>
      <trkpt lat="45.06082" lon="4.99937">
        <ele>163.94378662109</ele>
        <time>2009-12-12T12:56:37Z</time>
      </trkpt>
      <trkpt lat="45.06082" lon="4.99976">
        <ele>163.95751953125</ele>
        <time>2009-12-12T12:56:44Z</time>
      </trkpt>
      <trkpt lat="45.06081" lon="5.00005">
        <ele>170.06217956543</ele>
        <time>2009-12-12T12:56:49Z</time>
      </trkpt>
      <trkpt lat="45.06076" lon="5.00049">
        <ele>170.50305175781</ele>
        <time>2009-12-12T12:56:56Z</time>
      </trkpt>
      <trkpt lat="45.0607" lon="5.00119">
        <ele>171.17561340332</ele>
        <time>2009-12-12T12:57:06Z</time>
      </trkpt>
      <trkpt lat="45.06065" lon="5.00169">
        <ele>171.04353332519</ele>
        <time>2009-12-12T12:57:13Z</time>
      </trkpt>
      <trkpt lat="45.06061" lon="5.00211">
        <ele>170.80883789062</ele>
        <time>2009-12-12T12:57:19Z</time>
      </trkpt>
      <trkpt lat="45.06062" lon="5.00262">
        <ele>171.91870117188</ele>
        <time>2009-12-12T12:57:26Z</time>
      </trkpt>
      <trkpt lat="45.06065" lon="5.00325">
        <ele>173.10150146484</ele>
        <time>2009-12-12T12:57:34Z</time>
      </trkpt>
      <trkpt lat="45.06068" lon="5.00378">
        <ele>172.46118164062</ele>
        <time>2009-12-12T12:57:41Z</time>
      </trkpt>
      <trkpt lat="45.06068" lon="5.0038">
        <ele>172.48764038086</ele>
        <time>2009-12-12T12:57:46Z</time>
      </trkpt>
      <trkpt lat="45.06073" lon="5.00453">
        <ele>171.84259033203</ele>
        <time>2009-12-12T12:57:54Z</time>
      </trkpt>
      <trkpt lat="45.06074" lon="5.0053">
        <ele>170.66912841797</ele>
        <time>2009-12-12T12:58:02Z</time>
      </trkpt>
      <trkpt lat="45.06076" lon="5.00629">
        <ele>169.73779296875</ele>
        <time>2009-12-12T12:58:14Z</time>
      </trkpt>
      <trkpt lat="45.06078" lon="5.0067">
        <ele>169.80645751953</ele>
        <time>2009-12-12T12:58:19Z</time>
      </trkpt>
      <trkpt lat="45.06082" lon="5.00706">
        <ele>169.55506896973</ele>
        <time>2009-12-12T12:58:24Z</time>
      </trkpt>
      <trkpt lat="45.06088" lon="5.00764">
        <ele>169</ele>
        <time>2009-12-12T12:58:33Z</time>
      </trkpt>
      <trkpt lat="45.06093" lon="5.00816">
        <ele>169</ele>
        <time>2009-12-12T12:58:40Z</time>
      </trkpt>
      <trkpt lat="45.061" lon="5.0088">
        <ele>169.60296630859</ele>
        <time>2009-12-12T12:58:48Z</time>
      </trkpt>
      <trkpt lat="45.06102" lon="5.00918">
        <ele>169.68536376953</ele>
        <time>2009-12-12T12:58:53Z</time>
      </trkpt>
      <trkpt lat="45.061" lon="5.00972">
        <ele>169.60296630859</ele>
        <time>2009-12-12T12:59:00Z</time>
      </trkpt>
      <trkpt lat="45.06098" lon="5.01015">
        <ele>169.53430175781</ele>
        <time>2009-12-12T12:59:10Z</time>
      </trkpt>
      <trkpt lat="45.06098" lon="5.01098">
        <ele>169.82215881348</ele>
        <time>2009-12-12T12:59:16Z</time>
      </trkpt>
      <trkpt lat="45.06098" lon="5.01129">
        <ele>170.73004150391</ele>
        <time>2009-12-12T12:59:22Z</time>
      </trkpt>
      <trkpt lat="45.06103" lon="5.01129">
        <ele>171.05276489258</ele>
        <time>2009-12-12T12:59:24Z</time>
      </trkpt>
      <trkpt lat="45.06112" lon="5.01126">
        <ele>171.55107116699</ele>
        <time>2009-12-12T12:59:27Z</time>
      </trkpt>
      <trkpt lat="45.06145" lon="5.01112">
        <ele>172.49035644531</ele>
        <time>2009-12-12T12:59:36Z</time>
      </trkpt>
      <trkpt lat="45.0617" lon="5.01103">
        <ele>173.89797973633</ele>
        <time>2009-12-12T12:59:43Z</time>
      </trkpt>
      <trkpt lat="45.06184" lon="5.01097">
        <ele>174.75628662109</ele>
        <time>2009-12-12T12:59:50Z</time>
      </trkpt>
      <trkpt lat="45.06226" lon="5.0108">
        <ele>177.16983032227</ele>
        <time>2009-12-12T12:59:58Z</time>
      </trkpt>
      <trkpt lat="45.06266" lon="5.01083">
        <ele>178.98773193359</ele>
        <time>2009-12-12T13:00:07Z</time>
      </trkpt>
      <trkpt lat="45.06289" lon="5.01088">
        <ele>179</ele>
        <time>2009-12-12T13:00:12Z</time>
      </trkpt>
      <trkpt lat="45.06322" lon="5.01096">
        <ele>179.58178710938</ele>
        <time>2009-12-12T13:00:19Z</time>
      </trkpt>
      <trkpt lat="45.06364" lon="5.01112">
        <ele>180.09806823731</ele>
        <time>2009-12-12T13:00:28Z</time>
      </trkpt>
      <trkpt lat="45.06403" lon="5.01126">
        <ele>180.53549194336</ele>
        <time>2009-12-12T13:00:36Z</time>
      </trkpt>
      <trkpt lat="45.06446" lon="5.01143">
        <ele>180.74270629883</ele>
        <time>2009-12-12T13:00:45Z</time>
      </trkpt>
      <trkpt lat="45.06485" lon="5.01157">
        <ele>182.15267944336</ele>
        <time>2009-12-12T13:00:55Z</time>
      </trkpt>
      <trkpt lat="45.06534" lon="5.01181">
        <ele>192.59815979004</ele>
        <time>2009-12-12T13:01:03Z</time>
      </trkpt>
      <trkpt lat="45.0657" lon="5.01216">
        <ele>196.30072021484</ele>
        <time>2009-12-12T13:01:12Z</time>
      </trkpt>
      <trkpt lat="45.06599" lon="5.0125">
        <ele>198.57522583008</ele>
        <time>2009-12-12T13:01:20Z</time>
      </trkpt>
      <trkpt lat="45.06636" lon="5.01292">
        <ele>199.89770507812</ele>
        <time>2009-12-12T13:01:29Z</time>
      </trkpt>
      <trkpt lat="45.06653" lon="5.01312">
        <ele>200</ele>
        <time>2009-12-12T13:01:33Z</time>
      </trkpt>
      <trkpt lat="45.06688" lon="5.01323">
        <ele>200</ele>
        <time>2009-12-12T13:01:40Z</time>
      </trkpt>
      <trkpt lat="45.06693" lon="5.01324">
        <ele>200</ele>
        <time>2009-12-12T13:01:41Z</time>
      </trkpt>
      <trkpt lat="45.06746" lon="5.01322">
        <ele>200</ele>
        <time>2009-12-12T13:01:52Z</time>
      </trkpt>
      <trkpt lat="45.06769" lon="5.01321">
        <ele>200</ele>
        <time>2009-12-12T13:01:57Z</time>
      </trkpt>
      <trkpt lat="45.06796" lon="5.0132">
        <ele>200</ele>
        <time>2009-12-12T13:02:03Z</time>
      </trkpt>
      <trkpt lat="45.06813" lon="5.01319">
        <ele>200</ele>
        <time>2009-12-12T13:02:07Z</time>
      </trkpt>
      <trkpt lat="45.06852" lon="5.01317">
        <ele>200</ele>
        <time>2009-12-12T13:02:16Z</time>
      </trkpt>
      <trkpt lat="45.06889" lon="5.01316">
        <ele>200</ele>
        <time>2009-12-12T13:02:25Z</time>
      </trkpt>
      <trkpt lat="45.06921" lon="5.01312">
        <ele>200</ele>
        <time>2009-12-12T13:02:33Z</time>
      </trkpt>
      <trkpt lat="45.06956" lon="5.01303">
        <ele>200.22366333008</ele>
        <time>2009-12-12T13:02:42Z</time>
      </trkpt>
      <trkpt lat="45.06971" lon="5.01297">
        <ele>200.0539855957</ele>
        <time>2009-12-12T13:02:46Z</time>
      </trkpt>
      <trkpt lat="45.07006" lon="5.01283">
        <ele>200</ele>
        <time>2009-12-12T13:02:56Z</time>
      </trkpt>
      <trkpt lat="45.07025" lon="5.01276">
        <ele>200.64791870117</ele>
        <time>2009-12-12T13:03:01Z</time>
      </trkpt>
      <trkpt lat="45.07054" lon="5.01265">
        <ele>204.29385375977</ele>
        <time>2009-12-12T13:03:09Z</time>
      </trkpt>
      <trkpt lat="45.07084" lon="5.01249">
        <ele>208.23335266113</ele>
        <time>2009-12-12T13:03:18Z</time>
      </trkpt>
      <trkpt lat="45.07111" lon="5.01225">
        <ele>212.60028076172</ele>
        <time>2009-12-12T13:03:27Z</time>
      </trkpt>
      <trkpt lat="45.07138" lon="5.01194">
        <ele>218.11271667481</ele>
        <time>2009-12-12T13:03:37Z</time>
      </trkpt>
      <trkpt lat="45.07159" lon="5.01167">
        <ele>219.96145629883</ele>
        <time>2009-12-12T13:03:45Z</time>
      </trkpt>
      <trkpt lat="45.07182" lon="5.01145">
        <ele>223.44677734375</ele>
        <time>2009-12-12T13:03:53Z</time>
      </trkpt>
      <trkpt lat="45.0721" lon="5.01123">
        <ele>226.91165161133</ele>
        <time>2009-12-12T13:04:02Z</time>
      </trkpt>
      <trkpt lat="45.07222" lon="5.01113">
        <ele>228.66259765625</ele>
        <time>2009-12-12T13:04:06Z</time>
      </trkpt>
      <trkpt lat="45.07263" lon="5.01082">
        <ele>232.05554199219</ele>
        <time>2009-12-12T13:04:19Z</time>
      </trkpt>
      <trkpt lat="45.07293" lon="5.01062">
        <ele>236.56491088867</ele>
        <time>2009-12-12T13:04:28Z</time>
      </trkpt>
      <trkpt lat="45.07331" lon="5.01037">
        <ele>239.57241821289</ele>
        <time>2009-12-12T13:04:40Z</time>
      </trkpt>
      <trkpt lat="45.0736" lon="5.01019">
        <ele>240.30963134766</ele>
        <time>2009-12-12T13:04:49Z</time>
      </trkpt>
      <trkpt lat="45.07363" lon="5.01017">
        <ele>240.39836120606</ele>
        <time>2009-12-12T13:04:50Z</time>
      </trkpt>
      <trkpt lat="45.0739" lon="5.00999">
        <ele>241.03393554688</ele>
        <time>2009-12-12T13:04:59Z</time>
      </trkpt>
      <trkpt lat="45.07421" lon="5.00984">
        <ele>242.48010253906</ele>
        <time>2009-12-12T13:05:08Z</time>
      </trkpt>
      <trkpt lat="45.07442" lon="5.0098">
        <ele>244.70483398438</ele>
        <time>2009-12-12T13:05:14Z</time>
      </trkpt>
      <trkpt lat="45.0747" lon="5.00975">
        <ele>247.79473876953</ele>
        <time>2009-12-12T13:05:22Z</time>
      </trkpt>
      <trkpt lat="45.07492" lon="5.00972">
        <ele>250.90982055664</ele>
        <time>2009-12-12T13:05:28Z</time>
      </trkpt>
      <trkpt lat="45.07533" lon="5.00972">
        <ele>255.33660888672</ele>
        <time>2009-12-12T13:05:39Z</time>
      </trkpt>
      <trkpt lat="45.07573" lon="5.00973">
        <ele>258.18447875977</ele>
        <time>2009-12-12T13:05:50Z</time>
      </trkpt>
      <trkpt lat="45.07602" lon="5.00978">
        <ele>259.44110107422</ele>
        <time>2009-12-12T13:05:58Z</time>
      </trkpt>
      <trkpt lat="45.07634" lon="5.00984">
        <ele>259.93243408203</ele>
        <time>2009-12-12T13:06:07Z</time>
      </trkpt>
      <trkpt lat="45.07666" lon="5.0099">
        <ele>260</ele>
        <time>2009-12-12T13:06:16Z</time>
      </trkpt>
      <trkpt lat="45.07703" lon="5.00999">
        <ele>260</ele>
        <time>2009-12-12T13:06:24Z</time>
      </trkpt>
      <trkpt lat="45.07742" lon="5.01009">
        <ele>260</ele>
        <time>2009-12-12T13:06:32Z</time>
      </trkpt>
      <trkpt lat="45.07801" lon="5.01022">
        <ele>261.13119506836</ele>
        <time>2009-12-12T13:06:44Z</time>
      </trkpt>
      <trkpt lat="45.0784" lon="5.01032">
        <ele>262.25250244141</ele>
        <time>2009-12-12T13:06:53Z</time>
      </trkpt>
      <trkpt lat="45.07859" lon="5.01036">
        <ele>262.93914794922</ele>
        <time>2009-12-12T13:06:58Z</time>
      </trkpt>
      <trkpt lat="45.07888" lon="5.01042">
        <ele>264.96569824219</ele>
        <time>2009-12-12T13:07:06Z</time>
      </trkpt>
      <trkpt lat="45.07919" lon="5.01046">
        <ele>266.09521484375</ele>
        <time>2009-12-12T13:07:15Z</time>
      </trkpt>
      <trkpt lat="45.07949" lon="5.01049">
        <ele>267.15264892578</ele>
        <time>2009-12-12T13:07:23Z</time>
      </trkpt>
      <trkpt lat="45.07965" lon="5.01042">
        <ele>267.7431640625</ele>
        <time>2009-12-12T13:07:28Z</time>
      </trkpt>
      <trkpt lat="45.07979" lon="5.01035">
        <ele>268.50256347656</ele>
        <time>2009-12-12T13:07:33Z</time>
      </trkpt>
      <trkpt lat="45.08004" lon="5.01023">
        <ele>269.86764526367</ele>
        <time>2009-12-12T13:07:42Z</time>
      </trkpt>
      <trkpt lat="45.0803" lon="5.01012">
        <ele>270.07775878906</ele>
        <time>2009-12-12T13:07:51Z</time>
      </trkpt>
      <trkpt lat="45.08044" lon="5.01005">
        <ele>270.599609375</ele>
        <time>2009-12-12T13:07:56Z</time>
      </trkpt>
      <trkpt lat="45.08059" lon="5.00998">
        <ele>270.94039916992</ele>
        <time>2009-12-12T13:08:01Z</time>
      </trkpt>
      <trkpt lat="45.08066" lon="5.00995">
        <ele>270.88671875</ele>
        <time>2009-12-12T13:08:03Z</time>
      </trkpt>
      <trkpt lat="45.08073" lon="5.00991">
        <ele>270.88824462891</ele>
        <time>2009-12-12T13:08:05Z</time>
      </trkpt>
      <trkpt lat="45.08098" lon="5.0098">
        <ele>270.6103515625</ele>
        <time>2009-12-12T13:08:10Z</time>
      </trkpt>
      <trkpt lat="45.08128" lon="5.00965">
        <ele>270.17572021484</ele>
        <time>2009-12-12T13:08:15Z</time>
      </trkpt>
      <trkpt lat="45.08141" lon="5.00955">
        <ele>269.73617553711</ele>
        <time>2009-12-12T13:08:18Z</time>
      </trkpt>
      <trkpt lat="45.08144" lon="5.00953">
        <ele>269.46469116211</ele>
        <time>2009-12-12T13:08:21Z</time>
      </trkpt>
      <trkpt lat="45.08147" lon="5.00951">
        <ele>269.28186035156</ele>
        <time>2009-12-12T13:10:20Z</time>
      </trkpt>
      <trkpt lat="45.08148" lon="5.0095">
        <ele>269.17233276367</ele>
        <time>2009-12-12T13:10:21Z</time>
      </trkpt>
      <trkpt lat="45.08157" lon="5.00945">
        <ele>268.35629272461</ele>
        <time>2009-12-12T13:10:25Z</time>
      </trkpt>
      <trkpt lat="45.08163" lon="5.0094">
        <ele>267.94442749023</ele>
        <time>2009-12-12T13:10:27Z</time>
      </trkpt>
      <trkpt lat="45.08197" lon="5.00907">
        <ele>265.98602294922</ele>
        <time>2009-12-12T13:10:37Z</time>
      </trkpt>
      <trkpt lat="45.08223" lon="5.00888">
        <ele>263.84454345703</ele>
        <time>2009-12-12T13:10:43Z</time>
      </trkpt>
      <trkpt lat="45.08266" lon="5.00873">
        <ele>261.56127929688</ele>
        <time>2009-12-12T13:10:51Z</time>
      </trkpt>
      <trkpt lat="45.08278" lon="5.00873">
        <ele>261.67956542969</ele>
        <time>2009-12-12T13:10:53Z</time>
      </trkpt>
      <trkpt lat="45.08328" lon="5.00871">
        <ele>260.63323974609</ele>
        <time>2009-12-12T13:11:02Z</time>
      </trkpt>
      <trkpt lat="45.08369" lon="5.0087">
        <ele>259.36663818359</ele>
        <time>2009-12-12T13:11:09Z</time>
      </trkpt>
      <trkpt lat="45.08423" lon="5.00863">
        <ele>258.12771606445</ele>
        <time>2009-12-12T13:11:18Z</time>
      </trkpt>
      <trkpt lat="45.08485" lon="5.00852">
        <ele>256.65701293945</ele>
        <time>2009-12-12T13:11:28Z</time>
      </trkpt>
      <trkpt lat="45.08511" lon="5.00847">
        <ele>256.10412597656</ele>
        <time>2009-12-12T13:11:32Z</time>
      </trkpt>
      <trkpt lat="45.08583" lon="5.00833">
        <ele>254.00297546387</ele>
        <time>2009-12-12T13:11:43Z</time>
      </trkpt>
      <trkpt lat="45.0859" lon="5.00832">
        <ele>253.68588256836</ele>
        <time>2009-12-12T13:11:44Z</time>
      </trkpt>
      <trkpt lat="45.08603" lon="5.0083">
        <ele>253.01983642578</ele>
        <time>2009-12-12T13:11:46Z</time>
      </trkpt>
      <trkpt lat="45.08671" lon="5.00817">
        <ele>251.41589355469</ele>
        <time>2009-12-12T13:11:56Z</time>
      </trkpt>
      <trkpt lat="45.0872" lon="5.00808">
        <ele>251.00819396973</ele>
        <time>2009-12-12T13:12:03Z</time>
      </trkpt>
      <trkpt lat="45.08766" lon="5.00801">
        <ele>250.41772460938</ele>
        <time>2009-12-12T13:12:09Z</time>
      </trkpt>
      <trkpt lat="45.08814" lon="5.00812">
        <ele>249.67608642578</ele>
        <time>2009-12-12T13:12:15Z</time>
      </trkpt>
      <trkpt lat="45.08869" lon="5.00835">
        <ele>247.21766662598</ele>
        <time>2009-12-12T13:12:22Z</time>
      </trkpt>
      <trkpt lat="45.08913" lon="5.00853">
        <ele>246.85203552246</ele>
        <time>2009-12-12T13:12:28Z</time>
      </trkpt>
      <trkpt lat="45.0892" lon="5.00856">
        <ele>246.58609008789</ele>
        <time>2009-12-12T13:12:29Z</time>
      </trkpt>
      <trkpt lat="45.08984" lon="5.00882">
        <ele>242.22459411621</ele>
        <time>2009-12-12T13:12:38Z</time>
      </trkpt>
      <trkpt lat="45.08998" lon="5.00886">
        <ele>240.63945007324</ele>
        <time>2009-12-12T13:12:40Z</time>
      </trkpt>
      <trkpt lat="45.09046" lon="5.00882">
        <ele>239.47459411621</ele>
        <time>2009-12-12T13:12:47Z</time>
      </trkpt>
      <trkpt lat="45.09108" lon="5.00876">
        <ele>238.49542236328</ele>
        <time>2009-12-12T13:12:56Z</time>
      </trkpt>
      <trkpt lat="45.09121" lon="5.00875">
        <ele>238.16369628906</ele>
        <time>2009-12-12T13:12:58Z</time>
      </trkpt>
      <trkpt lat="45.09187" lon="5.00866">
        <ele>236.84136962891</ele>
        <time>2009-12-12T13:13:08Z</time>
      </trkpt>
      <trkpt lat="45.09237" lon="5.00846">
        <ele>236.5315246582</ele>
        <time>2009-12-12T13:13:16Z</time>
      </trkpt>
      <trkpt lat="45.09286" lon="5.00825">
        <ele>236.33583068848</ele>
        <time>2009-12-12T13:13:24Z</time>
      </trkpt>
      <trkpt lat="45.09323" lon="5.00806">
        <ele>236.34269714356</ele>
        <time>2009-12-12T13:13:30Z</time>
      </trkpt>
      <trkpt lat="45.09381" lon="5.00777">
        <ele>235.32864379883</ele>
        <time>2009-12-12T13:13:39Z</time>
      </trkpt>
      <trkpt lat="45.09431" lon="5.00751">
        <ele>235.42399597168</ele>
        <time>2009-12-12T13:13:47Z</time>
      </trkpt>
      <trkpt lat="45.09444" lon="5.00745">
        <ele>235.02807617188</ele>
        <time>2009-12-12T13:13:49Z</time>
      </trkpt>
      <trkpt lat="45.09502" lon="5.00715">
        <ele>234.46997070312</ele>
        <time>2009-12-12T13:13:59Z</time>
      </trkpt>
      <trkpt lat="45.09555" lon="5.00689">
        <ele>234.00433349609</ele>
        <time>2009-12-12T13:14:08Z</time>
      </trkpt>
      <trkpt lat="45.09589" lon="5.00671">
        <ele>234</ele>
        <time>2009-12-12T13:14:14Z</time>
      </trkpt>
      <trkpt lat="45.09658" lon="5.00637">
        <ele>234.07461547852</ele>
        <time>2009-12-12T13:14:26Z</time>
      </trkpt>
      <trkpt lat="45.09681" lon="5.00625">
        <ele>234.23826599121</ele>
        <time>2009-12-12T13:14:30Z</time>
      </trkpt>
      <trkpt lat="45.09731" lon="5.00606">
        <ele>233</ele>
        <time>2009-12-12T13:14:39Z</time>
      </trkpt>
      <trkpt lat="45.09761" lon="5.00598">
        <ele>233</ele>
        <time>2009-12-12T13:14:44Z</time>
      </trkpt>
      <trkpt lat="45.09816" lon="5.00585">
        <ele>226.37329101562</ele>
        <time>2009-12-12T13:14:52Z</time>
      </trkpt>
      <trkpt lat="45.09858" lon="5.00586">
        <ele>221.10040283203</ele>
        <time>2009-12-12T13:14:58Z</time>
      </trkpt>
      <trkpt lat="45.09865" lon="5.00587">
        <ele>220.86694335938</ele>
        <time>2009-12-12T13:14:59Z</time>
      </trkpt>
      <trkpt lat="45.09915" lon="5.00594">
        <ele>218.1083984375</ele>
        <time>2009-12-12T13:15:07Z</time>
      </trkpt>
      <trkpt lat="45.09922" lon="5.00595">
        <ele>218</ele>
        <time>2009-12-12T13:15:08Z</time>
      </trkpt>
      <trkpt lat="45.09955" lon="5.00574">
        <ele>217.40480041504</ele>
        <time>2009-12-12T13:15:14Z</time>
      </trkpt>
      <trkpt lat="45.0998" lon="5.00577">
        <ele>217.22476196289</ele>
        <time>2009-12-12T13:15:18Z</time>
      </trkpt>
      <trkpt lat="45.09986" lon="5.0058">
        <ele>217.43797302246</ele>
        <time>2009-12-12T13:15:19Z</time>
      </trkpt>
      <trkpt lat="45.10004" lon="5.00589">
        <ele>218.02842712402</ele>
        <time>2009-12-12T13:15:22Z</time>
      </trkpt>
      <trkpt lat="45.10049" lon="5.00609">
        <ele>218.93832397461</ele>
        <time>2009-12-12T13:15:30Z</time>
      </trkpt>
      <trkpt lat="45.10098" lon="5.00625">
        <ele>219.22946166992</ele>
        <time>2009-12-12T13:15:39Z</time>
      </trkpt>
      <trkpt lat="45.1014" lon="5.00641">
        <ele>220</ele>
        <time>2009-12-12T13:15:47Z</time>
      </trkpt>
      <trkpt lat="45.10197" lon="5.00666">
        <ele>220</ele>
        <time>2009-12-12T13:15:58Z</time>
      </trkpt>
      <trkpt lat="45.10251" lon="5.00688">
        <ele>220.77932739258</ele>
        <time>2009-12-12T13:16:08Z</time>
      </trkpt>
      <trkpt lat="45.10302" lon="5.00712">
        <ele>222.20497131348</ele>
        <time>2009-12-12T13:16:18Z</time>
      </trkpt>
      <trkpt lat="45.10351" lon="5.00737">
        <ele>223.1813659668</ele>
        <time>2009-12-12T13:16:28Z</time>
      </trkpt>
      <trkpt lat="45.10382" lon="5.00753">
        <ele>223.47637939453</ele>
        <time>2009-12-12T13:16:35Z</time>
      </trkpt>
      <trkpt lat="45.10413" lon="5.00769">
        <ele>224.66156005859</ele>
        <time>2009-12-12T13:16:43Z</time>
      </trkpt>
      <trkpt lat="45.10421" lon="5.00776">
        <ele>224.94303894043</ele>
        <time>2009-12-12T13:16:46Z</time>
      </trkpt>
      <trkpt lat="45.10429" lon="5.00783">
        <ele>225.31747436523</ele>
        <time>2009-12-12T13:16:52Z</time>
      </trkpt>
      <trkpt lat="45.10429" lon="5.00783">
        <ele>225.31747436523</ele>
        <time>2009-12-12T13:16:54Z</time>
      </trkpt>
      <trkpt lat="45.1045" lon="5.00766">
        <ele>224.47329711914</ele>
        <time>2009-12-12T13:16:59Z</time>
      </trkpt>
      <trkpt lat="45.10474" lon="5.00748">
        <ele>224.0544128418</ele>
        <time>2009-12-12T13:17:06Z</time>
      </trkpt>
      <trkpt lat="45.10482" lon="5.00741">
        <ele>224.46476745606</ele>
        <time>2009-12-12T13:17:10Z</time>
      </trkpt>
      <trkpt lat="45.10489" lon="5.00736">
        <ele>224.87789916992</ele>
        <time>2009-12-12T13:17:14Z</time>
      </trkpt>
      <trkpt lat="45.10506" lon="5.00721">
        <ele>226.84013366699</ele>
        <time>2009-12-12T13:17:21Z</time>
      </trkpt>
      <trkpt lat="45.10518" lon="5.00711">
        <ele>229.18846130371</ele>
        <time>2009-12-12T13:17:27Z</time>
      </trkpt>
      <trkpt lat="45.10526" lon="5.00704">
        <ele>230.72311401367</ele>
        <time>2009-12-12T13:17:33Z</time>
      </trkpt>
      <trkpt lat="45.10536" lon="5.00739">
        <ele>228.91448974609</ele>
        <time>2009-12-12T13:17:39Z</time>
      </trkpt>
      <trkpt lat="45.10539" lon="5.0075">
        <ele>228.59495544434</ele>
        <time>2009-12-12T13:17:42Z</time>
      </trkpt>
      <trkpt lat="45.10546" lon="5.00762">
        <ele>228.45126342773</ele>
        <time>2009-12-12T13:17:49Z</time>
      </trkpt>
      <trkpt lat="45.10552" lon="5.00772">
        <ele>228.23364257812</ele>
        <time>2009-12-12T13:17:54Z</time>
      </trkpt>
      <trkpt lat="45.10556" lon="5.00778">
        <ele>228.01615905762</ele>
        <time>2009-12-12T13:17:57Z</time>
      </trkpt>
      <trkpt lat="45.10566" lon="5.00795">
        <ele>228.08259582519</ele>
        <time>2009-12-12T13:18:04Z</time>
      </trkpt>
      <trkpt lat="45.10583" lon="5.00822">
        <ele>228.19906616211</ele>
        <time>2009-12-12T13:18:13Z</time>
      </trkpt>
      <trkpt lat="45.10598" lon="5.00844">
        <ele>228.16816711426</ele>
        <time>2009-12-12T13:18:19Z</time>
      </trkpt>
      <trkpt lat="45.10621" lon="5.00878">
        <ele>228.73138427734</ele>
        <time>2009-12-12T13:18:27Z</time>
      </trkpt>
      <trkpt lat="45.10649" lon="5.0092">
        <ele>229.03147888184</ele>
        <time>2009-12-12T13:18:37Z</time>
      </trkpt>
      <trkpt lat="45.10673" lon="5.0096">
        <ele>230.12496948242</ele>
        <time>2009-12-12T13:18:45Z</time>
      </trkpt>
      <trkpt lat="45.10704" lon="5.01017">
        <ele>231.98287963867</ele>
        <time>2009-12-12T13:18:56Z</time>
      </trkpt>
      <trkpt lat="45.10729" lon="5.01062">
        <ele>232.23205566406</ele>
        <time>2009-12-12T13:19:05Z</time>
      </trkpt>
      <trkpt lat="45.10751" lon="5.01091">
        <ele>232.04174804688</ele>
        <time>2009-12-12T13:19:12Z</time>
      </trkpt>
      <trkpt lat="45.10773" lon="5.01105">
        <ele>233.68969726562</ele>
        <time>2009-12-12T13:19:18Z</time>
      </trkpt>
      <trkpt lat="45.1081" lon="5.01103">
        <ele>235.79006958008</ele>
        <time>2009-12-12T13:19:27Z</time>
      </trkpt>
      <trkpt lat="45.10831" lon="5.01119">
        <ele>237.89689636231</ele>
        <time>2009-12-12T13:19:33Z</time>
      </trkpt>
      <trkpt lat="45.10866" lon="5.01159">
        <ele>239.49284362793</ele>
        <time>2009-12-12T13:19:43Z</time>
      </trkpt>
      <trkpt lat="45.10903" lon="5.01206">
        <ele>238.07238769531</ele>
        <time>2009-12-12T13:19:54Z</time>
      </trkpt>
      <trkpt lat="45.10942" lon="5.0126">
        <ele>237.96704101562</ele>
        <time>2009-12-12T13:20:05Z</time>
      </trkpt>
      <trkpt lat="45.10966" lon="5.01296">
        <ele>238.57339477539</ele>
        <time>2009-12-12T13:20:13Z</time>
      </trkpt>
      <trkpt lat="45.10989" lon="5.01331">
        <ele>238.91474914551</ele>
        <time>2009-12-12T13:20:21Z</time>
      </trkpt>
      <trkpt lat="45.10995" lon="5.01358">
        <ele>238.54580688477</ele>
        <time>2009-12-12T13:20:25Z</time>
      </trkpt>
      <trkpt lat="45.11003" lon="5.01411">
        <ele>236.6169128418</ele>
        <time>2009-12-12T13:20:32Z</time>
      </trkpt>
      <trkpt lat="45.1102" lon="5.01467">
        <ele>237.2497253418</ele>
        <time>2009-12-12T13:20:41Z</time>
      </trkpt>
      <trkpt lat="45.1104" lon="5.01517">
        <ele>237.71324157715</ele>
        <time>2009-12-12T13:20:49Z</time>
      </trkpt>
      <trkpt lat="45.11072" lon="5.01594">
        <ele>238.52931213379</ele>
        <time>2009-12-12T13:21:01Z</time>
      </trkpt>
      <trkpt lat="45.11102" lon="5.01639">
        <ele>239.66262817383</ele>
        <time>2009-12-12T13:21:10Z</time>
      </trkpt>
      <trkpt lat="45.11139" lon="5.01685">
        <ele>240</ele>
        <time>2009-12-12T13:21:19Z</time>
      </trkpt>
      <trkpt lat="45.11169" lon="5.01713">
        <ele>240.59736633301</ele>
        <time>2009-12-12T13:21:26Z</time>
      </trkpt>
      <trkpt lat="45.11189" lon="5.01728">
        <ele>243.76473999023</ele>
        <time>2009-12-12T13:21:30Z</time>
      </trkpt>
      <trkpt lat="45.11203" lon="5.0175">
        <ele>245.13195800781</ele>
        <time>2009-12-12T13:21:34Z</time>
      </trkpt>
      <trkpt lat="45.1123" lon="5.01813">
        <ele>244.69120788574</ele>
        <time>2009-12-12T13:21:44Z</time>
      </trkpt>
      <trkpt lat="45.11237" lon="5.01833">
        <ele>244.58500671387</ele>
        <time>2009-12-12T13:21:47Z</time>
      </trkpt>
      <trkpt lat="45.1124" lon="5.01885">
        <ele>242.6862487793</ele>
        <time>2009-12-12T13:21:54Z</time>
      </trkpt>
      <trkpt lat="45.11242" lon="5.01939">
        <ele>240.85650634766</ele>
        <time>2009-12-12T13:22:01Z</time>
      </trkpt>
      <trkpt lat="45.11252" lon="5.01989">
        <ele>240.22389221191</ele>
        <time>2009-12-12T13:22:08Z</time>
      </trkpt>
      <trkpt lat="45.11266" lon="5.02036">
        <ele>240.4061126709</ele>
        <time>2009-12-12T13:22:15Z</time>
      </trkpt>
      <trkpt lat="45.11288" lon="5.02066">
        <ele>241.28767395019</ele>
        <time>2009-12-12T13:22:21Z</time>
      </trkpt>
      <trkpt lat="45.11334" lon="5.0212">
        <ele>247.43608093262</ele>
        <time>2009-12-12T13:22:32Z</time>
      </trkpt>
      <trkpt lat="45.11358" lon="5.02149">
        <ele>251.13897705078</ele>
        <time>2009-12-12T13:22:38Z</time>
      </trkpt>
      <trkpt lat="45.11374" lon="5.02177">
        <ele>251.52391052246</ele>
        <time>2009-12-12T13:22:43Z</time>
      </trkpt>
      <trkpt lat="45.11377" lon="5.0219">
        <ele>251.21148681641</ele>
        <time>2009-12-12T13:22:45Z</time>
      </trkpt>
      <trkpt lat="45.11382" lon="5.02223">
        <ele>248.52578735352</ele>
        <time>2009-12-12T13:22:49Z</time>
      </trkpt>
      <trkpt lat="45.11388" lon="5.02254">
        <ele>252.34889221191</ele>
        <time>2009-12-12T13:22:53Z</time>
      </trkpt>
      <trkpt lat="45.11412" lon="5.02307">
        <ele>257.84515380859</ele>
        <time>2009-12-12T13:23:02Z</time>
      </trkpt>
      <trkpt lat="45.11418" lon="5.02315">
        <ele>258.07946777344</ele>
        <time>2009-12-12T13:23:04Z</time>
      </trkpt>
      <trkpt lat="45.11451" lon="5.02368">
        <ele>260</ele>
        <time>2009-12-12T13:23:16Z</time>
      </trkpt>
      <trkpt lat="45.11478" lon="5.02399">
        <ele>260.24615478516</ele>
        <time>2009-12-12T13:23:25Z</time>
      </trkpt>
      <trkpt lat="45.11503" lon="5.02424">
        <ele>260.63024902344</ele>
        <time>2009-12-12T13:23:33Z</time>
      </trkpt>
      <trkpt lat="45.11509" lon="5.02433">
        <ele>261.55252075195</ele>
        <time>2009-12-12T13:23:35Z</time>
      </trkpt>
      <trkpt lat="45.11517" lon="5.02447">
        <ele>262.12149047852</ele>
        <time>2009-12-12T13:23:38Z</time>
      </trkpt>
      <trkpt lat="45.11532" lon="5.02475">
        <ele>261.28045654297</ele>
        <time>2009-12-12T13:23:44Z</time>
      </trkpt>
      <trkpt lat="45.11544" lon="5.02519">
        <ele>262.97113037109</ele>
        <time>2009-12-12T13:23:51Z</time>
      </trkpt>
      <trkpt lat="45.11547" lon="5.02533">
        <ele>262.54052734375</ele>
        <time>2009-12-12T13:23:53Z</time>
      </trkpt>
      <trkpt lat="45.11555" lon="5.02578">
        <ele>260.33770751953</ele>
        <time>2009-12-12T13:24:00Z</time>
      </trkpt>
      <trkpt lat="45.11565" lon="5.02638">
        <ele>260.04632568359</ele>
        <time>2009-12-12T13:24:08Z</time>
      </trkpt>
      <trkpt lat="45.11582" lon="5.02711">
        <ele>260</ele>
        <time>2009-12-12T13:24:17Z</time>
      </trkpt>
      <trkpt lat="45.11603" lon="5.02759">
        <ele>260</ele>
        <time>2009-12-12T13:24:24Z</time>
      </trkpt>
      <trkpt lat="45.1163" lon="5.02822">
        <ele>264.75100708008</ele>
        <time>2009-12-12T13:24:34Z</time>
      </trkpt>
      <trkpt lat="45.1166" lon="5.02892">
        <ele>268.87298583984</ele>
        <time>2009-12-12T13:24:44Z</time>
      </trkpt>
      <trkpt lat="45.1167" lon="5.02926">
        <ele>268.62347412109</ele>
        <time>2009-12-12T13:24:49Z</time>
      </trkpt>
      <trkpt lat="45.11673" lon="5.02942">
        <ele>267.85101318359</ele>
        <time>2009-12-12T13:24:54Z</time>
      </trkpt>
      <trkpt lat="45.11664" lon="5.02985">
        <ele>263.74954223633</ele>
        <time>2009-12-12T13:24:57Z</time>
      </trkpt>
      <trkpt lat="45.11657" lon="5.03039">
        <ele>261.00875854492</ele>
        <time>2009-12-12T13:25:03Z</time>
      </trkpt>
      <trkpt lat="45.1165" lon="5.03105">
        <ele>260.69598388672</ele>
        <time>2009-12-12T13:25:10Z</time>
      </trkpt>
      <trkpt lat="45.11649" lon="5.0317">
        <ele>261.08563232422</ele>
        <time>2009-12-12T13:25:17Z</time>
      </trkpt>
      <trkpt lat="45.11653" lon="5.03256">
        <ele>262.94473266602</ele>
        <time>2009-12-12T13:25:27Z</time>
      </trkpt>
      <trkpt lat="45.11657" lon="5.03322">
        <ele>262.25537109375</ele>
        <time>2009-12-12T13:25:35Z</time>
      </trkpt>
      <trkpt lat="45.11669" lon="5.03399">
        <ele>260.79861450195</ele>
        <time>2009-12-12T13:25:44Z</time>
      </trkpt>
      <trkpt lat="45.11665" lon="5.03471">
        <ele>261.87734985352</ele>
        <time>2009-12-12T13:25:53Z</time>
      </trkpt>
      <trkpt lat="45.11659" lon="5.03543">
        <ele>263.46533203125</ele>
        <time>2009-12-12T13:26:02Z</time>
      </trkpt>
      <trkpt lat="45.11656" lon="5.03569">
        <ele>263.06326293945</ele>
        <time>2009-12-12T13:26:05Z</time>
      </trkpt>
      <trkpt lat="45.1166" lon="5.03623">
        <ele>262.85629272461</ele>
        <time>2009-12-12T13:26:10Z</time>
      </trkpt>
      <trkpt lat="45.11664" lon="5.03679">
        <ele>262.73358154297</ele>
        <time>2009-12-12T13:26:15Z</time>
      </trkpt>
      <trkpt lat="45.11673" lon="5.03749">
        <ele>264.42663574219</ele>
        <time>2009-12-12T13:26:22Z</time>
      </trkpt>
      <trkpt lat="45.11679" lon="5.03807">
        <ele>265.99090576172</ele>
        <time>2009-12-12T13:26:28Z</time>
      </trkpt>
      <trkpt lat="45.11681" lon="5.03817">
        <ele>266.41149902344</ele>
        <time>2009-12-12T13:26:29Z</time>
      </trkpt>
      <trkpt lat="45.11676" lon="5.03863">
        <ele>266.77963256836</ele>
        <time>2009-12-12T13:26:34Z</time>
      </trkpt>
      <trkpt lat="45.11673" lon="5.0389">
        <ele>267.49005126953</ele>
        <time>2009-12-12T13:26:37Z</time>
      </trkpt>
      <trkpt lat="45.11669" lon="5.03916">
        <ele>268.08120727539</ele>
        <time>2009-12-12T13:26:40Z</time>
      </trkpt>
      <trkpt lat="45.11668" lon="5.03925">
        <ele>268.06338500977</ele>
        <time>2009-12-12T13:26:41Z</time>
      </trkpt>
      <trkpt lat="45.1166" lon="5.03987">
        <ele>268.23919677734</ele>
        <time>2009-12-12T13:26:48Z</time>
      </trkpt>
      <trkpt lat="45.11652" lon="5.04063">
        <ele>268.64495849609</ele>
        <time>2009-12-12T13:26:57Z</time>
      </trkpt>
      <trkpt lat="45.11646" lon="5.04131">
        <ele>269.48687744141</ele>
        <time>2009-12-12T13:27:06Z</time>
      </trkpt>
      <trkpt lat="45.11643" lon="5.04165">
        <ele>269.42645263672</ele>
        <time>2009-12-12T13:27:11Z</time>
      </trkpt>
      <trkpt lat="45.11643" lon="5.04165">
        <ele>269.42645263672</ele>
        <time>2009-12-12T13:27:14Z</time>
      </trkpt>
      <trkpt lat="45.11649" lon="5.04208">
        <ele>271.60083007812</ele>
        <time>2009-12-12T13:27:17Z</time>
      </trkpt>
      <trkpt lat="45.11684" lon="5.04256">
        <ele>274.8244934082</ele>
        <time>2009-12-12T13:27:26Z</time>
      </trkpt>
      <trkpt lat="45.11708" lon="5.04289">
        <ele>276.20901489258</ele>
        <time>2009-12-12T13:27:32Z</time>
      </trkpt>
      <trkpt lat="45.11734" lon="5.04334">
        <ele>277.41809082031</ele>
        <time>2009-12-12T13:27:39Z</time>
      </trkpt>
      <trkpt lat="45.11756" lon="5.04385">
        <ele>278.18124389648</ele>
        <time>2009-12-12T13:27:47Z</time>
      </trkpt>
      <trkpt lat="45.11777" lon="5.04424">
        <ele>279</ele>
        <time>2009-12-12T13:27:54Z</time>
      </trkpt>
      <trkpt lat="45.11799" lon="5.04464">
        <ele>279</ele>
        <time>2009-12-12T13:28:02Z</time>
      </trkpt>
      <trkpt lat="45.11823" lon="5.04508">
        <ele>279.10330200195</ele>
        <time>2009-12-12T13:28:11Z</time>
      </trkpt>
      <trkpt lat="45.11851" lon="5.04558">
        <ele>280</ele>
        <time>2009-12-12T13:28:21Z</time>
      </trkpt>
      <trkpt lat="45.11887" lon="5.04624">
        <ele>280</ele>
        <time>2009-12-12T13:28:33Z</time>
      </trkpt>
      <trkpt lat="45.11912" lon="5.04673">
        <ele>280</ele>
        <time>2009-12-12T13:28:42Z</time>
      </trkpt>
      <trkpt lat="45.1192" lon="5.04715">
        <ele>280.75765991211</ele>
        <time>2009-12-12T13:28:49Z</time>
      </trkpt>
      <trkpt lat="45.11923" lon="5.04751">
        <ele>281</ele>
        <time>2009-12-12T13:28:56Z</time>
      </trkpt>
      <trkpt lat="45.11925" lon="5.04769">
        <ele>281</ele>
        <time>2009-12-12T13:29:02Z</time>
      </trkpt>
      <trkpt lat="45.11926" lon="5.04776">
        <ele>281</ele>
        <time>2009-12-12T13:29:06Z</time>
      </trkpt>
      <trkpt lat="45.11926" lon="5.04778">
        <ele>281</ele>
        <time>2009-12-12T13:29:10Z</time>
      </trkpt>
      <trkpt lat="45.1193" lon="5.04792">
        <ele>281</ele>
        <time>2009-12-12T13:29:15Z</time>
      </trkpt>
      <trkpt lat="45.11934" lon="5.04805">
        <ele>281</ele>
        <time>2009-12-12T13:29:19Z</time>
      </trkpt>
      <trkpt lat="45.11943" lon="5.04831">
        <ele>281</ele>
        <time>2009-12-12T13:29:26Z</time>
      </trkpt>
      <trkpt lat="45.11951" lon="5.04857">
        <ele>281.85943603516</ele>
        <time>2009-12-12T13:29:33Z</time>
      </trkpt>
      <trkpt lat="45.11959" lon="5.04881">
        <ele>282</ele>
        <time>2009-12-12T13:29:39Z</time>
      </trkpt>
      <trkpt lat="45.11972" lon="5.04903">
        <ele>282</ele>
        <time>2009-12-12T13:29:46Z</time>
      </trkpt>
      <trkpt lat="45.1199" lon="5.04928">
        <ele>282.65283203125</ele>
        <time>2009-12-12T13:29:53Z</time>
      </trkpt>
      <trkpt lat="45.12011" lon="5.04957">
        <ele>283.57550048828</ele>
        <time>2009-12-12T13:30:00Z</time>
      </trkpt>
      <trkpt lat="45.12042" lon="5.05001">
        <ele>285.525390625</ele>
        <time>2009-12-12T13:30:11Z</time>
      </trkpt>
      <trkpt lat="45.12048" lon="5.05009">
        <ele>285.95184326172</ele>
        <time>2009-12-12T13:30:13Z</time>
      </trkpt>
      <trkpt lat="45.1207" lon="5.05041">
        <ele>287.74258422852</ele>
        <time>2009-12-12T13:30:20Z</time>
      </trkpt>
      <trkpt lat="45.12101" lon="5.05073">
        <ele>290.02108764648</ele>
        <time>2009-12-12T13:30:29Z</time>
      </trkpt>
      <trkpt lat="45.12131" lon="5.05095">
        <ele>291</ele>
        <time>2009-12-12T13:30:37Z</time>
      </trkpt>
      <trkpt lat="45.12171" lon="5.05125">
        <ele>291.49307250977</ele>
        <time>2009-12-12T13:30:48Z</time>
      </trkpt>
      <trkpt lat="45.12203" lon="5.05148">
        <ele>292.22366333008</ele>
        <time>2009-12-12T13:30:56Z</time>
      </trkpt>
      <trkpt lat="45.12241" lon="5.05175">
        <ele>292.30752563477</ele>
        <time>2009-12-12T13:31:05Z</time>
      </trkpt>
      <trkpt lat="45.12274" lon="5.05199">
        <ele>292.32147216797</ele>
        <time>2009-12-12T13:31:15Z</time>
      </trkpt>
      <trkpt lat="45.1232" lon="5.05236">
        <ele>292.23391723633</ele>
        <time>2009-12-12T13:31:25Z</time>
      </trkpt>
      <trkpt lat="45.12328" lon="5.05242">
        <ele>292.13989257812</ele>
        <time>2009-12-12T13:31:27Z</time>
      </trkpt>
      <trkpt lat="45.12344" lon="5.05255">
        <ele>291.79275512695</ele>
        <time>2009-12-12T13:31:31Z</time>
      </trkpt>
      <trkpt lat="45.12355" lon="5.05264">
        <ele>291.70178222656</ele>
        <time>2009-12-12T13:31:39Z</time>
      </trkpt>
      <trkpt lat="45.12402" lon="5.05313">
        <ele>291.33068847656</ele>
        <time>2009-12-12T13:31:47Z</time>
      </trkpt>
      <trkpt lat="45.12435" lon="5.05348">
        <ele>290.89059448242</ele>
        <time>2009-12-12T13:31:56Z</time>
      </trkpt>
      <trkpt lat="45.12445" lon="5.05362">
        <ele>291.02447509766</ele>
        <time>2009-12-12T13:31:59Z</time>
      </trkpt>
      <trkpt lat="45.12465" lon="5.0539">
        <ele>291.29064941406</ele>
        <time>2009-12-12T13:32:05Z</time>
      </trkpt>
      <trkpt lat="45.12491" lon="5.05432">
        <ele>291.86392211914</ele>
        <time>2009-12-12T13:32:13Z</time>
      </trkpt>
      <trkpt lat="45.12503" lon="5.05452">
        <ele>292.25082397461</ele>
        <time>2009-12-12T13:32:17Z</time>
      </trkpt>
      <trkpt lat="45.12531" lon="5.05498">
        <ele>292.93243408203</ele>
        <time>2009-12-12T13:32:26Z</time>
      </trkpt>
      <trkpt lat="45.12563" lon="5.0555">
        <ele>294.80010986328</ele>
        <time>2009-12-12T13:32:36Z</time>
      </trkpt>
      <trkpt lat="45.12592" lon="5.05598">
        <ele>295.84930419922</ele>
        <time>2009-12-12T13:32:45Z</time>
      </trkpt>
      <trkpt lat="45.12601" lon="5.05614">
        <ele>296.03005981445</ele>
        <time>2009-12-12T13:32:48Z</time>
      </trkpt>
      <trkpt lat="45.12624" lon="5.0565">
        <ele>296.38955688477</ele>
        <time>2009-12-12T13:32:55Z</time>
      </trkpt>
      <trkpt lat="45.12645" lon="5.05684">
        <ele>297</ele>
        <time>2009-12-12T13:33:02Z</time>
      </trkpt>
      <trkpt lat="45.12651" lon="5.05701">
        <ele>297.13909912109</ele>
        <time>2009-12-12T13:33:07Z</time>
      </trkpt>
      <trkpt lat="45.12651" lon="5.05703">
        <ele>297.16638183594</ele>
        <time>2009-12-12T13:33:08Z</time>
      </trkpt>
      <trkpt lat="45.12664" lon="5.05711">
        <ele>297.06317138672</ele>
        <time>2009-12-12T13:33:14Z</time>
      </trkpt>
      <trkpt lat="45.12674" lon="5.05698">
        <ele>297.27593994141</ele>
        <time>2009-12-12T13:33:20Z</time>
      </trkpt>
      <trkpt lat="45.12695" lon="5.05693">
        <ele>297.98110961914</ele>
        <time>2009-12-12T13:33:25Z</time>
      </trkpt>
      <trkpt lat="45.12705" lon="5.05693">
        <ele>298.35662841797</ele>
        <time>2009-12-12T13:33:27Z</time>
      </trkpt>
      <trkpt lat="45.12732" lon="5.05701">
        <ele>299.349609375</ele>
        <time>2009-12-12T13:33:32Z</time>
      </trkpt>
      <trkpt lat="45.12737" lon="5.05701">
        <ele>299.51440429688</ele>
        <time>2009-12-12T13:33:33Z</time>
      </trkpt>
      <trkpt lat="45.12738" lon="5.05688">
        <ele>299.58306884766</ele>
        <time>2009-12-12T13:33:36Z</time>
      </trkpt>
      <trkpt lat="45.12745" lon="5.05646">
        <ele>299.83026123047</ele>
        <time>2009-12-12T13:33:41Z</time>
      </trkpt>
      <trkpt lat="45.12752" lon="5.05642">
        <ele>300</ele>
        <time>2009-12-12T13:33:42Z</time>
      </trkpt>
      <trkpt lat="45.12776" lon="5.05623">
        <ele>300</ele>
        <time>2009-12-12T13:33:47Z</time>
      </trkpt>
      <trkpt lat="45.12786" lon="5.05601">
        <ele>300</ele>
        <time>2009-12-12T13:33:51Z</time>
      </trkpt>
      <trkpt lat="45.12788" lon="5.05596">
        <ele>300</ele>
        <time>2009-12-12T13:33:52Z</time>
      </trkpt>
      <trkpt lat="45.12803" lon="5.05569">
        <ele>300</ele>
        <time>2009-12-12T13:33:58Z</time>
      </trkpt>
      <trkpt lat="45.1281" lon="5.05556">
        <ele>300</ele>
        <time>2009-12-12T13:34:03Z</time>
      </trkpt>
      <trkpt lat="45.12816" lon="5.05571">
        <ele>300</ele>
        <time>2009-12-12T13:34:08Z</time>
      </trkpt>
      <trkpt lat="45.12836" lon="5.05621">
        <ele>300.13906860352</ele>
        <time>2009-12-12T13:34:18Z</time>
      </trkpt>
      <trkpt lat="45.12851" lon="5.0566">
        <ele>300.62054443359</ele>
        <time>2009-12-12T13:34:25Z</time>
      </trkpt>
      <trkpt lat="45.12875" lon="5.05724">
        <ele>300.51318359375</ele>
        <time>2009-12-12T13:34:35Z</time>
      </trkpt>
      <trkpt lat="45.12895" lon="5.05774">
        <ele>300.79037475586</ele>
        <time>2009-12-12T13:34:43Z</time>
      </trkpt>
      <trkpt lat="45.12907" lon="5.05804">
        <ele>301.91784667969</ele>
        <time>2009-12-12T13:34:48Z</time>
      </trkpt>
      <trkpt lat="45.12924" lon="5.05849">
        <ele>301.85687255859</ele>
        <time>2009-12-12T13:34:56Z</time>
      </trkpt>
      <trkpt lat="45.12943" lon="5.05898">
        <ele>302.87292480469</ele>
        <time>2009-12-12T13:35:05Z</time>
      </trkpt>
      <trkpt lat="45.12963" lon="5.05948">
        <ele>305.63208007812</ele>
        <time>2009-12-12T13:35:14Z</time>
      </trkpt>
      <trkpt lat="45.1298" lon="5.05992">
        <ele>308.38000488281</ele>
        <time>2009-12-12T13:35:22Z</time>
      </trkpt>
      <trkpt lat="45.13002" lon="5.06049">
        <ele>312.1321105957</ele>
        <time>2009-12-12T13:35:32Z</time>
      </trkpt>
      <trkpt lat="45.13021" lon="5.06105">
        <ele>313.49084472656</ele>
        <time>2009-12-12T13:35:42Z</time>
      </trkpt>
      <trkpt lat="45.13047" lon="5.06176">
        <ele>316.03778076172</ele>
        <time>2009-12-12T13:35:53Z</time>
      </trkpt>
      <trkpt lat="45.13066" lon="5.0623">
        <ele>317.05548095703</ele>
        <time>2009-12-12T13:36:02Z</time>
      </trkpt>
      <trkpt lat="45.13087" lon="5.06285">
        <ele>320.03741455078</ele>
        <time>2009-12-12T13:36:12Z</time>
      </trkpt>
      <trkpt lat="45.13108" lon="5.06343">
        <ele>321.87652587891</ele>
        <time>2009-12-12T13:36:22Z</time>
      </trkpt>
      <trkpt lat="45.13129" lon="5.06402">
        <ele>322.31860351562</ele>
        <time>2009-12-12T13:36:32Z</time>
      </trkpt>
      <trkpt lat="45.13141" lon="5.06432">
        <ele>322.68817138672</ele>
        <time>2009-12-12T13:36:38Z</time>
      </trkpt>
      <trkpt lat="45.13145" lon="5.06443">
        <ele>322.88174438477</ele>
        <time>2009-12-12T13:36:41Z</time>
      </trkpt>
      <trkpt lat="45.13148" lon="5.06439">
        <ele>323.51718139648</ele>
        <time>2009-12-12T13:36:45Z</time>
      </trkpt>
      <trkpt lat="45.13161" lon="5.0642">
        <ele>325.41876220703</ele>
        <time>2009-12-12T13:36:50Z</time>
      </trkpt>
      <trkpt lat="45.13177" lon="5.06395">
        <ele>326.779296875</ele>
        <time>2009-12-12T13:36:56Z</time>
      </trkpt>
      <trkpt lat="45.13199" lon="5.06363">
        <ele>328.3173828125</ele>
        <time>2009-12-12T13:37:04Z</time>
      </trkpt>
      <trkpt lat="45.13211" lon="5.06344">
        <ele>329.22375488281</ele>
        <time>2009-12-12T13:37:10Z</time>
      </trkpt>
      <trkpt lat="45.13225" lon="5.06318">
        <ele>329.06719970703</ele>
        <time>2009-12-12T13:37:17Z</time>
      </trkpt>
      <trkpt lat="45.13234" lon="5.06287">
        <ele>328.54681396484</ele>
        <time>2009-12-12T13:37:24Z</time>
      </trkpt>
      <trkpt lat="45.13243" lon="5.06247">
        <ele>327.74087524414</ele>
        <time>2009-12-12T13:37:32Z</time>
      </trkpt>
      <trkpt lat="45.13255" lon="5.06202">
        <ele>327.46081542969</ele>
        <time>2009-12-12T13:37:40Z</time>
      </trkpt>
      <trkpt lat="45.13269" lon="5.06147">
        <ele>326.67181396484</ele>
        <time>2009-12-12T13:37:49Z</time>
      </trkpt>
      <trkpt lat="45.13271" lon="5.06136">
        <ele>326.67037963867</ele>
        <time>2009-12-12T13:37:51Z</time>
      </trkpt>
      <trkpt lat="45.13276" lon="5.06118">
        <ele>326.1845703125</ele>
        <time>2009-12-12T13:37:54Z</time>
      </trkpt>
      <trkpt lat="45.13289" lon="5.06096">
        <ele>326.27868652344</ele>
        <time>2009-12-12T13:37:58Z</time>
      </trkpt>
      <trkpt lat="45.13314" lon="5.06092">
        <ele>328.24124145508</ele>
        <time>2009-12-12T13:38:03Z</time>
      </trkpt>
      <trkpt lat="45.13318" lon="5.06093">
        <ele>328.67041015625</ele>
        <time>2009-12-12T13:38:04Z</time>
      </trkpt>
      <trkpt lat="45.1333" lon="5.06094">
        <ele>330.04370117188</ele>
        <time>2009-12-12T13:38:07Z</time>
      </trkpt>
      <trkpt lat="45.13359" lon="5.06102">
        <ele>333.75415039062</ele>
        <time>2009-12-12T13:38:14Z</time>
      </trkpt>
      <trkpt lat="45.1339" lon="5.06114">
        <ele>337.05029296875</ele>
        <time>2009-12-12T13:38:22Z</time>
      </trkpt>
      <trkpt lat="45.1342" lon="5.06127">
        <ele>339.11004638672</ele>
        <time>2009-12-12T13:38:30Z</time>
      </trkpt>
      <trkpt lat="45.13444" lon="5.06137">
        <ele>339.98895263672</ele>
        <time>2009-12-12T13:38:37Z</time>
      </trkpt>
      <trkpt lat="45.13472" lon="5.06148">
        <ele>340</ele>
        <time>2009-12-12T13:38:45Z</time>
      </trkpt>
      <trkpt lat="45.13499" lon="5.0616">
        <ele>340</ele>
        <time>2009-12-12T13:38:53Z</time>
      </trkpt>
      <trkpt lat="45.13514" lon="5.06144">
        <ele>340</ele>
        <time>2009-12-12T13:38:58Z</time>
      </trkpt>
      <trkpt lat="45.1354" lon="5.06111">
        <ele>340</ele>
        <time>2009-12-12T13:39:07Z</time>
      </trkpt>
      <trkpt lat="45.13546" lon="5.06103">
        <ele>340</ele>
        <time>2009-12-12T13:39:09Z</time>
      </trkpt>
      <trkpt lat="45.13572" lon="5.06063">
        <ele>340</ele>
        <time>2009-12-12T13:39:17Z</time>
      </trkpt>
      <trkpt lat="45.13597" lon="5.06012">
        <ele>340</ele>
        <time>2009-12-12T13:39:26Z</time>
      </trkpt>
      <trkpt lat="45.13602" lon="5.06001">
        <ele>340</ele>
        <time>2009-12-12T13:39:28Z</time>
      </trkpt>
      <trkpt lat="45.13628" lon="5.0595">
        <ele>340</ele>
        <time>2009-12-12T13:39:38Z</time>
      </trkpt>
      <trkpt lat="45.13649" lon="5.05907">
        <ele>343.47595214844</ele>
        <time>2009-12-12T13:39:47Z</time>
      </trkpt>
      <trkpt lat="45.13653" lon="5.05897">
        <ele>344.25527954102</ele>
        <time>2009-12-12T13:39:49Z</time>
      </trkpt>
      <trkpt lat="45.13659" lon="5.05854">
        <ele>345.87094116211</ele>
        <time>2009-12-12T13:39:57Z</time>
      </trkpt>
      <trkpt lat="45.13656" lon="5.0581">
        <ele>344.32174682617</ele>
        <time>2009-12-12T13:40:06Z</time>
      </trkpt>
      <trkpt lat="45.13652" lon="5.05766">
        <ele>342.76956176758</ele>
        <time>2009-12-12T13:40:16Z</time>
      </trkpt>
      <trkpt lat="45.13657" lon="5.05739">
        <ele>342.27386474609</ele>
        <time>2009-12-12T13:40:22Z</time>
      </trkpt>
      <trkpt lat="45.13675" lon="5.05711">
        <ele>341.57824707031</ele>
        <time>2009-12-12T13:40:30Z</time>
      </trkpt>
      <trkpt lat="45.13677" lon="5.05707">
        <ele>341.44091796875</ele>
        <time>2009-12-12T13:40:31Z</time>
      </trkpt>
      <trkpt lat="45.13689" lon="5.05691">
        <ele>340.87271118164</ele>
        <time>2009-12-12T13:40:35Z</time>
      </trkpt>
      <trkpt lat="45.137" lon="5.05676">
        <ele>340.39999389648</ele>
        <time>2009-12-12T13:40:38Z</time>
      </trkpt>
      <trkpt lat="45.13723" lon="5.05658">
        <ele>339.40393066406</ele>
        <time>2009-12-12T13:40:42Z</time>
      </trkpt>
      <trkpt lat="45.13761" lon="5.05644">
        <ele>338.46688842773</ele>
        <time>2009-12-12T13:40:48Z</time>
      </trkpt>
      <trkpt lat="45.13787" lon="5.05642">
        <ele>338.95626831055</ele>
        <time>2009-12-12T13:40:53Z</time>
      </trkpt>
      <trkpt lat="45.13825" lon="5.05638">
        <ele>340.51354980469</ele>
        <time>2009-12-12T13:41:00Z</time>
      </trkpt>
      <trkpt lat="45.1383" lon="5.05637">
        <ele>340.6028137207</ele>
        <time>2009-12-12T13:41:01Z</time>
      </trkpt>
      <trkpt lat="45.13872" lon="5.05633">
        <ele>342.83795166016</ele>
        <time>2009-12-12T13:41:09Z</time>
      </trkpt>
      <trkpt lat="45.13893" lon="5.05635">
        <ele>344.40899658203</ele>
        <time>2009-12-12T13:41:13Z</time>
      </trkpt>
      <trkpt lat="45.13926" lon="5.05638">
        <ele>345.22326660156</ele>
        <time>2009-12-12T13:41:19Z</time>
      </trkpt>
      <trkpt lat="45.1396" lon="5.05643">
        <ele>345.79180908203</ele>
        <time>2009-12-12T13:41:26Z</time>
      </trkpt>
      <trkpt lat="45.13991" lon="5.05653">
        <ele>345.50357055664</ele>
        <time>2009-12-12T13:41:32Z</time>
      </trkpt>
      <trkpt lat="45.14033" lon="5.05657">
        <ele>345.29064941406</ele>
        <time>2009-12-12T13:41:40Z</time>
      </trkpt>
      <trkpt lat="45.14039" lon="5.05656">
        <ele>345.259765625</ele>
        <time>2009-12-12T13:41:41Z</time>
      </trkpt>
      <trkpt lat="45.14056" lon="5.05655">
        <ele>345.18362426758</ele>
        <time>2009-12-12T13:41:44Z</time>
      </trkpt>
      <trkpt lat="45.1408" lon="5.05637">
        <ele>343.69738769531</ele>
        <time>2009-12-12T13:41:49Z</time>
      </trkpt>
      <trkpt lat="45.14085" lon="5.0563">
        <ele>342.73043823242</ele>
        <time>2009-12-12T13:41:50Z</time>
      </trkpt>
      <trkpt lat="45.14111" lon="5.05581">
        <ele>335.80718994141</ele>
        <time>2009-12-12T13:41:57Z</time>
      </trkpt>
      <trkpt lat="45.14119" lon="5.05539">
        <ele>332.66143798828</ele>
        <time>2009-12-12T13:42:03Z</time>
      </trkpt>
      <trkpt lat="45.1414" lon="5.05498">
        <ele>329.8645324707</ele>
        <time>2009-12-12T13:42:07Z</time>
      </trkpt>
      <trkpt lat="45.14154" lon="5.05494">
        <ele>330.31634521484</ele>
        <time>2009-12-12T13:42:09Z</time>
      </trkpt>
      <trkpt lat="45.14171" lon="5.05491">
        <ele>331.24526977539</ele>
        <time>2009-12-12T13:42:12Z</time>
      </trkpt>
      <trkpt lat="45.14207" lon="5.05504">
        <ele>336.84655761719</ele>
        <time>2009-12-12T13:42:17Z</time>
      </trkpt>
      <trkpt lat="45.14227" lon="5.05501">
        <ele>338.32153320312</ele>
        <time>2009-12-12T13:42:20Z</time>
      </trkpt>
      <trkpt lat="45.14256" lon="5.05487">
        <ele>337.55102539062</ele>
        <time>2009-12-12T13:42:25Z</time>
      </trkpt>
      <trkpt lat="45.14275" lon="5.05485">
        <ele>337.34503173828</ele>
        <time>2009-12-12T13:42:29Z</time>
      </trkpt>
      <trkpt lat="45.14296" lon="5.05483">
        <ele>337.82965087891</ele>
        <time>2009-12-12T13:42:33Z</time>
      </trkpt>
      <trkpt lat="45.14299" lon="5.05485">
        <ele>338.14205932617</ele>
        <time>2009-12-12T13:42:34Z</time>
      </trkpt>
      <trkpt lat="45.14308" lon="5.05491">
        <ele>338.87289428711</ele>
        <time>2009-12-12T13:42:37Z</time>
      </trkpt>
      <trkpt lat="45.14312" lon="5.05496">
        <ele>339.03424072266</ele>
        <time>2009-12-12T13:42:39Z</time>
      </trkpt>
      <trkpt lat="45.14294" lon="5.05529">
        <ele>342.71667480469</ele>
        <time>2009-12-12T13:42:48Z</time>
      </trkpt>
      <trkpt lat="45.14285" lon="5.05558">
        <ele>344.51702880859</ele>
        <time>2009-12-12T13:42:56Z</time>
      </trkpt>
      <trkpt lat="45.14277" lon="5.05574">
        <ele>346.65145874023</ele>
        <time>2009-12-12T13:43:01Z</time>
      </trkpt>
      <trkpt lat="45.14275" lon="5.05577">
        <ele>347.17010498047</ele>
        <time>2009-12-12T13:43:02Z</time>
      </trkpt>
      <trkpt lat="45.14273" lon="5.05581">
        <ele>347.65158081055</ele>
        <time>2009-12-12T13:43:03Z</time>
      </trkpt>
      <trkpt lat="45.14264" lon="5.05598">
        <ele>349.31564331055</ele>
        <time>2009-12-12T13:43:08Z</time>
      </trkpt>
      <trkpt lat="45.14245" lon="5.05609">
        <ele>350.58276367188</ele>
        <time>2009-12-12T13:43:15Z</time>
      </trkpt>
      <trkpt lat="45.14227" lon="5.05615">
        <ele>350.79696655273</ele>
        <time>2009-12-12T13:43:21Z</time>
      </trkpt>
      <trkpt lat="45.14206" lon="5.05627">
        <ele>351.17184448242</ele>
        <time>2009-12-12T13:43:27Z</time>
      </trkpt>
      <trkpt lat="45.14192" lon="5.05639">
        <ele>351.81042480469</ele>
        <time>2009-12-12T13:43:32Z</time>
      </trkpt>
      <trkpt lat="45.1418" lon="5.05653">
        <ele>352.52124023438</ele>
        <time>2009-12-12T13:43:38Z</time>
      </trkpt>
      <trkpt lat="45.14173" lon="5.05677">
        <ele>355.33950805664</ele>
        <time>2009-12-12T13:43:45Z</time>
      </trkpt>
      <trkpt lat="45.14168" lon="5.05697">
        <ele>358.51895141602</ele>
        <time>2009-12-12T13:43:51Z</time>
      </trkpt>
      <trkpt lat="45.14162" lon="5.05718">
        <ele>360.79296875</ele>
        <time>2009-12-12T13:43:57Z</time>
      </trkpt>
      <trkpt lat="45.14156" lon="5.05737">
        <ele>363.50665283203</ele>
        <time>2009-12-12T13:44:04Z</time>
      </trkpt>
      <trkpt lat="45.1415" lon="5.05753">
        <ele>366.24560546875</ele>
        <time>2009-12-12T13:44:11Z</time>
      </trkpt>
      <trkpt lat="45.14144" lon="5.0577">
        <ele>369.66506958008</ele>
        <time>2009-12-12T13:44:18Z</time>
      </trkpt>
      <trkpt lat="45.14137" lon="5.0579">
        <ele>371.82232666016</ele>
        <time>2009-12-12T13:44:25Z</time>
      </trkpt>
      <trkpt lat="45.14129" lon="5.05811">
        <ele>371.56072998047</ele>
        <time>2009-12-12T13:44:33Z</time>
      </trkpt>
      <trkpt lat="45.14123" lon="5.0583">
        <ele>371.37716674805</ele>
        <time>2009-12-12T13:44:39Z</time>
      </trkpt>
      <trkpt lat="45.14122" lon="5.05834">
        <ele>371.32467651367</ele>
        <time>2009-12-12T13:44:40Z</time>
      </trkpt>
      <trkpt lat="45.14122" lon="5.05866">
        <ele>373.16845703125</ele>
        <time>2009-12-12T13:44:46Z</time>
      </trkpt>
      <trkpt lat="45.14128" lon="5.05906">
        <ele>378.40148925781</ele>
        <time>2009-12-12T13:44:54Z</time>
      </trkpt>
      <trkpt lat="45.14132" lon="5.05942">
        <ele>382.77972412109</ele>
        <time>2009-12-12T13:45:01Z</time>
      </trkpt>
      <trkpt lat="45.14133" lon="5.05949">
        <ele>383.65725708008</ele>
        <time>2009-12-12T13:45:02Z</time>
      </trkpt>
      <trkpt lat="45.14135" lon="5.05978">
        <ele>385.9270324707</ele>
        <time>2009-12-12T13:45:06Z</time>
      </trkpt>
      <trkpt lat="45.14125" lon="5.0604">
        <ele>385.75378417969</ele>
        <time>2009-12-12T13:45:14Z</time>
      </trkpt>
      <trkpt lat="45.14112" lon="5.06073">
        <ele>380.64834594727</ele>
        <time>2009-12-12T13:45:18Z</time>
      </trkpt>
      <trkpt lat="45.14091" lon="5.06118">
        <ele>379.53237915039</ele>
        <time>2009-12-12T13:45:24Z</time>
      </trkpt>
      <trkpt lat="45.14064" lon="5.06153">
        <ele>377.40631103516</ele>
        <time>2009-12-12T13:45:30Z</time>
      </trkpt>
      <trkpt lat="45.14037" lon="5.06187">
        <ele>377.05361938477</ele>
        <time>2009-12-12T13:45:35Z</time>
      </trkpt>
      <trkpt lat="45.14016" lon="5.06227">
        <ele>377.52130126953</ele>
        <time>2009-12-12T13:45:40Z</time>
      </trkpt>
      <trkpt lat="45.13977" lon="5.06288">
        <ele>378.18862915039</ele>
        <time>2009-12-12T13:45:48Z</time>
      </trkpt>
      <trkpt lat="45.13966" lon="5.06331">
        <ele>379.76116943359</ele>
        <time>2009-12-12T13:45:54Z</time>
      </trkpt>
      <trkpt lat="45.13956" lon="5.06377">
        <ele>381.20489501953</ele>
        <time>2009-12-12T13:45:59Z</time>
      </trkpt>
      <trkpt lat="45.13952" lon="5.064">
        <ele>381.95520019531</ele>
        <time>2009-12-12T13:46:01Z</time>
      </trkpt>
      <trkpt lat="45.13948" lon="5.06423">
        <ele>381.67626953125</ele>
        <time>2009-12-12T13:46:03Z</time>
      </trkpt>
      <trkpt lat="45.1395" lon="5.06463">
        <ele>382.12704467773</ele>
        <time>2009-12-12T13:46:07Z</time>
      </trkpt>
      <trkpt lat="45.13952" lon="5.0647">
        <ele>382.16137695312</ele>
        <time>2009-12-12T13:46:10Z</time>
      </trkpt>
      <trkpt lat="45.13957" lon="5.06474">
        <ele>382.78732299805</ele>
        <time>2009-12-12T13:46:15Z</time>
      </trkpt>
      <trkpt lat="45.13961" lon="5.06476">
        <ele>383.16571044922</ele>
        <time>2009-12-12T13:46:17Z</time>
      </trkpt>
      <trkpt lat="45.1397" lon="5.06483">
        <ele>383.9443359375</ele>
        <time>2009-12-12T13:46:22Z</time>
      </trkpt>
      <trkpt lat="45.1398" lon="5.06491">
        <ele>385.15618896484</ele>
        <time>2009-12-12T13:46:28Z</time>
      </trkpt>
      <trkpt lat="45.13986" lon="5.06495">
        <ele>385.83596801758</ele>
        <time>2009-12-12T13:46:31Z</time>
      </trkpt>
      <trkpt lat="45.13998" lon="5.06504">
        <ele>387.31747436523</ele>
        <time>2009-12-12T13:46:38Z</time>
      </trkpt>
      <trkpt lat="45.1401" lon="5.06512">
        <ele>389.46920776367</ele>
        <time>2009-12-12T13:46:44Z</time>
      </trkpt>
      <trkpt lat="45.14028" lon="5.06521">
        <ele>394.30062866211</ele>
        <time>2009-12-12T13:46:52Z</time>
      </trkpt>
      <trkpt lat="45.14059" lon="5.06531">
        <ele>398.11935424805</ele>
        <time>2009-12-12T13:47:03Z</time>
      </trkpt>
      <trkpt lat="45.1408" lon="5.06538">
        <ele>399.75094604492</ele>
        <time>2009-12-12T13:47:11Z</time>
      </trkpt>
      <trkpt lat="45.14108" lon="5.0656">
        <ele>401.57995605469</ele>
        <time>2009-12-12T13:47:20Z</time>
      </trkpt>
      <trkpt lat="45.14128" lon="5.0658">
        <ele>403.57614135742</ele>
        <time>2009-12-12T13:47:28Z</time>
      </trkpt>
      <trkpt lat="45.14138" lon="5.06592">
        <ele>404.60440063477</ele>
        <time>2009-12-12T13:47:31Z</time>
      </trkpt>
      <trkpt lat="45.14154" lon="5.06611">
        <ele>405.58627319336</ele>
        <time>2009-12-12T13:47:36Z</time>
      </trkpt>
      <trkpt lat="45.14154" lon="5.06611">
        <ele>405.58627319336</ele>
        <time>2009-12-12T13:47:38Z</time>
      </trkpt>
      <trkpt lat="45.14154" lon="5.06611">
        <ele>405.58627319336</ele>
        <time>2009-12-12T13:47:41Z</time>
      </trkpt>
      <trkpt lat="45.14182" lon="5.06645">
        <ele>406.85919189453</ele>
        <time>2009-12-12T13:47:44Z</time>
      </trkpt>
      <trkpt lat="45.14185" lon="5.06649">
        <ele>406.92443847656</ele>
        <time>2009-12-12T13:47:45Z</time>
      </trkpt>
      <trkpt lat="45.14192" lon="5.0666">
        <ele>407.03601074219</ele>
        <time>2009-12-12T13:47:49Z</time>
      </trkpt>
      <trkpt lat="45.14196" lon="5.06666">
        <ele>407.16439819336</ele>
        <time>2009-12-12T13:47:51Z</time>
      </trkpt>
      <trkpt lat="45.14209" lon="5.06679">
        <ele>408.10876464844</ele>
        <time>2009-12-12T13:47:58Z</time>
      </trkpt>
      <trkpt lat="45.14221" lon="5.06687">
        <ele>409.10440063477</ele>
        <time>2009-12-12T13:48:04Z</time>
      </trkpt>
      <trkpt lat="45.14235" lon="5.06693">
        <ele>409.52670288086</ele>
        <time>2009-12-12T13:48:11Z</time>
      </trkpt>
      <trkpt lat="45.14238" lon="5.06695">
        <ele>409.56301879883</ele>
        <time>2009-12-12T13:48:13Z</time>
      </trkpt>
      <trkpt lat="45.14251" lon="5.06698">
        <ele>409.96908569336</ele>
        <time>2009-12-12T13:48:20Z</time>
      </trkpt>
      <trkpt lat="45.14271" lon="5.06699">
        <ele>411.18325805664</ele>
        <time>2009-12-12T13:48:29Z</time>
      </trkpt>
      <trkpt lat="45.1429" lon="5.06701">
        <ele>411.96334838867</ele>
        <time>2009-12-12T13:48:38Z</time>
      </trkpt>
      <trkpt lat="45.14295" lon="5.06702">
        <ele>412.11785888672</ele>
        <time>2009-12-12T13:48:46Z</time>
      </trkpt>
      <trkpt lat="45.14324" lon="5.06716">
        <ele>412.78863525391</ele>
        <time>2009-12-12T13:48:54Z</time>
      </trkpt>
      <trkpt lat="45.14339" lon="5.06723">
        <ele>413.48114013672</ele>
        <time>2009-12-12T13:49:01Z</time>
      </trkpt>
      <trkpt lat="45.14354" lon="5.06731">
        <ele>414.29998779297</ele>
        <time>2009-12-12T13:49:08Z</time>
      </trkpt>
      <trkpt lat="45.14366" lon="5.0674">
        <ele>414.70022583008</ele>
        <time>2009-12-12T13:49:14Z</time>
      </trkpt>
      <trkpt lat="45.14388" lon="5.06757">
        <ele>416.00228881836</ele>
        <time>2009-12-12T13:49:23Z</time>
      </trkpt>
      <trkpt lat="45.14408" lon="5.0678">
        <ele>414.56219482422</ele>
        <time>2009-12-12T13:49:32Z</time>
      </trkpt>
      <trkpt lat="45.1442" lon="5.06795">
        <ele>413.69274902344</ele>
        <time>2009-12-12T13:49:36Z</time>
      </trkpt>
      <trkpt lat="45.14446" lon="5.06832">
        <ele>410.84375</ele>
        <time>2009-12-12T13:49:44Z</time>
      </trkpt>
      <trkpt lat="45.14475" lon="5.06872">
        <ele>404.86904907227</ele>
        <time>2009-12-12T13:49:54Z</time>
      </trkpt>
      <trkpt lat="45.14488" lon="5.0689">
        <ele>403.82666015625</ele>
        <time>2009-12-12T13:49:59Z</time>
      </trkpt>
      <trkpt lat="45.14525" lon="5.06917">
        <ele>402.10299682617</ele>
        <time>2009-12-12T13:50:06Z</time>
      </trkpt>
      <trkpt lat="45.14573" lon="5.06953">
        <ele>400</ele>
        <time>2009-12-12T13:50:14Z</time>
      </trkpt>
      <trkpt lat="45.14597" lon="5.06971">
        <ele>400</ele>
        <time>2009-12-12T13:50:18Z</time>
      </trkpt>
      <trkpt lat="45.1463" lon="5.07015">
        <ele>400</ele>
        <time>2009-12-12T13:50:25Z</time>
      </trkpt>
      <trkpt lat="45.14637" lon="5.07026">
        <ele>400</ele>
        <time>2009-12-12T13:50:27Z</time>
      </trkpt>
      <trkpt lat="45.1465" lon="5.07059">
        <ele>399.31524658203</ele>
        <time>2009-12-12T13:50:33Z</time>
      </trkpt>
      <trkpt lat="45.14659" lon="5.07111">
        <ele>400</ele>
        <time>2009-12-12T13:50:41Z</time>
      </trkpt>
      <trkpt lat="45.14667" lon="5.07147">
        <ele>400</ele>
        <time>2009-12-12T13:50:47Z</time>
      </trkpt>
      <trkpt lat="45.14684" lon="5.07192">
        <ele>400</ele>
        <time>2009-12-12T13:50:56Z</time>
      </trkpt>
      <trkpt lat="45.14685" lon="5.07196">
        <ele>400</ele>
        <time>2009-12-12T13:50:57Z</time>
      </trkpt>
      <trkpt lat="45.14701" lon="5.07236">
        <ele>400</ele>
        <time>2009-12-12T13:51:06Z</time>
      </trkpt>
      <trkpt lat="45.14716" lon="5.07266">
        <ele>400</ele>
        <time>2009-12-12T13:51:14Z</time>
      </trkpt>
      <trkpt lat="45.1473" lon="5.07297">
        <ele>400</ele>
        <time>2009-12-12T13:51:23Z</time>
      </trkpt>
      <trkpt lat="45.14745" lon="5.07328">
        <ele>400</ele>
        <time>2009-12-12T13:51:31Z</time>
      </trkpt>
      <trkpt lat="45.14763" lon="5.07367">
        <ele>400</ele>
        <time>2009-12-12T13:51:40Z</time>
      </trkpt>
      <trkpt lat="45.1478" lon="5.07395">
        <ele>400</ele>
        <time>2009-12-12T13:51:47Z</time>
      </trkpt>
      <trkpt lat="45.14808" lon="5.0744">
        <ele>400</ele>
        <time>2009-12-12T13:51:58Z</time>
      </trkpt>
      <trkpt lat="45.14837" lon="5.07478">
        <ele>400</ele>
        <time>2009-12-12T13:52:08Z</time>
      </trkpt>
      <trkpt lat="45.1486" lon="5.07511">
        <ele>400</ele>
        <time>2009-12-12T13:52:16Z</time>
      </trkpt>
      <trkpt lat="45.14882" lon="5.07545">
        <ele>400</ele>
        <time>2009-12-12T13:52:23Z</time>
      </trkpt>
      <trkpt lat="45.14914" lon="5.07593">
        <ele>400</ele>
        <time>2009-12-12T13:52:32Z</time>
      </trkpt>
      <trkpt lat="45.14951" lon="5.07649">
        <ele>400</ele>
        <time>2009-12-12T13:52:42Z</time>
      </trkpt>
      <trkpt lat="45.14981" lon="5.07688">
        <ele>400</ele>
        <time>2009-12-12T13:52:50Z</time>
      </trkpt>
      <trkpt lat="45.15016" lon="5.07705">
        <ele>400</ele>
        <time>2009-12-12T13:52:57Z</time>
      </trkpt>
      <trkpt lat="45.15046" lon="5.07708">
        <ele>400.31494140625</ele>
        <time>2009-12-12T13:53:03Z</time>
      </trkpt>
      <trkpt lat="45.15071" lon="5.0771">
        <ele>401.13110351562</ele>
        <time>2009-12-12T13:53:09Z</time>
      </trkpt>
      <trkpt lat="45.15075" lon="5.07711">
        <ele>401.27874755859</ele>
        <time>2009-12-12T13:53:10Z</time>
      </trkpt>
      <trkpt lat="45.15104" lon="5.07713">
        <ele>403.17657470703</ele>
        <time>2009-12-12T13:53:17Z</time>
      </trkpt>
      <trkpt lat="45.15133" lon="5.07715">
        <ele>404.55325317383</ele>
        <time>2009-12-12T13:53:23Z</time>
      </trkpt>
      <trkpt lat="45.15155" lon="5.07717">
        <ele>405.98574829102</ele>
        <time>2009-12-12T13:53:27Z</time>
      </trkpt>
      <trkpt lat="45.15181" lon="5.07722">
        <ele>408.53656005859</ele>
        <time>2009-12-12T13:53:31Z</time>
      </trkpt>
      <trkpt lat="45.15231" lon="5.0774">
        <ele>418.16470336914</ele>
        <time>2009-12-12T13:53:40Z</time>
      </trkpt>
      <trkpt lat="45.15274" lon="5.07762">
        <ele>423.9743347168</ele>
        <time>2009-12-12T13:53:48Z</time>
      </trkpt>
      <trkpt lat="45.15301" lon="5.07792">
        <ele>427.17962646484</ele>
        <time>2009-12-12T13:53:54Z</time>
      </trkpt>
      <trkpt lat="45.1534" lon="5.07836">
        <ele>432.36270141602</ele>
        <time>2009-12-12T13:54:03Z</time>
      </trkpt>
      <trkpt lat="45.15356" lon="5.07856">
        <ele>432.81762695312</ele>
        <time>2009-12-12T13:54:08Z</time>
      </trkpt>
      <trkpt lat="45.15359" lon="5.0786">
        <ele>432.91717529297</ele>
        <time>2009-12-12T13:54:14Z</time>
      </trkpt>
      <trkpt lat="45.15402" lon="5.07944">
        <ele>436.37420654297</ele>
        <time>2009-12-12T13:54:25Z</time>
      </trkpt>
      <trkpt lat="45.15422" lon="5.07993">
        <ele>440.09765625</ele>
        <time>2009-12-12T13:54:34Z</time>
      </trkpt>
      <trkpt lat="45.15428" lon="5.08006">
        <ele>440.30718994141</ele>
        <time>2009-12-12T13:54:41Z</time>
      </trkpt>
      <trkpt lat="45.15443" lon="5.08048">
        <ele>440.95343017578</ele>
        <time>2009-12-12T13:54:44Z</time>
      </trkpt>
      <trkpt lat="45.15463" lon="5.08088">
        <ele>443.20343017578</ele>
        <time>2009-12-12T13:54:53Z</time>
      </trkpt>
      <trkpt lat="45.15482" lon="5.08115">
        <ele>445.55224609375</ele>
        <time>2009-12-12T13:55:00Z</time>
      </trkpt>
      <trkpt lat="45.155" lon="5.08137">
        <ele>447.0881652832</ele>
        <time>2009-12-12T13:55:06Z</time>
      </trkpt>
      <trkpt lat="45.15527" lon="5.08162">
        <ele>448.29376220703</ele>
        <time>2009-12-12T13:55:13Z</time>
      </trkpt>
      <trkpt lat="45.15558" lon="5.08189">
        <ele>449.40048217773</ele>
        <time>2009-12-12T13:55:20Z</time>
      </trkpt>
      <trkpt lat="45.15599" lon="5.08225">
        <ele>449.36529541016</ele>
        <time>2009-12-12T13:55:29Z</time>
      </trkpt>
      <trkpt lat="45.15638" lon="5.08247">
        <ele>451.04510498047</ele>
        <time>2009-12-12T13:55:36Z</time>
      </trkpt>
      <trkpt lat="45.15671" lon="5.08273">
        <ele>456.32336425781</ele>
        <time>2009-12-12T13:55:43Z</time>
      </trkpt>
      <trkpt lat="45.15691" lon="5.08291">
        <ele>456.77856445312</ele>
        <time>2009-12-12T13:55:48Z</time>
      </trkpt>
      <trkpt lat="45.1571" lon="5.08311">
        <ele>456.92254638672</ele>
        <time>2009-12-12T13:55:54Z</time>
      </trkpt>
      <trkpt lat="45.1572" lon="5.08324">
        <ele>457.18518066406</ele>
        <time>2009-12-12T13:55:59Z</time>
      </trkpt>
      <trkpt lat="45.1572" lon="5.08324">
        <ele>457.18518066406</ele>
        <time>2009-12-12T13:56:02Z</time>
      </trkpt>
      <trkpt lat="45.15745" lon="5.08375">
        <ele>458.4045715332</ele>
        <time>2009-12-12T13:56:08Z</time>
      </trkpt>
      <trkpt lat="45.15747" lon="5.08382">
        <ele>458.1608581543</ele>
        <time>2009-12-12T13:56:09Z</time>
      </trkpt>
      <trkpt lat="45.15756" lon="5.08413">
        <ele>458.63116455078</ele>
        <time>2009-12-12T13:56:14Z</time>
      </trkpt>
      <trkpt lat="45.15759" lon="5.08422">
        <ele>458.56866455078</ele>
        <time>2009-12-12T13:56:16Z</time>
      </trkpt>
      <trkpt lat="45.15759" lon="5.08422">
        <ele>458.56866455078</ele>
        <time>2009-12-12T13:56:17Z</time>
      </trkpt>
      <trkpt lat="45.15759" lon="5.08422">
        <ele>458.56866455078</ele>
        <time>2009-12-12T13:56:19Z</time>
      </trkpt>
      <trkpt lat="45.15771" lon="5.08479">
        <ele>458.61892700195</ele>
        <time>2009-12-12T13:56:23Z</time>
      </trkpt>
      <trkpt lat="45.15776" lon="5.08539">
        <ele>457.26965332031</ele>
        <time>2009-12-12T13:56:32Z</time>
      </trkpt>
      <trkpt lat="45.15777" lon="5.08552">
        <ele>457.02935791016</ele>
        <time>2009-12-12T13:56:34Z</time>
      </trkpt>
      <trkpt lat="45.1578" lon="5.0859">
        <ele>455.14529418945</ele>
        <time>2009-12-12T13:56:41Z</time>
      </trkpt>
      <trkpt lat="45.1578" lon="5.0859">
        <ele>455.14529418945</ele>
        <time>2009-12-12T13:56:47Z</time>
      </trkpt>
      <trkpt lat="45.1581" lon="5.08633">
        <ele>457.85260009766</ele>
        <time>2009-12-12T13:56:54Z</time>
      </trkpt>
      <trkpt lat="45.15823" lon="5.08656">
        <ele>457.6689453125</ele>
        <time>2009-12-12T13:57:00Z</time>
      </trkpt>
      <trkpt lat="45.1584" lon="5.08685">
        <ele>457.59805297852</ele>
        <time>2009-12-12T13:57:07Z</time>
      </trkpt>
      <trkpt lat="45.15863" lon="5.08721">
        <ele>458.17364501953</ele>
        <time>2009-12-12T13:57:15Z</time>
      </trkpt>
      <trkpt lat="45.15879" lon="5.08743">
        <ele>458.2702331543</ele>
        <time>2009-12-12T13:57:20Z</time>
      </trkpt>
      <trkpt lat="45.15897" lon="5.08751">
        <ele>459.22698974609</ele>
        <time>2009-12-12T13:57:25Z</time>
      </trkpt>
      <trkpt lat="45.15921" lon="5.08755">
        <ele>459.85260009766</ele>
        <time>2009-12-12T13:57:32Z</time>
      </trkpt>
      <trkpt lat="45.15931" lon="5.08757">
        <ele>459.88790893555</ele>
        <time>2009-12-12T13:57:35Z</time>
      </trkpt>
      <trkpt lat="45.15956" lon="5.08753">
        <ele>460</ele>
        <time>2009-12-12T13:57:43Z</time>
      </trkpt>
      <trkpt lat="45.15987" lon="5.0875">
        <ele>460</ele>
        <time>2009-12-12T13:57:51Z</time>
      </trkpt>
      <trkpt lat="45.16013" lon="5.08745">
        <ele>460</ele>
        <time>2009-12-12T13:57:59Z</time>
      </trkpt>
      <trkpt lat="45.16038" lon="5.08737">
        <ele>459.09976196289</ele>
        <time>2009-12-12T13:58:07Z</time>
      </trkpt>
      <trkpt lat="45.16055" lon="5.08731">
        <ele>457.10308837891</ele>
        <time>2009-12-12T13:58:13Z</time>
      </trkpt>
      <trkpt lat="45.16055" lon="5.08731">
        <ele>457.10308837891</ele>
        <time>2009-12-12T13:58:19Z</time>
      </trkpt>
      <trkpt lat="45.16069" lon="5.08703">
        <ele>453.70367431641</ele>
        <time>2009-12-12T13:58:24Z</time>
      </trkpt>
      <trkpt lat="45.16059" lon="5.0867">
        <ele>451.88143920898</ele>
        <time>2009-12-12T13:58:32Z</time>
      </trkpt>
      <trkpt lat="45.1605" lon="5.08635">
        <ele>450.89184570312</ele>
        <time>2009-12-12T13:58:38Z</time>
      </trkpt>
      <trkpt lat="45.16044" lon="5.08602">
        <ele>449.1858215332</ele>
        <time>2009-12-12T13:58:42Z</time>
      </trkpt>
      <trkpt lat="45.16038" lon="5.08568">
        <ele>448.51953125</ele>
        <time>2009-12-12T13:58:45Z</time>
      </trkpt>
      <trkpt lat="45.16036" lon="5.08555">
        <ele>447.90576171875</ele>
        <time>2009-12-12T13:58:46Z</time>
      </trkpt>
      <trkpt lat="45.16031" lon="5.08528">
        <ele>446.13421630859</ele>
        <time>2009-12-12T13:58:48Z</time>
      </trkpt>
      <trkpt lat="45.16022" lon="5.08474">
        <ele>444.83209228516</ele>
        <time>2009-12-12T13:58:52Z</time>
      </trkpt>
      <trkpt lat="45.16015" lon="5.08434">
        <ele>444.85168457031</ele>
        <time>2009-12-12T13:58:55Z</time>
      </trkpt>
      <trkpt lat="45.16013" lon="5.08376">
        <ele>443.73541259766</ele>
        <time>2009-12-12T13:58:59Z</time>
      </trkpt>
      <trkpt lat="45.16018" lon="5.08363">
        <ele>442.58184814453</ele>
        <time>2009-12-12T13:59:00Z</time>
      </trkpt>
      <trkpt lat="45.16046" lon="5.08285">
        <ele>438.5202331543</ele>
        <time>2009-12-12T13:59:05Z</time>
      </trkpt>
      <trkpt lat="45.16052" lon="5.08267">
        <ele>437.66436767578</ele>
        <time>2009-12-12T13:59:06Z</time>
      </trkpt>
      <trkpt lat="45.16092" lon="5.08205">
        <ele>429.02868652344</ele>
        <time>2009-12-12T13:59:10Z</time>
      </trkpt>
      <trkpt lat="45.16142" lon="5.08161">
        <ele>414.18243408203</ele>
        <time>2009-12-12T13:59:14Z</time>
      </trkpt>
      <trkpt lat="45.16179" lon="5.0813">
        <ele>405.74133300781</ele>
        <time>2009-12-12T13:59:18Z</time>
      </trkpt>
      <trkpt lat="45.16217" lon="5.08098">
        <ele>398.42434692383</ele>
        <time>2009-12-12T13:59:22Z</time>
      </trkpt>
      <trkpt lat="45.16239" lon="5.0808">
        <ele>394.23156738281</ele>
        <time>2009-12-12T13:59:24Z</time>
      </trkpt>
      <trkpt lat="45.16289" lon="5.08056">
        <ele>386.65496826172</ele>
        <time>2009-12-12T13:59:28Z</time>
      </trkpt>
      <trkpt lat="45.16324" lon="5.08032">
        <ele>382.30990600586</ele>
        <time>2009-12-12T13:59:31Z</time>
      </trkpt>
      <trkpt lat="45.16417" lon="5.07971">
        <ele>369.92874145508</ele>
        <time>2009-12-12T13:59:39Z</time>
      </trkpt>
      <trkpt lat="45.16454" lon="5.07946">
        <ele>366.75210571289</ele>
        <time>2009-12-12T13:59:42Z</time>
      </trkpt>
      <trkpt lat="45.16538" lon="5.07914">
        <ele>358.97113037109</ele>
        <time>2009-12-12T13:59:48Z</time>
      </trkpt>
      <trkpt lat="45.16601" lon="5.07863">
        <ele>346.5325012207</ele>
        <time>2009-12-12T13:59:53Z</time>
      </trkpt>
      <trkpt lat="45.16613" lon="5.07851">
        <ele>345.0325012207</ele>
        <time>2009-12-12T13:59:54Z</time>
      </trkpt>
      <trkpt lat="45.1664" lon="5.07808">
        <ele>338.08975219727</ele>
        <time>2009-12-12T13:59:57Z</time>
      </trkpt>
      <trkpt lat="45.16655" lon="5.07776">
        <ele>333.98626708984</ele>
        <time>2009-12-12T13:59:59Z</time>
      </trkpt>
      <trkpt lat="45.16677" lon="5.07748">
        <ele>327.28768920898</ele>
        <time>2009-12-12T14:00:02Z</time>
      </trkpt>
      <trkpt lat="45.16694" lon="5.07744">
        <ele>322.83908081055</ele>
        <time>2009-12-12T14:00:04Z</time>
      </trkpt>
      <trkpt lat="45.16768" lon="5.07741">
        <ele>320.2926940918</ele>
        <time>2009-12-12T14:00:10Z</time>
      </trkpt>
      <trkpt lat="45.16797" lon="5.0774">
        <ele>314.73211669922</ele>
        <time>2009-12-12T14:00:15Z</time>
      </trkpt>
      <trkpt lat="45.16883" lon="5.07718">
        <ele>309.87133789062</ele>
        <time>2009-12-12T14:00:18Z</time>
      </trkpt>
      <trkpt lat="45.16909" lon="5.07686">
        <ele>307.91445922852</ele>
        <time>2009-12-12T14:00:20Z</time>
      </trkpt>
      <trkpt lat="45.16945" lon="5.07642">
        <ele>305.12127685547</ele>
        <time>2009-12-12T14:00:23Z</time>
      </trkpt>
      <trkpt lat="45.16966" lon="5.07614">
        <ele>302.39508056641</ele>
        <time>2009-12-12T14:00:25Z</time>
      </trkpt>
      <trkpt lat="45.17014" lon="5.07545">
        <ele>299.10455322266</ele>
        <time>2009-12-12T14:00:30Z</time>
      </trkpt>
      <trkpt lat="45.17063" lon="5.07474">
        <ele>296.07922363281</ele>
        <time>2009-12-12T14:00:36Z</time>
      </trkpt>
      <trkpt lat="45.17097" lon="5.07425">
        <ele>294.65368652344</ele>
        <time>2009-12-12T14:00:41Z</time>
      </trkpt>
      <trkpt lat="45.17138" lon="5.07366">
        <ele>292.19476318359</ele>
        <time>2009-12-12T14:00:48Z</time>
      </trkpt>
      <trkpt lat="45.17162" lon="5.07331">
        <ele>291.14263916016</ele>
        <time>2009-12-12T14:00:53Z</time>
      </trkpt>
      <trkpt lat="45.17176" lon="5.07311">
        <ele>291</ele>
        <time>2009-12-12T14:00:57Z</time>
      </trkpt>
      <trkpt lat="45.17178" lon="5.07308">
        <ele>291</ele>
        <time>2009-12-12T14:00:58Z</time>
      </trkpt>
      <trkpt lat="45.17178" lon="5.07308">
        <ele>291</ele>
        <time>2009-12-12T14:00:59Z</time>
      </trkpt>
      <trkpt lat="45.17179" lon="5.07307">
        <ele>291</ele>
        <time>2009-12-12T14:01:20Z</time>
      </trkpt>
      <trkpt lat="45.17179" lon="5.07307">
        <ele>291</ele>
        <time>2009-12-12T14:01:25Z</time>
      </trkpt>
      <trkpt lat="45.17216" lon="5.07253">
        <ele>290</ele>
        <time>2009-12-12T14:01:32Z</time>
      </trkpt>
      <trkpt lat="45.17235" lon="5.07225">
        <ele>289.099609375</ele>
        <time>2009-12-12T14:01:41Z</time>
      </trkpt>
      <trkpt lat="45.17272" lon="5.0717">
        <ele>288.02255249023</ele>
        <time>2009-12-12T14:01:48Z</time>
      </trkpt>
      <trkpt lat="45.17278" lon="5.0716">
        <ele>288.53558349609</ele>
        <time>2009-12-12T14:01:50Z</time>
      </trkpt>
      <trkpt lat="45.17285" lon="5.0715">
        <ele>289.95007324219</ele>
        <time>2009-12-12T14:01:52Z</time>
      </trkpt>
      <trkpt lat="45.17303" lon="5.07122">
        <ele>294.59927368164</ele>
        <time>2009-12-12T14:01:59Z</time>
      </trkpt>
      <trkpt lat="45.17303" lon="5.07122">
        <ele>294.59927368164</ele>
        <time>2009-12-12T14:02:02Z</time>
      </trkpt>
      <trkpt lat="45.17334" lon="5.07078">
        <ele>300.98300170898</ele>
        <time>2009-12-12T14:02:08Z</time>
      </trkpt>
      <trkpt lat="45.17347" lon="5.07058">
        <ele>305.61956787109</ele>
        <time>2009-12-12T14:02:13Z</time>
      </trkpt>
      <trkpt lat="45.17362" lon="5.07036">
        <ele>309.09475708008</ele>
        <time>2009-12-12T14:02:19Z</time>
      </trkpt>
      <trkpt lat="45.17366" lon="5.0703">
        <ele>309.97021484375</ele>
        <time>2009-12-12T14:02:21Z</time>
      </trkpt>
      <trkpt lat="45.17371" lon="5.07013">
        <ele>312.42358398438</ele>
        <time>2009-12-12T14:02:25Z</time>
      </trkpt>
      <trkpt lat="45.17355" lon="5.07009">
        <ele>312.34478759766</ele>
        <time>2009-12-12T14:02:29Z</time>
      </trkpt>
      <trkpt lat="45.17345" lon="5.07007">
        <ele>312.28860473633</ele>
        <time>2009-12-12T14:02:31Z</time>
      </trkpt>
      <trkpt lat="45.17326" lon="5.06997">
        <ele>312.66271972656</ele>
        <time>2009-12-12T14:02:36Z</time>
      </trkpt>
      <trkpt lat="45.17309" lon="5.06987">
        <ele>312.22326660156</ele>
        <time>2009-12-12T14:02:40Z</time>
      </trkpt>
      <trkpt lat="45.17292" lon="5.06977">
        <ele>312.19537353516</ele>
        <time>2009-12-12T14:02:44Z</time>
      </trkpt>
      <trkpt lat="45.17278" lon="5.06969">
        <ele>312.28204345703</ele>
        <time>2009-12-12T14:02:47Z</time>
      </trkpt>
      <trkpt lat="45.17252" lon="5.06954">
        <ele>308.86126708984</ele>
        <time>2009-12-12T14:02:52Z</time>
      </trkpt>
      <trkpt lat="45.17226" lon="5.06946">
        <ele>309.76348876953</ele>
        <time>2009-12-12T14:02:57Z</time>
      </trkpt>
      <trkpt lat="45.1718" lon="5.06928">
        <ele>308.81192016602</ele>
        <time>2009-12-12T14:03:04Z</time>
      </trkpt>
      <trkpt lat="45.17158" lon="5.06912">
        <ele>309.27563476562</ele>
        <time>2009-12-12T14:03:08Z</time>
      </trkpt>
      <trkpt lat="45.17121" lon="5.06874">
        <ele>310.62591552734</ele>
        <time>2009-12-12T14:03:16Z</time>
      </trkpt>
      <trkpt lat="45.17083" lon="5.06835">
        <ele>311.66116333008</ele>
        <time>2009-12-12T14:03:24Z</time>
      </trkpt>
      <trkpt lat="45.17072" lon="5.06824">
        <ele>313.08728027344</ele>
        <time>2009-12-12T14:03:26Z</time>
      </trkpt>
      <trkpt lat="45.17025" lon="5.06776">
        <ele>313.02139282227</ele>
        <time>2009-12-12T14:03:34Z</time>
      </trkpt>
      <trkpt lat="45.16994" lon="5.06745">
        <ele>315.28854370117</ele>
        <time>2009-12-12T14:03:39Z</time>
      </trkpt>
      <trkpt lat="45.16976" lon="5.06727">
        <ele>312.68600463867</ele>
        <time>2009-12-12T14:03:42Z</time>
      </trkpt>
      <trkpt lat="45.16933" lon="5.06683">
        <ele>305.40707397461</ele>
        <time>2009-12-12T14:03:49Z</time>
      </trkpt>
      <trkpt lat="45.16908" lon="5.06656">
        <ele>302.57046508789</ele>
        <time>2009-12-12T14:03:53Z</time>
      </trkpt>
      <trkpt lat="45.16847" lon="5.06597">
        <ele>299.25445556641</ele>
        <time>2009-12-12T14:04:02Z</time>
      </trkpt>
      <trkpt lat="45.16785" lon="5.06535">
        <ele>298.28051757812</ele>
        <time>2009-12-12T14:04:11Z</time>
      </trkpt>
      <trkpt lat="45.16769" lon="5.06508">
        <ele>298.53616333008</ele>
        <time>2009-12-12T14:04:14Z</time>
      </trkpt>
      <trkpt lat="45.16757" lon="5.06479">
        <ele>299.11318969727</ele>
        <time>2009-12-12T14:04:17Z</time>
      </trkpt>
      <trkpt lat="45.16739" lon="5.06413">
        <ele>299.5295715332</ele>
        <time>2009-12-12T14:04:24Z</time>
      </trkpt>
      <trkpt lat="45.16721" lon="5.06336">
        <ele>299.93328857422</ele>
        <time>2009-12-12T14:04:32Z</time>
      </trkpt>
      <trkpt lat="45.16703" lon="5.06255">
        <ele>299.7780456543</ele>
        <time>2009-12-12T14:04:42Z</time>
      </trkpt>
      <trkpt lat="45.16687" lon="5.06169">
        <ele>296.5133972168</ele>
        <time>2009-12-12T14:04:51Z</time>
      </trkpt>
      <trkpt lat="45.16672" lon="5.06095">
        <ele>296.86560058594</ele>
        <time>2009-12-12T14:05:00Z</time>
      </trkpt>
      <trkpt lat="45.16655" lon="5.06033">
        <ele>298.38430786133</ele>
        <time>2009-12-12T14:05:08Z</time>
      </trkpt>
      <trkpt lat="45.16636" lon="5.05974">
        <ele>299.83142089844</ele>
        <time>2009-12-12T14:05:15Z</time>
      </trkpt>
      <trkpt lat="45.16613" lon="5.05906">
        <ele>301.05450439453</ele>
        <time>2009-12-12T14:05:22Z</time>
      </trkpt>
      <trkpt lat="45.16579" lon="5.05815">
        <ele>299.2536315918</ele>
        <time>2009-12-12T14:05:31Z</time>
      </trkpt>
      <trkpt lat="45.16543" lon="5.05718">
        <ele>295.62414550781</ele>
        <time>2009-12-12T14:05:40Z</time>
      </trkpt>
      <trkpt lat="45.16515" lon="5.05654">
        <ele>293.1005859375</ele>
        <time>2009-12-12T14:05:46Z</time>
      </trkpt>
      <trkpt lat="45.16466" lon="5.05562">
        <ele>288.16815185547</ele>
        <time>2009-12-12T14:05:55Z</time>
      </trkpt>
      <trkpt lat="45.16409" lon="5.05457">
        <ele>283.9775390625</ele>
        <time>2009-12-12T14:06:05Z</time>
      </trkpt>
      <trkpt lat="45.16355" lon="5.05358">
        <ele>282.35437011719</ele>
        <time>2009-12-12T14:06:15Z</time>
      </trkpt>
      <trkpt lat="45.16293" lon="5.05257">
        <ele>280.76565551758</ele>
        <time>2009-12-12T14:06:24Z</time>
      </trkpt>
      <trkpt lat="45.16254" lon="5.05169">
        <ele>281.25299072266</ele>
        <time>2009-12-12T14:06:32Z</time>
      </trkpt>
      <trkpt lat="45.16233" lon="5.05108">
        <ele>280</ele>
        <time>2009-12-12T14:06:37Z</time>
      </trkpt>
      <trkpt lat="45.16218" lon="5.05062">
        <ele>279.19821166992</ele>
        <time>2009-12-12T14:06:41Z</time>
      </trkpt>
      <trkpt lat="45.16181" lon="5.04949">
        <ele>276.70022583008</ele>
        <time>2009-12-12T14:06:51Z</time>
      </trkpt>
      <trkpt lat="45.16166" lon="5.04877">
        <ele>275.55319213867</ele>
        <time>2009-12-12T14:06:57Z</time>
      </trkpt>
      <trkpt lat="45.16162" lon="5.04814">
        <ele>274.88809204102</ele>
        <time>2009-12-12T14:07:02Z</time>
      </trkpt>
      <trkpt lat="45.16164" lon="5.0469">
        <ele>273</ele>
        <time>2009-12-12T14:07:12Z</time>
      </trkpt>
      <trkpt lat="45.16166" lon="5.0459">
        <ele>272</ele>
        <time>2009-12-12T14:07:20Z</time>
      </trkpt>
      <trkpt lat="45.16167" lon="5.04576">
        <ele>272.02819824219</ele>
        <time>2009-12-12T14:07:21Z</time>
      </trkpt>
      <trkpt lat="45.16184" lon="5.04497">
        <ele>271.61871337891</ele>
        <time>2009-12-12T14:07:27Z</time>
      </trkpt>
      <trkpt lat="45.16201" lon="5.04428">
        <ele>271.54302978516</ele>
        <time>2009-12-12T14:07:32Z</time>
      </trkpt>
      <trkpt lat="45.16217" lon="5.04375">
        <ele>271.79974365234</ele>
        <time>2009-12-12T14:07:36Z</time>
      </trkpt>
      <trkpt lat="45.16231" lon="5.04297">
        <ele>271.30786132812</ele>
        <time>2009-12-12T14:07:42Z</time>
      </trkpt>
      <trkpt lat="45.16231" lon="5.04235">
        <ele>270.77578735352</ele>
        <time>2009-12-12T14:07:47Z</time>
      </trkpt>
      <trkpt lat="45.16215" lon="5.04143">
        <ele>269.74481201172</ele>
        <time>2009-12-12T14:07:54Z</time>
      </trkpt>
      <trkpt lat="45.162" lon="5.04056">
        <ele>269</ele>
        <time>2009-12-12T14:08:01Z</time>
      </trkpt>
      <trkpt lat="45.16189" lon="5.03992">
        <ele>267.79724121094</ele>
        <time>2009-12-12T14:08:07Z</time>
      </trkpt>
      <trkpt lat="45.16178" lon="5.03944">
        <ele>267.38696289062</ele>
        <time>2009-12-12T14:08:13Z</time>
      </trkpt>
      <trkpt lat="45.16171" lon="5.03933">
        <ele>266.75698852539</ele>
        <time>2009-12-12T14:08:16Z</time>
      </trkpt>
      <trkpt lat="45.16173" lon="5.03907">
        <ele>266.23419189453</ele>
        <time>2009-12-12T14:08:21Z</time>
      </trkpt>
      <trkpt lat="45.16183" lon="5.03882">
        <ele>266.59124755859</ele>
        <time>2009-12-12T14:08:27Z</time>
      </trkpt>
      <trkpt lat="45.16188" lon="5.03869">
        <ele>266.75604248047</ele>
        <time>2009-12-12T14:08:32Z</time>
      </trkpt>
      <trkpt lat="45.16189" lon="5.0384">
        <ele>266.81097412109</ele>
        <time>2009-12-12T14:08:36Z</time>
      </trkpt>
      <trkpt lat="45.16191" lon="5.038">
        <ele>267.07238769531</ele>
        <time>2009-12-12T14:08:43Z</time>
      </trkpt>
      <trkpt lat="45.16192" lon="5.03756">
        <ele>267.90710449219</ele>
        <time>2009-12-12T14:08:49Z</time>
      </trkpt>
      <trkpt lat="45.16192" lon="5.03692">
        <ele>268.81420898438</ele>
        <time>2009-12-12T14:08:56Z</time>
      </trkpt>
      <trkpt lat="45.16187" lon="5.03606">
        <ele>269.28216552734</ele>
        <time>2009-12-12T14:09:05Z</time>
      </trkpt>
      <trkpt lat="45.16177" lon="5.03514">
        <ele>272.74850463867</ele>
        <time>2009-12-12T14:09:14Z</time>
      </trkpt>
      <trkpt lat="45.16161" lon="5.03447">
        <ele>275.38427734375</ele>
        <time>2009-12-12T14:09:21Z</time>
      </trkpt>
      <trkpt lat="45.1614" lon="5.03385">
        <ele>277.26107788086</ele>
        <time>2009-12-12T14:09:28Z</time>
      </trkpt>
      <trkpt lat="45.16112" lon="5.03331">
        <ele>277.216796875</ele>
        <time>2009-12-12T14:09:35Z</time>
      </trkpt>
      <trkpt lat="45.16096" lon="5.03301">
        <ele>275.84243774414</ele>
        <time>2009-12-12T14:09:39Z</time>
      </trkpt>
      <trkpt lat="45.16065" lon="5.03244">
        <ele>271.15798950195</ele>
        <time>2009-12-12T14:09:47Z</time>
      </trkpt>
      <trkpt lat="45.1605" lon="5.03217">
        <ele>267.47134399414</ele>
        <time>2009-12-12T14:09:54Z</time>
      </trkpt>
      <trkpt lat="45.16005" lon="5.03138">
        <ele>260.19772338867</ele>
        <time>2009-12-12T14:10:01Z</time>
      </trkpt>
      <trkpt lat="45.15959" lon="5.03068">
        <ele>260</ele>
        <time>2009-12-12T14:10:10Z</time>
      </trkpt>
      <trkpt lat="45.1591" lon="5.02998">
        <ele>260</ele>
        <time>2009-12-12T14:10:19Z</time>
      </trkpt>
      <trkpt lat="45.15877" lon="5.0295">
        <ele>260.919921875</ele>
        <time>2009-12-12T14:10:25Z</time>
      </trkpt>
      <trkpt lat="45.15834" lon="5.02902">
        <ele>260.03961181641</ele>
        <time>2009-12-12T14:10:32Z</time>
      </trkpt>
      <trkpt lat="45.15808" lon="5.02876">
        <ele>260.04293823242</ele>
        <time>2009-12-12T14:10:36Z</time>
      </trkpt>
      <trkpt lat="45.15747" lon="5.02818">
        <ele>260</ele>
        <time>2009-12-12T14:10:45Z</time>
      </trkpt>
      <trkpt lat="45.15701" lon="5.02774">
        <ele>260</ele>
        <time>2009-12-12T14:10:52Z</time>
      </trkpt>
      <trkpt lat="45.15643" lon="5.02716">
        <ele>260</ele>
        <time>2009-12-12T14:11:01Z</time>
      </trkpt>
      <trkpt lat="45.15592" lon="5.02657">
        <ele>259.5498046875</ele>
        <time>2009-12-12T14:11:09Z</time>
      </trkpt>
      <trkpt lat="45.15534" lon="5.02583">
        <ele>259.00534057617</ele>
        <time>2009-12-12T14:11:18Z</time>
      </trkpt>
      <trkpt lat="45.15461" lon="5.02485">
        <ele>259</ele>
        <time>2009-12-12T14:11:29Z</time>
      </trkpt>
      <trkpt lat="45.15409" lon="5.02421">
        <ele>258.72717285156</ele>
        <time>2009-12-12T14:11:37Z</time>
      </trkpt>
      <trkpt lat="45.15361" lon="5.02365">
        <ele>257.84246826172</ele>
        <time>2009-12-12T14:11:44Z</time>
      </trkpt>
      <trkpt lat="45.15318" lon="5.02311">
        <ele>256.43127441406</ele>
        <time>2009-12-12T14:11:51Z</time>
      </trkpt>
      <trkpt lat="45.15279" lon="5.02242">
        <ele>256.05798339844</ele>
        <time>2009-12-12T14:11:59Z</time>
      </trkpt>
      <trkpt lat="45.15257" lon="5.022">
        <ele>255.27890014648</ele>
        <time>2009-12-12T14:12:08Z</time>
      </trkpt>
      <trkpt lat="45.15209" lon="5.0212">
        <ele>256.22592163086</ele>
        <time>2009-12-12T14:12:15Z</time>
      </trkpt>
      <trkpt lat="45.15197" lon="5.02103">
        <ele>256.36953735352</ele>
        <time>2009-12-12T14:12:18Z</time>
      </trkpt>
      <trkpt lat="45.15184" lon="5.02084">
        <ele>256.5950012207</ele>
        <time>2009-12-12T14:12:22Z</time>
      </trkpt>
      <trkpt lat="45.15195" lon="5.0205">
        <ele>258.18902587891</ele>
        <time>2009-12-12T14:12:26Z</time>
      </trkpt>
      <trkpt lat="45.15211" lon="5.02041">
        <ele>258.52722167969</ele>
        <time>2009-12-12T14:12:30Z</time>
      </trkpt>
      <trkpt lat="45.15216" lon="5.02041">
        <ele>258.52722167969</ele>
        <time>2009-12-12T14:12:31Z</time>
      </trkpt>
      <trkpt lat="45.15228" lon="5.02041">
        <ele>258.71752929688</ele>
        <time>2009-12-12T14:12:34Z</time>
      </trkpt>
      <trkpt lat="45.15241" lon="5.02032">
        <ele>259.52261352539</ele>
        <time>2009-12-12T14:12:39Z</time>
      </trkpt>
      <trkpt lat="45.15244" lon="5.02017">
        <ele>259.85488891602</ele>
        <time>2009-12-12T14:12:43Z</time>
      </trkpt>
      <trkpt lat="45.15243" lon="5.02">
        <ele>259.99822998047</ele>
        <time>2009-12-12T14:12:47Z</time>
      </trkpt>
      <trkpt lat="45.15242" lon="5.01992">
        <ele>261.09225463867</ele>
        <time>2009-12-12T14:12:49Z</time>
      </trkpt>
      <trkpt lat="45.15238" lon="5.01967">
        <ele>264.599609375</ele>
        <time>2009-12-12T14:12:55Z</time>
      </trkpt>
      <trkpt lat="45.15232" lon="5.01942">
        <ele>269.81719970703</ele>
        <time>2009-12-12T14:13:01Z</time>
      </trkpt>
      <trkpt lat="45.15216" lon="5.01914">
        <ele>273.60162353516</ele>
        <time>2009-12-12T14:13:08Z</time>
      </trkpt>
      <trkpt lat="45.15198" lon="5.01883">
        <ele>277.63619995117</ele>
        <time>2009-12-12T14:13:16Z</time>
      </trkpt>
      <trkpt lat="45.15182" lon="5.01856">
        <ele>280.79461669922</ele>
        <time>2009-12-12T14:13:23Z</time>
      </trkpt>
      <trkpt lat="45.15179" lon="5.01852">
        <ele>280.95211791992</ele>
        <time>2009-12-12T14:13:29Z</time>
      </trkpt>
      <trkpt lat="45.15179" lon="5.01852">
        <ele>280.95211791992</ele>
        <time>2009-12-12T14:13:32Z</time>
      </trkpt>
      <trkpt lat="45.15165" lon="5.01795">
        <ele>287.73034667969</ele>
        <time>2009-12-12T14:13:39Z</time>
      </trkpt>
      <trkpt lat="45.15161" lon="5.01776">
        <ele>289.26574707031</ele>
        <time>2009-12-12T14:13:45Z</time>
      </trkpt>
      <trkpt lat="45.15157" lon="5.01757">
        <ele>291.57559204102</ele>
        <time>2009-12-12T14:13:51Z</time>
      </trkpt>
      <trkpt lat="45.1515" lon="5.01736">
        <ele>293.14385986328</ele>
        <time>2009-12-12T14:13:58Z</time>
      </trkpt>
      <trkpt lat="45.15155" lon="5.01727">
        <ele>294.78323364258</ele>
        <time>2009-12-12T14:14:03Z</time>
      </trkpt>
      <trkpt lat="45.15157" lon="5.01728">
        <ele>294.90853881836</ele>
        <time>2009-12-12T14:14:04Z</time>
      </trkpt>
      <trkpt lat="45.1517" lon="5.01739">
        <ele>295.60214233398</ele>
        <time>2009-12-12T14:14:11Z</time>
      </trkpt>
      <trkpt lat="45.15183" lon="5.01748">
        <ele>295.92144775391</ele>
        <time>2009-12-12T14:14:17Z</time>
      </trkpt>
      <trkpt lat="45.15185" lon="5.0175">
        <ele>295.91656494141</ele>
        <time>2009-12-12T14:14:18Z</time>
      </trkpt>
      <trkpt lat="45.15195" lon="5.01742">
        <ele>297.85879516602</ele>
        <time>2009-12-12T14:14:23Z</time>
      </trkpt>
      <trkpt lat="45.15191" lon="5.01725">
        <ele>299.32550048828</ele>
        <time>2009-12-12T14:14:29Z</time>
      </trkpt>
      <trkpt lat="45.15177" lon="5.01706">
        <ele>300.45092773438</ele>
        <time>2009-12-12T14:14:36Z</time>
      </trkpt>
      <trkpt lat="45.15156" lon="5.01683">
        <ele>300.38681030273</ele>
        <time>2009-12-12T14:14:44Z</time>
      </trkpt>
      <trkpt lat="45.15128" lon="5.01657">
        <ele>299.65420532227</ele>
        <time>2009-12-12T14:14:52Z</time>
      </trkpt>
      <trkpt lat="45.15105" lon="5.01634">
        <ele>298.78408813477</ele>
        <time>2009-12-12T14:14:59Z</time>
      </trkpt>
      <trkpt lat="45.15079" lon="5.0161">
        <ele>296.52139282227</ele>
        <time>2009-12-12T14:15:07Z</time>
      </trkpt>
      <trkpt lat="45.1505" lon="5.01585">
        <ele>294.0632019043</ele>
        <time>2009-12-12T14:15:16Z</time>
      </trkpt>
      <trkpt lat="45.15034" lon="5.01574">
        <ele>291.91088867188</ele>
        <time>2009-12-12T14:15:21Z</time>
      </trkpt>
      <trkpt lat="45.1501" lon="5.01558">
        <ele>288.50512695312</ele>
        <time>2009-12-12T14:15:28Z</time>
      </trkpt>
      <trkpt lat="45.14991" lon="5.01545">
        <ele>285.11108398438</ele>
        <time>2009-12-12T14:15:34Z</time>
      </trkpt>
      <trkpt lat="45.1497" lon="5.0153">
        <ele>281.79721069336</ele>
        <time>2009-12-12T14:15:41Z</time>
      </trkpt>
      <trkpt lat="45.14952" lon="5.01518">
        <ele>279.86663818359</ele>
        <time>2009-12-12T14:15:47Z</time>
      </trkpt>
      <trkpt lat="45.14944" lon="5.01506">
        <ele>279.00146484375</ele>
        <time>2009-12-12T14:15:51Z</time>
      </trkpt>
      <trkpt lat="45.14943" lon="5.015">
        <ele>278.65490722656</ele>
        <time>2009-12-12T14:15:52Z</time>
      </trkpt>
      <trkpt lat="45.14954" lon="5.0148">
        <ele>277.27291870117</ele>
        <time>2009-12-12T14:15:57Z</time>
      </trkpt>
      <trkpt lat="45.14966" lon="5.01477">
        <ele>279.17391967773</ele>
        <time>2009-12-12T14:16:02Z</time>
      </trkpt>
      <trkpt lat="45.14971" lon="5.01476">
        <ele>279.98907470703</ele>
        <time>2009-12-12T14:16:04Z</time>
      </trkpt>
      <trkpt lat="45.14989" lon="5.01466">
        <ele>280.76446533203</ele>
        <time>2009-12-12T14:16:11Z</time>
      </trkpt>
      <trkpt lat="45.15003" lon="5.01463">
        <ele>282.34301757812</ele>
        <time>2009-12-12T14:16:16Z</time>
      </trkpt>
      <trkpt lat="45.15019" lon="5.01465">
        <ele>284.76812744141</ele>
        <time>2009-12-12T14:16:21Z</time>
      </trkpt>
      <trkpt lat="45.15048" lon="5.01469">
        <ele>288.80419921875</ele>
        <time>2009-12-12T14:16:29Z</time>
      </trkpt>
      <trkpt lat="45.15069" lon="5.01473">
        <ele>292.42495727539</ele>
        <time>2009-12-12T14:16:35Z</time>
      </trkpt>
      <trkpt lat="45.15084" lon="5.01475">
        <ele>295.47424316406</ele>
        <time>2009-12-12T14:16:40Z</time>
      </trkpt>
      <trkpt lat="45.15101" lon="5.01477">
        <ele>298.4719543457</ele>
        <time>2009-12-12T14:16:45Z</time>
      </trkpt>
      <trkpt lat="45.15104" lon="5.01478">
        <ele>299.00463867188</ele>
        <time>2009-12-12T14:16:46Z</time>
      </trkpt>
      <trkpt lat="45.15114" lon="5.01472">
        <ele>300.17791748047</ele>
        <time>2009-12-12T14:16:49Z</time>
      </trkpt>
      <trkpt lat="45.15113" lon="5.01454">
        <ele>297.72323608398</ele>
        <time>2009-12-12T14:16:53Z</time>
      </trkpt>
      <trkpt lat="45.15111" lon="5.01428">
        <ele>294.19955444336</ele>
        <time>2009-12-12T14:16:59Z</time>
      </trkpt>
      <trkpt lat="45.15125" lon="5.0141">
        <ele>294.22854614258</ele>
        <time>2009-12-12T14:17:03Z</time>
      </trkpt>
      <trkpt lat="45.1514" lon="5.01415">
        <ele>297.63900756836</ele>
        <time>2009-12-12T14:17:08Z</time>
      </trkpt>
      <trkpt lat="45.15157" lon="5.01425">
        <ele>299.92889404297</ele>
        <time>2009-12-12T14:17:14Z</time>
      </trkpt>
      <trkpt lat="45.15172" lon="5.01435">
        <ele>301.69702148438</ele>
        <time>2009-12-12T14:17:20Z</time>
      </trkpt>
      <trkpt lat="45.15189" lon="5.01444">
        <ele>303.56811523438</ele>
        <time>2009-12-12T14:17:26Z</time>
      </trkpt>
      <trkpt lat="45.15204" lon="5.01436">
        <ele>304.07623291016</ele>
        <time>2009-12-12T14:17:31Z</time>
      </trkpt>
      <trkpt lat="45.15214" lon="5.01425">
        <ele>303.96295166016</ele>
        <time>2009-12-12T14:17:35Z</time>
      </trkpt>
      <trkpt lat="45.15225" lon="5.01411">
        <ele>303.49621582031</ele>
        <time>2009-12-12T14:17:40Z</time>
      </trkpt>
      <trkpt lat="45.15231" lon="5.01395">
        <ele>301.76733398438</ele>
        <time>2009-12-12T14:17:44Z</time>
      </trkpt>
      <trkpt lat="45.15235" lon="5.01361">
        <ele>294.96862792969</ele>
        <time>2009-12-12T14:17:52Z</time>
      </trkpt>
      <trkpt lat="45.1525" lon="5.01348">
        <ele>293.14215087891</ele>
        <time>2009-12-12T14:17:57Z</time>
      </trkpt>
      <trkpt lat="45.15265" lon="5.01352">
        <ele>293.71893310547</ele>
        <time>2009-12-12T14:18:02Z</time>
      </trkpt>
      <trkpt lat="45.15276" lon="5.01369">
        <ele>296.70388793945</ele>
        <time>2009-12-12T14:18:08Z</time>
      </trkpt>
      <trkpt lat="45.15289" lon="5.01395">
        <ele>302.10876464844</ele>
        <time>2009-12-12T14:18:15Z</time>
      </trkpt>
      <trkpt lat="45.15293" lon="5.0142">
        <ele>307.00421142578</ele>
        <time>2009-12-12T14:18:21Z</time>
      </trkpt>
      <trkpt lat="45.15298" lon="5.01444">
        <ele>309.93692016602</ele>
        <time>2009-12-12T14:18:26Z</time>
      </trkpt>
      <trkpt lat="45.15309" lon="5.01461">
        <ele>313.28717041016</ele>
        <time>2009-12-12T14:18:31Z</time>
      </trkpt>
      <trkpt lat="45.15323" lon="5.01473">
        <ele>314.21670532227</ele>
        <time>2009-12-12T14:18:36Z</time>
      </trkpt>
      <trkpt lat="45.1534" lon="5.01488">
        <ele>314.56280517578</ele>
        <time>2009-12-12T14:18:42Z</time>
      </trkpt>
      <trkpt lat="45.1536" lon="5.01505">
        <ele>316.66412353516</ele>
        <time>2009-12-12T14:18:49Z</time>
      </trkpt>
      <trkpt lat="45.15382" lon="5.01523">
        <ele>317.71405029297</ele>
        <time>2009-12-12T14:18:56Z</time>
      </trkpt>
      <trkpt lat="45.154" lon="5.01539">
        <ele>318.29489135742</ele>
        <time>2009-12-12T14:19:02Z</time>
      </trkpt>
      <trkpt lat="45.15414" lon="5.0155">
        <ele>319.291015625</ele>
        <time>2009-12-12T14:19:07Z</time>
      </trkpt>
      <trkpt lat="45.1543" lon="5.01562">
        <ele>319.2727355957</ele>
        <time>2009-12-12T14:19:12Z</time>
      </trkpt>
      <trkpt lat="45.15455" lon="5.01575">
        <ele>319.12704467773</ele>
        <time>2009-12-12T14:19:20Z</time>
      </trkpt>
      <trkpt lat="45.15472" lon="5.01577">
        <ele>319.11486816406</ele>
        <time>2009-12-12T14:19:25Z</time>
      </trkpt>
      <trkpt lat="45.15492" lon="5.0158">
        <ele>319.53372192383</ele>
        <time>2009-12-12T14:19:31Z</time>
      </trkpt>
      <trkpt lat="45.15498" lon="5.01581">
        <ele>319.67791748047</ele>
        <time>2009-12-12T14:19:33Z</time>
      </trkpt>
      <trkpt lat="45.15516" lon="5.01584">
        <ele>321.20001220703</ele>
        <time>2009-12-12T14:19:38Z</time>
      </trkpt>
      <trkpt lat="45.15519" lon="5.01584">
        <ele>321.41973876953</ele>
        <time>2009-12-12T14:19:39Z</time>
      </trkpt>
      <trkpt lat="45.15536" lon="5.01589">
        <ele>322.78628540039</ele>
        <time>2009-12-12T14:19:46Z</time>
      </trkpt>
      <trkpt lat="45.15555" lon="5.01601">
        <ele>324.88751220703</ele>
        <time>2009-12-12T14:19:52Z</time>
      </trkpt>
      <trkpt lat="45.15569" lon="5.01611">
        <ele>325.94619750977</ele>
        <time>2009-12-12T14:19:57Z</time>
      </trkpt>
      <trkpt lat="45.15586" lon="5.01621">
        <ele>327.46633911133</ele>
        <time>2009-12-12T14:20:03Z</time>
      </trkpt>
      <trkpt lat="45.15596" lon="5.01628">
        <ele>328.3864440918</ele>
        <time>2009-12-12T14:20:07Z</time>
      </trkpt>
      <trkpt lat="45.15611" lon="5.01634">
        <ele>329.25057983398</ele>
        <time>2009-12-12T14:20:13Z</time>
      </trkpt>
      <trkpt lat="45.15625" lon="5.01635">
        <ele>329.32235717773</ele>
        <time>2009-12-12T14:20:18Z</time>
      </trkpt>
      <trkpt lat="45.15633" lon="5.01635">
        <ele>329.38180541992</ele>
        <time>2009-12-12T14:20:21Z</time>
      </trkpt>
      <trkpt lat="45.15648" lon="5.01636">
        <ele>329.55377197266</ele>
        <time>2009-12-12T14:20:26Z</time>
      </trkpt>
      <trkpt lat="45.15664" lon="5.01638">
        <ele>329.76834106445</ele>
        <time>2009-12-12T14:20:31Z</time>
      </trkpt>
      <trkpt lat="45.1568" lon="5.01639">
        <ele>329.98291015625</ele>
        <time>2009-12-12T14:20:36Z</time>
      </trkpt>
      <trkpt lat="45.15695" lon="5.0164">
        <ele>330.18032836914</ele>
        <time>2009-12-12T14:20:41Z</time>
      </trkpt>
      <trkpt lat="45.15709" lon="5.01641">
        <ele>330.36056518555</ele>
        <time>2009-12-12T14:20:45Z</time>
      </trkpt>
      <trkpt lat="45.15721" lon="5.01644">
        <ele>330.83264160156</ele>
        <time>2009-12-12T14:20:48Z</time>
      </trkpt>
      <trkpt lat="45.15732" lon="5.0166">
        <ele>333.38336181641</ele>
        <time>2009-12-12T14:20:53Z</time>
      </trkpt>
      <trkpt lat="45.15749" lon="5.01684">
        <ele>336.44692993164</ele>
        <time>2009-12-12T14:21:00Z</time>
      </trkpt>
      <trkpt lat="45.15768" lon="5.01711">
        <ele>341.57321166992</ele>
        <time>2009-12-12T14:21:08Z</time>
      </trkpt>
      <trkpt lat="45.15771" lon="5.01713">
        <ele>342.00579833984</ele>
        <time>2009-12-12T14:21:09Z</time>
      </trkpt>
      <trkpt lat="45.15802" lon="5.01733">
        <ele>345.609375</ele>
        <time>2009-12-12T14:21:20Z</time>
      </trkpt>
      <trkpt lat="45.15826" lon="5.01745">
        <ele>345.77597045898</ele>
        <time>2009-12-12T14:21:28Z</time>
      </trkpt>
      <trkpt lat="45.15854" lon="5.01745">
        <ele>345.25045776367</ele>
        <time>2009-12-12T14:21:36Z</time>
      </trkpt>
      <trkpt lat="45.15903" lon="5.01745">
        <ele>342.91464233398</ele>
        <time>2009-12-12T14:21:49Z</time>
      </trkpt>
      <trkpt lat="45.15939" lon="5.01745">
        <ele>341.87567138672</ele>
        <time>2009-12-12T14:21:58Z</time>
      </trkpt>
      <trkpt lat="45.15962" lon="5.01745">
        <ele>340.19583129883</ele>
        <time>2009-12-12T14:22:04Z</time>
      </trkpt>
      <trkpt lat="45.15992" lon="5.01745">
        <ele>341.11715698242</ele>
        <time>2009-12-12T14:22:11Z</time>
      </trkpt>
      <trkpt lat="45.16027" lon="5.01745">
        <ele>342.05828857422</ele>
        <time>2009-12-12T14:22:19Z</time>
      </trkpt>
      <trkpt lat="45.16071" lon="5.01745">
        <ele>344.06307983398</ele>
        <time>2009-12-12T14:22:29Z</time>
      </trkpt>
      <trkpt lat="45.16109" lon="5.01751">
        <ele>345.22927856445</ele>
        <time>2009-12-12T14:22:38Z</time>
      </trkpt>
      <trkpt lat="45.16135" lon="5.01763">
        <ele>349.27703857422</ele>
        <time>2009-12-12T14:22:45Z</time>
      </trkpt>
      <trkpt lat="45.16154" lon="5.01773">
        <ele>350.88909912109</ele>
        <time>2009-12-12T14:22:52Z</time>
      </trkpt>
      <trkpt lat="45.16159" lon="5.01776">
        <ele>351.31652832031</ele>
        <time>2009-12-12T14:22:54Z</time>
      </trkpt>
      <trkpt lat="45.16175" lon="5.01785">
        <ele>352.57891845703</ele>
        <time>2009-12-12T14:23:00Z</time>
      </trkpt>
      <trkpt lat="45.16189" lon="5.01801">
        <ele>356.03961181641</ele>
        <time>2009-12-12T14:23:07Z</time>
      </trkpt>
      <trkpt lat="45.16192" lon="5.01805">
        <ele>356.83270263672</ele>
        <time>2009-12-12T14:23:10Z</time>
      </trkpt>
      <trkpt lat="45.16192" lon="5.01805">
        <ele>356.83270263672</ele>
        <time>2009-12-12T14:23:16Z</time>
      </trkpt>
      <trkpt lat="45.16216" lon="5.01845">
        <ele>362.74917602539</ele>
        <time>2009-12-12T14:23:22Z</time>
      </trkpt>
      <trkpt lat="45.1624" lon="5.01863">
        <ele>365.40756225586</ele>
        <time>2009-12-12T14:23:31Z</time>
      </trkpt>
      <trkpt lat="45.16259" lon="5.01877">
        <ele>370.69076538086</ele>
        <time>2009-12-12T14:23:38Z</time>
      </trkpt>
      <trkpt lat="45.16272" lon="5.01887">
        <ele>377.50741577148</ele>
        <time>2009-12-12T14:23:43Z</time>
      </trkpt>
      <trkpt lat="45.16282" lon="5.01895">
        <ele>379.36892700195</ele>
        <time>2009-12-12T14:23:51Z</time>
      </trkpt>
      <trkpt lat="45.16309" lon="5.01922">
        <ele>380</ele>
        <time>2009-12-12T14:23:59Z</time>
      </trkpt>
      <trkpt lat="45.16327" lon="5.0194">
        <ele>380</ele>
        <time>2009-12-12T14:24:07Z</time>
      </trkpt>
      <trkpt lat="45.16342" lon="5.01955">
        <ele>380</ele>
        <time>2009-12-12T14:24:14Z</time>
      </trkpt>
      <trkpt lat="45.16358" lon="5.01971">
        <ele>380</ele>
        <time>2009-12-12T14:24:22Z</time>
      </trkpt>
      <trkpt lat="45.16374" lon="5.01987">
        <ele>379.07165527344</ele>
        <time>2009-12-12T14:24:29Z</time>
      </trkpt>
      <trkpt lat="45.16389" lon="5.01999">
        <ele>377.11236572266</ele>
        <time>2009-12-12T14:24:35Z</time>
      </trkpt>
      <trkpt lat="45.16409" lon="5.02012">
        <ele>366.8952331543</ele>
        <time>2009-12-12T14:24:41Z</time>
      </trkpt>
      <trkpt lat="45.16431" lon="5.02026">
        <ele>361.93395996094</ele>
        <time>2009-12-12T14:24:48Z</time>
      </trkpt>
      <trkpt lat="45.16453" lon="5.0204">
        <ele>361.77087402344</ele>
        <time>2009-12-12T14:24:54Z</time>
      </trkpt>
      <trkpt lat="45.16471" lon="5.0205">
        <ele>363.63766479492</ele>
        <time>2009-12-12T14:24:59Z</time>
      </trkpt>
      <trkpt lat="45.16499" lon="5.02064">
        <ele>366.5016784668</ele>
        <time>2009-12-12T14:25:07Z</time>
      </trkpt>
      <trkpt lat="45.16524" lon="5.02077">
        <ele>368.89016723633</ele>
        <time>2009-12-12T14:25:15Z</time>
      </trkpt>
      <trkpt lat="45.16547" lon="5.02089">
        <ele>369.40878295898</ele>
        <time>2009-12-12T14:25:23Z</time>
      </trkpt>
      <trkpt lat="45.16561" lon="5.02097">
        <ele>368.12738037109</ele>
        <time>2009-12-12T14:25:28Z</time>
      </trkpt>
      <trkpt lat="45.16561" lon="5.02097">
        <ele>368.12738037109</ele>
        <time>2009-12-12T14:25:34Z</time>
      </trkpt>
      <trkpt lat="45.16595" lon="5.02108">
        <ele>359.1164855957</ele>
        <time>2009-12-12T14:25:40Z</time>
      </trkpt>
      <trkpt lat="45.16616" lon="5.02115">
        <ele>355.8766784668</ele>
        <time>2009-12-12T14:25:47Z</time>
      </trkpt>
      <trkpt lat="45.1664" lon="5.02123">
        <ele>353.52551269531</ele>
        <time>2009-12-12T14:25:54Z</time>
      </trkpt>
      <trkpt lat="45.1665" lon="5.02126">
        <ele>352.82400512695</ele>
        <time>2009-12-12T14:25:56Z</time>
      </trkpt>
      <trkpt lat="45.16671" lon="5.02129">
        <ele>350.93383789062</ele>
        <time>2009-12-12T14:26:00Z</time>
      </trkpt>
      <trkpt lat="45.1669" lon="5.02131">
        <ele>350.41299438477</ele>
        <time>2009-12-12T14:26:03Z</time>
      </trkpt>
      <trkpt lat="45.16696" lon="5.02131">
        <ele>350.10781860352</ele>
        <time>2009-12-12T14:26:04Z</time>
      </trkpt>
      <trkpt lat="45.16702" lon="5.02128">
        <ele>349.30172729492</ele>
        <time>2009-12-12T14:26:05Z</time>
      </trkpt>
      <trkpt lat="45.16722" lon="5.02122">
        <ele>346.96279907227</ele>
        <time>2009-12-12T14:26:08Z</time>
      </trkpt>
      <trkpt lat="45.16746" lon="5.02114">
        <ele>345.48742675781</ele>
        <time>2009-12-12T14:26:15Z</time>
      </trkpt>
      <trkpt lat="45.16788" lon="5.02101">
        <ele>344.31362915039</ele>
        <time>2009-12-12T14:26:20Z</time>
      </trkpt>
      <trkpt lat="45.16814" lon="5.02088">
        <ele>344.27236938477</ele>
        <time>2009-12-12T14:26:26Z</time>
      </trkpt>
      <trkpt lat="45.16853" lon="5.02074">
        <ele>344.09204101562</ele>
        <time>2009-12-12T14:26:32Z</time>
      </trkpt>
      <trkpt lat="45.16885" lon="5.02063">
        <ele>343.85122680664</ele>
        <time>2009-12-12T14:26:39Z</time>
      </trkpt>
      <trkpt lat="45.16917" lon="5.02058">
        <ele>345.43667602539</ele>
        <time>2009-12-12T14:26:46Z</time>
      </trkpt>
      <trkpt lat="45.16917" lon="5.02058">
        <ele>345.43667602539</ele>
        <time>2009-12-12T14:26:48Z</time>
      </trkpt>
      <trkpt lat="45.16953" lon="5.02053">
        <ele>344.90515136719</ele>
        <time>2009-12-12T14:26:53Z</time>
      </trkpt>
      <trkpt lat="45.16972" lon="5.0205">
        <ele>345.2119140625</ele>
        <time>2009-12-12T14:26:57Z</time>
      </trkpt>
      <trkpt lat="45.17019" lon="5.02043">
        <ele>346.19326782227</ele>
        <time>2009-12-12T14:27:06Z</time>
      </trkpt>
      <trkpt lat="45.17065" lon="5.02037">
        <ele>345.28689575195</ele>
        <time>2009-12-12T14:27:15Z</time>
      </trkpt>
      <trkpt lat="45.17096" lon="5.02038">
        <ele>346.42169189453</ele>
        <time>2009-12-12T14:27:22Z</time>
      </trkpt>
      <trkpt lat="45.17129" lon="5.0204">
        <ele>349.46768188477</ele>
        <time>2009-12-12T14:27:30Z</time>
      </trkpt>
      <trkpt lat="45.17151" lon="5.02037">
        <ele>351.37338256836</ele>
        <time>2009-12-12T14:27:36Z</time>
      </trkpt>
      <trkpt lat="45.17177" lon="5.02032">
        <ele>353.5002746582</ele>
        <time>2009-12-12T14:27:43Z</time>
      </trkpt>
      <trkpt lat="45.17192" lon="5.02028">
        <ele>354.84439086914</ele>
        <time>2009-12-12T14:27:48Z</time>
      </trkpt>
      <trkpt lat="45.17208" lon="5.02035">
        <ele>358.38952636719</ele>
        <time>2009-12-12T14:27:55Z</time>
      </trkpt>
      <trkpt lat="45.1722" lon="5.02042">
        <ele>361.47729492188</ele>
        <time>2009-12-12T14:28:00Z</time>
      </trkpt>
      <trkpt lat="45.17234" lon="5.02054">
        <ele>365.59094238281</ele>
        <time>2009-12-12T14:28:06Z</time>
      </trkpt>
      <trkpt lat="45.17247" lon="5.02064">
        <ele>369.71875</ele>
        <time>2009-12-12T14:28:12Z</time>
      </trkpt>
      <trkpt lat="45.17262" lon="5.02067">
        <ele>372.92587280273</ele>
        <time>2009-12-12T14:28:16Z</time>
      </trkpt>
      <trkpt lat="45.17288" lon="5.02067">
        <ele>377.31060791016</ele>
        <time>2009-12-12T14:28:21Z</time>
      </trkpt>
      <trkpt lat="45.17308" lon="5.02069">
        <ele>380</ele>
        <time>2009-12-12T14:28:25Z</time>
      </trkpt>
      <trkpt lat="45.17344" lon="5.02075">
        <ele>380</ele>
        <time>2009-12-12T14:28:33Z</time>
      </trkpt>
      <trkpt lat="45.17348" lon="5.02075">
        <ele>380</ele>
        <time>2009-12-12T14:28:34Z</time>
      </trkpt>
      <trkpt lat="45.17391" lon="5.02073">
        <ele>380</ele>
        <time>2009-12-12T14:28:43Z</time>
      </trkpt>
      <trkpt lat="45.17429" lon="5.02071">
        <ele>380</ele>
        <time>2009-12-12T14:28:51Z</time>
      </trkpt>
      <trkpt lat="45.17456" lon="5.02073">
        <ele>379.39306640625</ele>
        <time>2009-12-12T14:28:56Z</time>
      </trkpt>
      <trkpt lat="45.17469" lon="5.02074">
        <ele>378.79266357422</ele>
        <time>2009-12-12T14:28:58Z</time>
      </trkpt>
      <trkpt lat="45.17502" lon="5.02068">
        <ele>372.66271972656</ele>
        <time>2009-12-12T14:29:03Z</time>
      </trkpt>
      <trkpt lat="45.17513" lon="5.02047">
        <ele>367.09460449219</ele>
        <time>2009-12-12T14:29:06Z</time>
      </trkpt>
      <trkpt lat="45.17538" lon="5.02007">
        <ele>361.03268432617</ele>
        <time>2009-12-12T14:29:12Z</time>
      </trkpt>
      <trkpt lat="45.17543" lon="5.02004">
        <ele>360.92440795898</ele>
        <time>2009-12-12T14:29:13Z</time>
      </trkpt>
      <trkpt lat="45.17553" lon="5.01999">
        <ele>360.85238647461</ele>
        <time>2009-12-12T14:29:15Z</time>
      </trkpt>
      <trkpt lat="45.17594" lon="5.01987">
        <ele>360.9446105957</ele>
        <time>2009-12-12T14:29:23Z</time>
      </trkpt>
      <trkpt lat="45.17608" lon="5.01962">
        <ele>360.07308959961</ele>
        <time>2009-12-12T14:29:26Z</time>
      </trkpt>
      <trkpt lat="45.17617" lon="5.01955">
        <ele>360</ele>
        <time>2009-12-12T14:29:31Z</time>
      </trkpt>
      <trkpt lat="45.17631" lon="5.01921">
        <ele>360</ele>
        <time>2009-12-12T14:29:35Z</time>
      </trkpt>
      <trkpt lat="45.17647" lon="5.01882">
        <ele>360</ele>
        <time>2009-12-12T14:29:41Z</time>
      </trkpt>
      <trkpt lat="45.17648" lon="5.01852">
        <ele>360</ele>
        <time>2009-12-12T14:29:45Z</time>
      </trkpt>
      <trkpt lat="45.17642" lon="5.01835">
        <ele>360</ele>
        <time>2009-12-12T14:29:47Z</time>
      </trkpt>
      <trkpt lat="45.17623" lon="5.01795">
        <ele>355.10638427734</ele>
        <time>2009-12-12T14:29:53Z</time>
      </trkpt>
      <trkpt lat="45.17601" lon="5.0175">
        <ele>348.91049194336</ele>
        <time>2009-12-12T14:29:59Z</time>
      </trkpt>
      <trkpt lat="45.17598" lon="5.01742">
        <ele>347.93301391602</ele>
        <time>2009-12-12T14:30:00Z</time>
      </trkpt>
      <trkpt lat="45.17588" lon="5.01721">
        <ele>345.97241210938</ele>
        <time>2009-12-12T14:30:03Z</time>
      </trkpt>
      <trkpt lat="45.17587" lon="5.0171">
        <ele>344.76904296875</ele>
        <time>2009-12-12T14:30:04Z</time>
      </trkpt>
      <trkpt lat="45.1759" lon="5.01655">
        <ele>339.85668945312</ele>
        <time>2009-12-12T14:30:10Z</time>
      </trkpt>
      <trkpt lat="45.17591" lon="5.01647">
        <ele>338.91943359375</ele>
        <time>2009-12-12T14:30:11Z</time>
      </trkpt>
      <trkpt lat="45.17581" lon="5.0161">
        <ele>333.88516235352</ele>
        <time>2009-12-12T14:30:16Z</time>
      </trkpt>
      <trkpt lat="45.17563" lon="5.0158">
        <ele>331.56118774414</ele>
        <time>2009-12-12T14:30:20Z</time>
      </trkpt>
      <trkpt lat="45.17548" lon="5.01569">
        <ele>329.72323608398</ele>
        <time>2009-12-12T14:30:22Z</time>
      </trkpt>
      <trkpt lat="45.17519" lon="5.0155">
        <ele>326.30499267578</ele>
        <time>2009-12-12T14:30:26Z</time>
      </trkpt>
      <trkpt lat="45.17501" lon="5.01537">
        <ele>324.67419433594</ele>
        <time>2009-12-12T14:30:29Z</time>
      </trkpt>
      <trkpt lat="45.17475" lon="5.01515">
        <ele>321.74597167969</ele>
        <time>2009-12-12T14:30:33Z</time>
      </trkpt>
      <trkpt lat="45.17447" lon="5.01491">
        <ele>320.60559082031</ele>
        <time>2009-12-12T14:30:37Z</time>
      </trkpt>
      <trkpt lat="45.1743" lon="5.01473">
        <ele>320.00988769531</ele>
        <time>2009-12-12T14:30:41Z</time>
      </trkpt>
      <trkpt lat="45.17428" lon="5.01463">
        <ele>319.20126342773</ele>
        <time>2009-12-12T14:30:42Z</time>
      </trkpt>
      <trkpt lat="45.1743" lon="5.01428">
        <ele>316.64102172852</ele>
        <time>2009-12-12T14:30:46Z</time>
      </trkpt>
      <trkpt lat="45.17437" lon="5.0138">
        <ele>313.13177490234</ele>
        <time>2009-12-12T14:30:51Z</time>
      </trkpt>
      <trkpt lat="45.17437" lon="5.0138">
        <ele>313.13177490234</ele>
        <time>2009-12-12T14:30:52Z</time>
      </trkpt>
      <trkpt lat="45.17443" lon="5.01311">
        <ele>308.369140625</ele>
        <time>2009-12-12T14:30:56Z</time>
      </trkpt>
      <trkpt lat="45.17443" lon="5.013">
        <ele>307.60009765625</ele>
        <time>2009-12-12T14:30:57Z</time>
      </trkpt>
      <trkpt lat="45.17444" lon="5.0129">
        <ele>306.86535644531</ele>
        <time>2009-12-12T14:30:58Z</time>
      </trkpt>
      <trkpt lat="45.17453" lon="5.01234">
        <ele>302.8759765625</ele>
        <time>2009-12-12T14:31:04Z</time>
      </trkpt>
      <trkpt lat="45.17457" lon="5.0121">
        <ele>301.12158203125</ele>
        <time>2009-12-12T14:31:07Z</time>
      </trkpt>
      <trkpt lat="45.17464" lon="5.01193">
        <ele>299.86447143555</ele>
        <time>2009-12-12T14:31:09Z</time>
      </trkpt>
      <trkpt lat="45.17482" lon="5.01173">
        <ele>298.64666748047</ele>
        <time>2009-12-12T14:31:13Z</time>
      </trkpt>
      <trkpt lat="45.17503" lon="5.01171">
        <ele>300.17376708984</ele>
        <time>2009-12-12T14:31:16Z</time>
      </trkpt>
      <trkpt lat="45.17524" lon="5.01168">
        <ele>300.06561279297</ele>
        <time>2009-12-12T14:31:19Z</time>
      </trkpt>
      <trkpt lat="45.17529" lon="5.01163">
        <ele>299.54150390625</ele>
        <time>2009-12-12T14:31:20Z</time>
      </trkpt>
      <trkpt lat="45.17562" lon="5.01134">
        <ele>295.73669433594</ele>
        <time>2009-12-12T14:31:26Z</time>
      </trkpt>
      <trkpt lat="45.17589" lon="5.01119">
        <ele>294.77618408203</ele>
        <time>2009-12-12T14:31:30Z</time>
      </trkpt>
      <trkpt lat="45.17612" lon="5.01105">
        <ele>293.59234619141</ele>
        <time>2009-12-12T14:31:33Z</time>
      </trkpt>
      <trkpt lat="45.17635" lon="5.01093">
        <ele>293.23529052734</ele>
        <time>2009-12-12T14:31:37Z</time>
      </trkpt>
      <trkpt lat="45.17638" lon="5.01091">
        <ele>293.24273681641</ele>
        <time>2009-12-12T14:31:38Z</time>
      </trkpt>
      <trkpt lat="45.17643" lon="5.01088">
        <ele>293.30133056641</ele>
        <time>2009-12-12T14:31:41Z</time>
      </trkpt>
      <trkpt lat="45.17648" lon="5.01081">
        <ele>293.1520690918</ele>
        <time>2009-12-12T14:31:47Z</time>
      </trkpt>
      <trkpt lat="45.17648" lon="5.01081">
        <ele>293.1520690918</ele>
        <time>2009-12-12T14:31:48Z</time>
      </trkpt>
      <trkpt lat="45.17651" lon="5.01075">
        <ele>292.98388671875</ele>
        <time>2009-12-12T14:32:29Z</time>
      </trkpt>
      <trkpt lat="45.17651" lon="5.01075">
        <ele>292.98388671875</ele>
        <time>2009-12-12T14:32:37Z</time>
      </trkpt>
      <trkpt lat="45.1768" lon="5.01079">
        <ele>294.82592773438</ele>
        <time>2009-12-12T14:32:43Z</time>
      </trkpt>
      <trkpt lat="45.17697" lon="5.01089">
        <ele>296.08343505859</ele>
        <time>2009-12-12T14:32:49Z</time>
      </trkpt>
      <trkpt lat="45.17725" lon="5.01114">
        <ele>297.37677001953</ele>
        <time>2009-12-12T14:32:59Z</time>
      </trkpt>
      <trkpt lat="45.17745" lon="5.01131">
        <ele>299.60403442383</ele>
        <time>2009-12-12T14:33:05Z</time>
      </trkpt>
      <trkpt lat="45.17776" lon="5.01143">
        <ele>300</ele>
        <time>2009-12-12T14:33:13Z</time>
      </trkpt>
      <trkpt lat="45.17805" lon="5.01153">
        <ele>300</ele>
        <time>2009-12-12T14:33:21Z</time>
      </trkpt>
      <trkpt lat="45.17813" lon="5.01153">
        <ele>300</ele>
        <time>2009-12-12T14:33:23Z</time>
      </trkpt>
      <trkpt lat="45.17846" lon="5.01154">
        <ele>300</ele>
        <time>2009-12-12T14:33:31Z</time>
      </trkpt>
      <trkpt lat="45.17875" lon="5.01154">
        <ele>300</ele>
        <time>2009-12-12T14:33:37Z</time>
      </trkpt>
      <trkpt lat="45.17913" lon="5.01155">
        <ele>300</ele>
        <time>2009-12-12T14:33:45Z</time>
      </trkpt>
      <trkpt lat="45.17942" lon="5.01156">
        <ele>300</ele>
        <time>2009-12-12T14:33:53Z</time>
      </trkpt>
      <trkpt lat="45.17977" lon="5.01157">
        <ele>300</ele>
        <time>2009-12-12T14:34:04Z</time>
      </trkpt>
      <trkpt lat="45.18006" lon="5.01155">
        <ele>300.09429931641</ele>
        <time>2009-12-12T14:34:14Z</time>
      </trkpt>
      <trkpt lat="45.18032" lon="5.01152">
        <ele>301.04516601562</ele>
        <time>2009-12-12T14:34:23Z</time>
      </trkpt>
      <trkpt lat="45.18051" lon="5.01145">
        <ele>303.89376831055</ele>
        <time>2009-12-12T14:34:31Z</time>
      </trkpt>
      <trkpt lat="45.18071" lon="5.01138">
        <ele>307.28564453125</ele>
        <time>2009-12-12T14:34:39Z</time>
      </trkpt>
      <trkpt lat="45.18095" lon="5.01128">
        <ele>310.13131713867</ele>
        <time>2009-12-12T14:34:48Z</time>
      </trkpt>
      <trkpt lat="45.18114" lon="5.01119">
        <ele>311.69900512695</ele>
        <time>2009-12-12T14:34:55Z</time>
      </trkpt>
      <trkpt lat="45.1814" lon="5.01106">
        <ele>314.88687133789</ele>
        <time>2009-12-12T14:35:05Z</time>
      </trkpt>
      <trkpt lat="45.18167" lon="5.01097">
        <ele>317.48162841797</ele>
        <time>2009-12-12T14:35:15Z</time>
      </trkpt>
      <trkpt lat="45.1819" lon="5.01089">
        <ele>318.36849975586</ele>
        <time>2009-12-12T14:35:24Z</time>
      </trkpt>
      <trkpt lat="45.18213" lon="5.01084">
        <ele>319.37564086914</ele>
        <time>2009-12-12T14:35:33Z</time>
      </trkpt>
      <trkpt lat="45.18235" lon="5.01084">
        <ele>320.04071044922</ele>
        <time>2009-12-12T14:35:41Z</time>
      </trkpt>
      <trkpt lat="45.18265" lon="5.01084">
        <ele>320.04071044922</ele>
        <time>2009-12-12T14:35:51Z</time>
      </trkpt>
      <trkpt lat="45.18301" lon="5.01084">
        <ele>320.04071044922</ele>
        <time>2009-12-12T14:36:02Z</time>
      </trkpt>
      <trkpt lat="45.18312" lon="5.01084">
        <ele>320.04071044922</ele>
        <time>2009-12-12T14:36:08Z</time>
      </trkpt>
      <trkpt lat="45.18312" lon="5.01084">
        <ele>320.04071044922</ele>
        <time>2009-12-12T14:36:10Z</time>
      </trkpt>
      <trkpt lat="45.18374" lon="5.01087">
        <ele>320.65203857422</ele>
        <time>2009-12-12T14:36:20Z</time>
      </trkpt>
      <trkpt lat="45.18402" lon="5.01088">
        <ele>321.56549072266</ele>
        <time>2009-12-12T14:36:27Z</time>
      </trkpt>
      <trkpt lat="45.18441" lon="5.01089">
        <ele>324.44421386719</ele>
        <time>2009-12-12T14:36:36Z</time>
      </trkpt>
      <trkpt lat="45.18475" lon="5.0109">
        <ele>328.98110961914</ele>
        <time>2009-12-12T14:36:44Z</time>
      </trkpt>
      <trkpt lat="45.18518" lon="5.01091">
        <ele>333.12884521484</ele>
        <time>2009-12-12T14:36:54Z</time>
      </trkpt>
      <trkpt lat="45.18557" lon="5.01092">
        <ele>337.37155151367</ele>
        <time>2009-12-12T14:37:03Z</time>
      </trkpt>
      <trkpt lat="45.18607" lon="5.01094">
        <ele>339.30917358398</ele>
        <time>2009-12-12T14:37:14Z</time>
      </trkpt>
      <trkpt lat="45.18642" lon="5.01095">
        <ele>340</ele>
        <time>2009-12-12T14:37:22Z</time>
      </trkpt>
      <trkpt lat="45.18676" lon="5.01099">
        <ele>341.00833129883</ele>
        <time>2009-12-12T14:37:30Z</time>
      </trkpt>
      <trkpt lat="45.18713" lon="5.01121">
        <ele>343.54339599609</ele>
        <time>2009-12-12T14:37:40Z</time>
      </trkpt>
      <trkpt lat="45.1873" lon="5.01142">
        <ele>344.94311523438</ele>
        <time>2009-12-12T14:37:46Z</time>
      </trkpt>
      <trkpt lat="45.18732" lon="5.01147">
        <ele>345.37054443359</ele>
        <time>2009-12-12T14:37:47Z</time>
      </trkpt>
      <trkpt lat="45.18762" lon="5.01212">
        <ele>350.48712158203</ele>
        <time>2009-12-12T14:38:00Z</time>
      </trkpt>
      <trkpt lat="45.18766" lon="5.01221">
        <ele>351.29342651367</ele>
        <time>2009-12-12T14:38:02Z</time>
      </trkpt>
      <trkpt lat="45.18784" lon="5.0126">
        <ele>352.24371337891</ele>
        <time>2009-12-12T14:38:10Z</time>
      </trkpt>
      <trkpt lat="45.18785" lon="5.01264">
        <ele>352.19216918945</ele>
        <time>2009-12-12T14:38:11Z</time>
      </trkpt>
      <trkpt lat="45.18793" lon="5.0129">
        <ele>351.64004516602</ele>
        <time>2009-12-12T14:38:16Z</time>
      </trkpt>
      <trkpt lat="45.18789" lon="5.01316">
        <ele>350.05130004883</ele>
        <time>2009-12-12T14:38:21Z</time>
      </trkpt>
      <trkpt lat="45.18789" lon="5.01316">
        <ele>350.05130004883</ele>
        <time>2009-12-12T14:38:23Z</time>
      </trkpt>
      <trkpt lat="45.18793" lon="5.01351">
        <ele>348.42218017578</ele>
        <time>2009-12-12T14:38:26Z</time>
      </trkpt>
      <trkpt lat="45.18802" lon="5.01371">
        <ele>348.39300537109</ele>
        <time>2009-12-12T14:38:30Z</time>
      </trkpt>
      <trkpt lat="45.18818" lon="5.01371">
        <ele>351.49862670898</ele>
        <time>2009-12-12T14:38:34Z</time>
      </trkpt>
      <trkpt lat="45.18831" lon="5.01367">
        <ele>354.82998657227</ele>
        <time>2009-12-12T14:38:38Z</time>
      </trkpt>
      <trkpt lat="45.1884" lon="5.01354">
        <ele>357.15942382812</ele>
        <time>2009-12-12T14:38:42Z</time>
      </trkpt>
      <trkpt lat="45.1884" lon="5.01354">
        <ele>357.15942382812</ele>
        <time>2009-12-12T14:38:43Z</time>
      </trkpt>
      <trkpt lat="45.1884" lon="5.01354">
        <ele>357.15942382812</ele>
        <time>2009-12-12T14:38:45Z</time>
      </trkpt>
      <trkpt lat="45.1885" lon="5.01317">
        <ele>360.79730224609</ele>
        <time>2009-12-12T14:38:48Z</time>
      </trkpt>
      <trkpt lat="45.18859" lon="5.01294">
        <ele>363.15463256836</ele>
        <time>2009-12-12T14:38:52Z</time>
      </trkpt>
      <trkpt lat="45.18886" lon="5.01288">
        <ele>365.43441772461</ele>
        <time>2009-12-12T14:38:57Z</time>
      </trkpt>
      <trkpt lat="45.18901" lon="5.01299">
        <ele>366.18518066406</ele>
        <time>2009-12-12T14:39:01Z</time>
      </trkpt>
      <trkpt lat="45.18906" lon="5.01306">
        <ele>366.1467590332</ele>
        <time>2009-12-12T14:39:03Z</time>
      </trkpt>
      <trkpt lat="45.18921" lon="5.01348">
        <ele>363.36535644531</ele>
        <time>2009-12-12T14:39:12Z</time>
      </trkpt>
      <trkpt lat="45.18941" lon="5.01363">
        <ele>364.42501831055</ele>
        <time>2009-12-12T14:39:18Z</time>
      </trkpt>
      <trkpt lat="45.18969" lon="5.01365">
        <ele>366.31512451172</ele>
        <time>2009-12-12T14:39:26Z</time>
      </trkpt>
      <trkpt lat="45.18993" lon="5.01363">
        <ele>368.1770324707</ele>
        <time>2009-12-12T14:39:32Z</time>
      </trkpt>
      <trkpt lat="45.19016" lon="5.01354">
        <ele>372.27520751953</ele>
        <time>2009-12-12T14:39:38Z</time>
      </trkpt>
      <trkpt lat="45.19053" lon="5.01336">
        <ele>378.46472167969</ele>
        <time>2009-12-12T14:39:46Z</time>
      </trkpt>
      <trkpt lat="45.19087" lon="5.01318">
        <ele>381.62716674805</ele>
        <time>2009-12-12T14:39:54Z</time>
      </trkpt>
      <trkpt lat="45.19117" lon="5.013">
        <ele>381.8069152832</ele>
        <time>2009-12-12T14:40:01Z</time>
      </trkpt>
      <trkpt lat="45.19131" lon="5.01294">
        <ele>381.58374023438</ele>
        <time>2009-12-12T14:40:04Z</time>
      </trkpt>
      <trkpt lat="45.19164" lon="5.01292">
        <ele>381.51507568359</ele>
        <time>2009-12-12T14:40:12Z</time>
      </trkpt>
      <trkpt lat="45.19189" lon="5.01291">
        <ele>381.46530151367</ele>
        <time>2009-12-12T14:40:19Z</time>
      </trkpt>
      <trkpt lat="45.19205" lon="5.0129">
        <ele>381.43612670898</ele>
        <time>2009-12-12T14:40:25Z</time>
      </trkpt>
      <trkpt lat="45.19213" lon="5.01285">
        <ele>381.26446533203</ele>
        <time>2009-12-12T14:40:29Z</time>
      </trkpt>
      <trkpt lat="45.19205" lon="5.01291">
        <ele>381.48248291016</ele>
        <time>2009-12-12T14:40:34Z</time>
      </trkpt>
      <trkpt lat="45.19205" lon="5.01299">
        <ele>381.78115844727</ele>
        <time>2009-12-12T14:40:38Z</time>
      </trkpt>
      <trkpt lat="45.19202" lon="5.0129">
        <ele>381.43954467773</ele>
        <time>2009-12-12T14:40:41Z</time>
      </trkpt>
      <trkpt lat="45.19192" lon="5.01291">
        <ele>381.46185302734</ele>
        <time>2009-12-12T14:40:44Z</time>
      </trkpt>
      <trkpt lat="45.19156" lon="5.01293">
        <ele>381.53051757812</ele>
        <time>2009-12-12T14:40:50Z</time>
      </trkpt>
      <trkpt lat="45.1915" lon="5.01293">
        <ele>381.54425048828</ele>
        <time>2009-12-12T14:40:51Z</time>
      </trkpt>
      <trkpt lat="45.19135" lon="5.01294">
        <ele>381.57345581055</ele>
        <time>2009-12-12T14:40:55Z</time>
      </trkpt>
      <trkpt lat="45.19131" lon="5.01294">
        <ele>381.58374023438</ele>
        <time>2009-12-12T14:40:57Z</time>
      </trkpt>
      <trkpt lat="45.1913" lon="5.01294">
        <ele>381.58374023438</ele>
        <time>2009-12-12T14:41:01Z</time>
      </trkpt>
      <trkpt lat="45.19136" lon="5.01294">
        <ele>381.57345581055</ele>
        <time>2009-12-12T14:41:05Z</time>
      </trkpt>
      <trkpt lat="45.19146" lon="5.01293">
        <ele>381.55114746094</ele>
        <time>2009-12-12T14:41:10Z</time>
      </trkpt>
      <trkpt lat="45.19156" lon="5.01293">
        <ele>381.53396606445</ele>
        <time>2009-12-12T14:41:15Z</time>
      </trkpt>
      <trkpt lat="45.19157" lon="5.01293">
        <ele>381.53051757812</ele>
        <time>2009-12-12T14:41:16Z</time>
      </trkpt>
      <trkpt lat="45.19174" lon="5.01292">
        <ele>381.49792480469</ele>
        <time>2009-12-12T14:41:24Z</time>
      </trkpt>
      <trkpt lat="45.19191" lon="5.01291">
        <ele>381.46185302734</ele>
        <time>2009-12-12T14:41:32Z</time>
      </trkpt>
      <trkpt lat="45.19202" lon="5.0129">
        <ele>381.43954467773</ele>
        <time>2009-12-12T14:41:37Z</time>
      </trkpt>
      <trkpt lat="45.1921" lon="5.01286">
        <ele>381.31079101562</ele>
        <time>2009-12-12T14:41:41Z</time>
      </trkpt>
      <trkpt lat="45.19227" lon="5.01275">
        <ele>381</ele>
        <time>2009-12-12T14:41:49Z</time>
      </trkpt>
      <trkpt lat="45.19233" lon="5.01255">
        <ele>381</ele>
        <time>2009-12-12T14:41:56Z</time>
      </trkpt>
      <trkpt lat="45.19241" lon="5.01233">
        <ele>380.384765625</ele>
        <time>2009-12-12T14:42:02Z</time>
      </trkpt>
      <trkpt lat="45.19244" lon="5.01225">
        <ele>380.08950805664</ele>
        <time>2009-12-12T14:42:04Z</time>
      </trkpt>
      <trkpt lat="45.19246" lon="5.01218">
        <ele>379.97653198242</ele>
        <time>2009-12-12T14:42:06Z</time>
      </trkpt>
      <trkpt lat="45.1925" lon="5.01204">
        <ele>380.02355957031</ele>
        <time>2009-12-12T14:42:10Z</time>
      </trkpt>
      <trkpt lat="45.1926" lon="5.01187">
        <ele>380.36090087891</ele>
        <time>2009-12-12T14:42:15Z</time>
      </trkpt>
      <trkpt lat="45.19272" lon="5.01168">
        <ele>380.78662109375</ele>
        <time>2009-12-12T14:42:20Z</time>
      </trkpt>
      <trkpt lat="45.19275" lon="5.01164">
        <ele>380.76260375977</ele>
        <time>2009-12-12T14:42:21Z</time>
      </trkpt>
      <trkpt lat="45.19282" lon="5.01153">
        <ele>380.56103515625</ele>
        <time>2009-12-12T14:42:25Z</time>
      </trkpt>
      <trkpt lat="45.19282" lon="5.01153">
        <ele>380.56103515625</ele>
        <time>2009-12-12T14:42:27Z</time>
      </trkpt>
      <trkpt lat="45.19327" lon="5.01099">
        <ele>378.65048217773</ele>
        <time>2009-12-12T14:42:35Z</time>
      </trkpt>
      <trkpt lat="45.19331" lon="5.01094">
        <ele>378.58526611328</ele>
        <time>2009-12-12T14:42:36Z</time>
      </trkpt>
      <trkpt lat="45.19346" lon="5.01075">
        <ele>378.06314086914</ele>
        <time>2009-12-12T14:42:44Z</time>
      </trkpt>
      <trkpt lat="45.1941" lon="5.01026">
        <ele>377.37322998047</ele>
        <time>2009-12-12T14:42:52Z</time>
      </trkpt>
      <trkpt lat="45.19419" lon="5.01019">
        <ele>377.51693725586</ele>
        <time>2009-12-12T14:42:54Z</time>
      </trkpt>
      <trkpt lat="45.19445" lon="5.00995">
        <ele>376.73956298828</ele>
        <time>2009-12-12T14:43:00Z</time>
      </trkpt>
      <trkpt lat="45.19469" lon="5.00964">
        <ele>377.01080322266</ele>
        <time>2009-12-12T14:43:05Z</time>
      </trkpt>
      <trkpt lat="45.19505" lon="5.00926">
        <ele>375.44198608398</ele>
        <time>2009-12-12T14:43:12Z</time>
      </trkpt>
      <trkpt lat="45.19534" lon="5.00905">
        <ele>374.07983398438</ele>
        <time>2009-12-12T14:43:18Z</time>
      </trkpt>
      <trkpt lat="45.19545" lon="5.00898">
        <ele>375.01171875</ele>
        <time>2009-12-12T14:43:21Z</time>
      </trkpt>
      <trkpt lat="45.19573" lon="5.00878">
        <ele>376.94705200195</ele>
        <time>2009-12-12T14:43:29Z</time>
      </trkpt>
      <trkpt lat="45.19599" lon="5.0086">
        <ele>377.05374145508</ele>
        <time>2009-12-12T14:43:37Z</time>
      </trkpt>
      <trkpt lat="45.19621" lon="5.00846">
        <ele>378.39678955078</ele>
        <time>2009-12-12T14:43:44Z</time>
      </trkpt>
      <trkpt lat="45.19646" lon="5.00836">
        <ele>380.89849853516</ele>
        <time>2009-12-12T14:43:51Z</time>
      </trkpt>
      <trkpt lat="45.19667" lon="5.00812">
        <ele>380.71780395508</ele>
        <time>2009-12-12T14:43:59Z</time>
      </trkpt>
      <trkpt lat="45.19684" lon="5.00781">
        <ele>379.77447509766</ele>
        <time>2009-12-12T14:44:07Z</time>
      </trkpt>
      <trkpt lat="45.19704" lon="5.0075">
        <ele>378.68640136719</ele>
        <time>2009-12-12T14:44:14Z</time>
      </trkpt>
      <trkpt lat="45.19728" lon="5.00725">
        <ele>377.9807434082</ele>
        <time>2009-12-12T14:44:20Z</time>
      </trkpt>
      <trkpt lat="45.19758" lon="5.00707">
        <ele>375.615234375</ele>
        <time>2009-12-12T14:44:26Z</time>
      </trkpt>
      <trkpt lat="45.19778" lon="5.00697">
        <ele>374.19046020508</ele>
        <time>2009-12-12T14:44:31Z</time>
      </trkpt>
      <trkpt lat="45.19801" lon="5.00687">
        <ele>372.66030883789</ele>
        <time>2009-12-12T14:44:38Z</time>
      </trkpt>
      <trkpt lat="45.19806" lon="5.00685">
        <ele>372.2991027832</ele>
        <time>2009-12-12T14:44:45Z</time>
      </trkpt>
      <trkpt lat="45.19806" lon="5.00685">
        <ele>372.2991027832</ele>
        <time>2009-12-12T14:44:48Z</time>
      </trkpt>
      <trkpt lat="45.19806" lon="5.00685">
        <ele>372.2991027832</ele>
        <time>2009-12-12T14:46:11Z</time>
      </trkpt>
      <trkpt lat="45.19825" lon="5.00691">
        <ele>371.34878540039</ele>
        <time>2009-12-12T14:46:12Z</time>
      </trkpt>
      <trkpt lat="45.19833" lon="5.00694">
        <ele>370.97113037109</ele>
        <time>2009-12-12T14:46:16Z</time>
      </trkpt>
      <trkpt lat="45.19851" lon="5.00703">
        <ele>370.6474609375</ele>
        <time>2009-12-12T14:46:22Z</time>
      </trkpt>
      <trkpt lat="45.19863" lon="5.00712">
        <ele>370.97692871094</ele>
        <time>2009-12-12T14:46:26Z</time>
      </trkpt>
      <trkpt lat="45.19889" lon="5.00733">
        <ele>374.10189819336</ele>
        <time>2009-12-12T14:46:33Z</time>
      </trkpt>
      <trkpt lat="45.19904" lon="5.00745">
        <ele>375.99630737305</ele>
        <time>2009-12-12T14:46:40Z</time>
      </trkpt>
      <trkpt lat="45.19958" lon="5.00766">
        <ele>373.32275390625</ele>
        <time>2009-12-12T14:46:47Z</time>
      </trkpt>
      <trkpt lat="45.19976" lon="5.00778">
        <ele>372.6005859375</ele>
        <time>2009-12-12T14:46:51Z</time>
      </trkpt>
      <trkpt lat="45.20008" lon="5.0081">
        <ele>370.82659912109</ele>
        <time>2009-12-12T14:46:59Z</time>
      </trkpt>
      <trkpt lat="45.20016" lon="5.00818">
        <ele>370.11370849609</ele>
        <time>2009-12-12T14:47:01Z</time>
      </trkpt>
      <trkpt lat="45.20058" lon="5.00844">
        <ele>371.09295654297</ele>
        <time>2009-12-12T14:47:09Z</time>
      </trkpt>
      <trkpt lat="45.20084" lon="5.00856">
        <ele>371.47055053711</ele>
        <time>2009-12-12T14:47:14Z</time>
      </trkpt>
      <trkpt lat="45.20125" lon="5.00883">
        <ele>375.98907470703</ele>
        <time>2009-12-12T14:47:25Z</time>
      </trkpt>
      <trkpt lat="45.2015" lon="5.00895">
        <ele>378.56161499023</ele>
        <time>2009-12-12T14:47:32Z</time>
      </trkpt>
      <trkpt lat="45.20179" lon="5.00909">
        <ele>380.86804199219</ele>
        <time>2009-12-12T14:47:41Z</time>
      </trkpt>
      <trkpt lat="45.20188" lon="5.00913">
        <ele>382.12020874023</ele>
        <time>2009-12-12T14:47:44Z</time>
      </trkpt>
      <trkpt lat="45.20209" lon="5.00923">
        <ele>383.8747253418</ele>
        <time>2009-12-12T14:47:51Z</time>
      </trkpt>
      <trkpt lat="45.20231" lon="5.00929">
        <ele>386.16741943359</ele>
        <time>2009-12-12T14:47:59Z</time>
      </trkpt>
      <trkpt lat="45.20253" lon="5.00934">
        <ele>390.72839355469</ele>
        <time>2009-12-12T14:48:06Z</time>
      </trkpt>
      <trkpt lat="45.20269" lon="5.00937">
        <ele>394.18908691406</ele>
        <time>2009-12-12T14:48:12Z</time>
      </trkpt>
      <trkpt lat="45.20281" lon="5.00948">
        <ele>396.29537963867</ele>
        <time>2009-12-12T14:48:17Z</time>
      </trkpt>
      <trkpt lat="45.20295" lon="5.00964">
        <ele>397.93246459961</ele>
        <time>2009-12-12T14:48:23Z</time>
      </trkpt>
      <trkpt lat="45.20313" lon="5.0099">
        <ele>400</ele>
        <time>2009-12-12T14:48:30Z</time>
      </trkpt>
      <trkpt lat="45.2032" lon="5.01">
        <ele>399.99880981445</ele>
        <time>2009-12-12T14:48:32Z</time>
      </trkpt>
      <trkpt lat="45.20332" lon="5.01037">
        <ele>398.48583984375</ele>
        <time>2009-12-12T14:48:37Z</time>
      </trkpt>
      <trkpt lat="45.2033" lon="5.01064">
        <ele>393.67959594727</ele>
        <time>2009-12-12T14:48:40Z</time>
      </trkpt>
      <trkpt lat="45.20327" lon="5.0107">
        <ele>392.28079223633</ele>
        <time>2009-12-12T14:48:41Z</time>
      </trkpt>
      <trkpt lat="45.20321" lon="5.01077">
        <ele>390.67755126953</ele>
        <time>2009-12-12T14:48:42Z</time>
      </trkpt>
      <trkpt lat="45.20302" lon="5.01098">
        <ele>389.13586425781</ele>
        <time>2009-12-12T14:48:45Z</time>
      </trkpt>
      <trkpt lat="45.20286" lon="5.01122">
        <ele>388.89364624023</ele>
        <time>2009-12-12T14:48:48Z</time>
      </trkpt>
      <trkpt lat="45.20286" lon="5.01133">
        <ele>388.35034179688</ele>
        <time>2009-12-12T14:48:49Z</time>
      </trkpt>
      <trkpt lat="45.2029" lon="5.01144">
        <ele>387.55795288086</ele>
        <time>2009-12-12T14:48:51Z</time>
      </trkpt>
      <trkpt lat="45.20308" lon="5.01146">
        <ele>385.33343505859</ele>
        <time>2009-12-12T14:48:53Z</time>
      </trkpt>
      <trkpt lat="45.20343" lon="5.01134">
        <ele>381.34545898438</ele>
        <time>2009-12-12T14:48:58Z</time>
      </trkpt>
      <trkpt lat="45.2037" lon="5.01113">
        <ele>378.67633056641</ele>
        <time>2009-12-12T14:49:03Z</time>
      </trkpt>
      <trkpt lat="45.20403" lon="5.01084">
        <ele>376.52709960938</ele>
        <time>2009-12-12T14:49:10Z</time>
      </trkpt>
      <trkpt lat="45.20407" lon="5.01081">
        <ele>376.21517944336</ele>
        <time>2009-12-12T14:49:11Z</time>
      </trkpt>
      <trkpt lat="45.20433" lon="5.01074">
        <ele>374.70233154297</ele>
        <time>2009-12-12T14:49:16Z</time>
      </trkpt>
      <trkpt lat="45.20441" lon="5.01084">
        <ele>373.271484375</ele>
        <time>2009-12-12T14:49:18Z</time>
      </trkpt>
      <trkpt lat="45.20444" lon="5.01093">
        <ele>372.99682617188</ele>
        <time>2009-12-12T14:49:20Z</time>
      </trkpt>
      <trkpt lat="45.20441" lon="5.011">
        <ele>373.21655273438</ele>
        <time>2009-12-12T14:49:21Z</time>
      </trkpt>
      <trkpt lat="45.20434" lon="5.01155">
        <ele>375.33197021484</ele>
        <time>2009-12-12T14:49:26Z</time>
      </trkpt>
      <trkpt lat="45.20446" lon="5.0117">
        <ele>375.07775878906</ele>
        <time>2009-12-12T14:49:28Z</time>
      </trkpt>
      <trkpt lat="45.20459" lon="5.01174">
        <ele>374.75503540039</ele>
        <time>2009-12-12T14:49:30Z</time>
      </trkpt>
      <trkpt lat="45.20481" lon="5.01174">
        <ele>373.95852661133</ele>
        <time>2009-12-12T14:49:33Z</time>
      </trkpt>
      <trkpt lat="45.20509" lon="5.01179">
        <ele>373.1311340332</ele>
        <time>2009-12-12T14:49:37Z</time>
      </trkpt>
      <trkpt lat="45.2056" lon="5.01199">
        <ele>373.39987182617</ele>
        <time>2009-12-12T14:49:44Z</time>
      </trkpt>
      <trkpt lat="45.20586" lon="5.01213">
        <ele>374.50372314453</ele>
        <time>2009-12-12T14:49:48Z</time>
      </trkpt>
      <trkpt lat="45.20612" lon="5.01231">
        <ele>375.54406738281</ele>
        <time>2009-12-12T14:49:52Z</time>
      </trkpt>
      <trkpt lat="45.20655" lon="5.01293">
        <ele>377.84930419922</ele>
        <time>2009-12-12T14:50:01Z</time>
      </trkpt>
      <trkpt lat="45.20679" lon="5.01345">
        <ele>378.80764770508</ele>
        <time>2009-12-12T14:50:07Z</time>
      </trkpt>
      <trkpt lat="45.20703" lon="5.01368">
        <ele>377.44400024414</ele>
        <time>2009-12-12T14:50:11Z</time>
      </trkpt>
      <trkpt lat="45.20737" lon="5.01394">
        <ele>373.37814331055</ele>
        <time>2009-12-12T14:50:16Z</time>
      </trkpt>
      <trkpt lat="45.20766" lon="5.01417">
        <ele>370.08502197266</ele>
        <time>2009-12-12T14:50:20Z</time>
      </trkpt>
      <trkpt lat="45.20802" lon="5.01446">
        <ele>365.85968017578</ele>
        <time>2009-12-12T14:50:25Z</time>
      </trkpt>
      <trkpt lat="45.20852" lon="5.01479">
        <ele>364.06796264648</ele>
        <time>2009-12-12T14:50:32Z</time>
      </trkpt>
      <trkpt lat="45.20893" lon="5.01503">
        <ele>362.23767089844</ele>
        <time>2009-12-12T14:50:38Z</time>
      </trkpt>
      <trkpt lat="45.20937" lon="5.01527">
        <ele>361.93896484375</ele>
        <time>2009-12-12T14:50:45Z</time>
      </trkpt>
      <trkpt lat="45.20958" lon="5.01552">
        <ele>362.25146484375</ele>
        <time>2009-12-12T14:50:50Z</time>
      </trkpt>
      <trkpt lat="45.2096" lon="5.01557">
        <ele>362.49771118164</ele>
        <time>2009-12-12T14:50:51Z</time>
      </trkpt>
      <trkpt lat="45.2098" lon="5.01615">
        <ele>365.83074951172</ele>
        <time>2009-12-12T14:50:59Z</time>
      </trkpt>
      <trkpt lat="45.20995" lon="5.01674">
        <ele>370.69787597656</ele>
        <time>2009-12-12T14:51:07Z</time>
      </trkpt>
      <trkpt lat="45.21001" lon="5.01714">
        <ele>373.06970214844</ele>
        <time>2009-12-12T14:51:12Z</time>
      </trkpt>
      <trkpt lat="45.21011" lon="5.01753">
        <ele>375.89776611328</ele>
        <time>2009-12-12T14:51:17Z</time>
      </trkpt>
      <trkpt lat="45.21025" lon="5.01767">
        <ele>376.90884399414</ele>
        <time>2009-12-12T14:51:20Z</time>
      </trkpt>
      <trkpt lat="45.21062" lon="5.01782">
        <ele>376.80026245117</ele>
        <time>2009-12-12T14:51:27Z</time>
      </trkpt>
      <trkpt lat="45.21106" lon="5.01788">
        <ele>376.0143737793</ele>
        <time>2009-12-12T14:51:35Z</time>
      </trkpt>
      <trkpt lat="45.21123" lon="5.0179">
        <ele>372.81704711914</ele>
        <time>2009-12-12T14:51:38Z</time>
      </trkpt>
      <trkpt lat="45.21149" lon="5.018">
        <ele>368.86151123047</ele>
        <time>2009-12-12T14:51:43Z</time>
      </trkpt>
      <trkpt lat="45.21162" lon="5.01822">
        <ele>370.24038696289</ele>
        <time>2009-12-12T14:51:47Z</time>
      </trkpt>
      <trkpt lat="45.21169" lon="5.01847">
        <ele>371.57089233398</ele>
        <time>2009-12-12T14:51:51Z</time>
      </trkpt>
      <trkpt lat="45.21169" lon="5.01888">
        <ele>375.19717407227</ele>
        <time>2009-12-12T14:51:57Z</time>
      </trkpt>
      <trkpt lat="45.21168" lon="5.0194">
        <ele>380.36657714844</ele>
        <time>2009-12-12T14:52:03Z</time>
      </trkpt>
      <trkpt lat="45.21166" lon="5.02009">
        <ele>382.04724121094</ele>
        <time>2009-12-12T14:52:10Z</time>
      </trkpt>
      <trkpt lat="45.21165" lon="5.02031">
        <ele>382.12963867188</ele>
        <time>2009-12-12T14:52:12Z</time>
      </trkpt>
      <trkpt lat="45.21163" lon="5.0208">
        <ele>379.77166748047</ele>
        <time>2009-12-12T14:52:16Z</time>
      </trkpt>
      <trkpt lat="45.21162" lon="5.02092">
        <ele>378.82635498047</ele>
        <time>2009-12-12T14:52:17Z</time>
      </trkpt>
      <trkpt lat="45.21162" lon="5.02117">
        <ele>376.91442871094</ele>
        <time>2009-12-12T14:52:19Z</time>
      </trkpt>
      <trkpt lat="45.21165" lon="5.02138">
        <ele>374.30859375</ele>
        <time>2009-12-12T14:52:21Z</time>
      </trkpt>
      <trkpt lat="45.21178" lon="5.0215">
        <ele>371.88061523438</ele>
        <time>2009-12-12T14:52:23Z</time>
      </trkpt>
      <trkpt lat="45.21186" lon="5.02151">
        <ele>370.68090820312</ele>
        <time>2009-12-12T14:52:24Z</time>
      </trkpt>
      <trkpt lat="45.21202" lon="5.02155">
        <ele>368.26098632812</ele>
        <time>2009-12-12T14:52:26Z</time>
      </trkpt>
      <trkpt lat="45.21242" lon="5.0217">
        <ele>364.50161743164</ele>
        <time>2009-12-12T14:52:31Z</time>
      </trkpt>
      <trkpt lat="45.21284" lon="5.02201">
        <ele>362.85021972656</ele>
        <time>2009-12-12T14:52:37Z</time>
      </trkpt>
      <trkpt lat="45.2132" lon="5.02224">
        <ele>360.0862121582</ele>
        <time>2009-12-12T14:52:42Z</time>
      </trkpt>
      <trkpt lat="45.21353" lon="5.02227">
        <ele>359.32141113281</ele>
        <time>2009-12-12T14:52:46Z</time>
      </trkpt>
      <trkpt lat="45.21368" lon="5.0222">
        <ele>359</ele>
        <time>2009-12-12T14:52:48Z</time>
      </trkpt>
      <trkpt lat="45.21415" lon="5.02194">
        <ele>359</ele>
        <time>2009-12-12T14:52:54Z</time>
      </trkpt>
      <trkpt lat="45.21457" lon="5.02175">
        <ele>359</ele>
        <time>2009-12-12T14:52:59Z</time>
      </trkpt>
      <trkpt lat="45.21519" lon="5.02157">
        <ele>357.59814453125</ele>
        <time>2009-12-12T14:53:06Z</time>
      </trkpt>
      <trkpt lat="45.21564" lon="5.02147">
        <ele>354.96398925781</ele>
        <time>2009-12-12T14:53:11Z</time>
      </trkpt>
      <trkpt lat="45.21594" lon="5.02124">
        <ele>352.9296875</ele>
        <time>2009-12-12T14:53:15Z</time>
      </trkpt>
      <trkpt lat="45.21598" lon="5.02116">
        <ele>352.35290527344</ele>
        <time>2009-12-12T14:53:16Z</time>
      </trkpt>
      <trkpt lat="45.21613" lon="5.02086">
        <ele>351.09881591797</ele>
        <time>2009-12-12T14:53:19Z</time>
      </trkpt>
      <trkpt lat="45.21649" lon="5.02043">
        <ele>347.76770019531</ele>
        <time>2009-12-12T14:53:24Z</time>
      </trkpt>
      <trkpt lat="45.21682" lon="5.02018">
        <ele>345.50445556641</ele>
        <time>2009-12-12T14:53:28Z</time>
      </trkpt>
      <trkpt lat="45.2169" lon="5.02012">
        <ele>345.14739990234</ele>
        <time>2009-12-12T14:53:29Z</time>
      </trkpt>
      <trkpt lat="45.21714" lon="5.01994">
        <ele>345.00759887695</ele>
        <time>2009-12-12T14:53:32Z</time>
      </trkpt>
      <trkpt lat="45.21737" lon="5.01978">
        <ele>345.93109130859</ele>
        <time>2009-12-12T14:53:35Z</time>
      </trkpt>
      <trkpt lat="45.21744" lon="5.01972">
        <ele>346.33279418945</ele>
        <time>2009-12-12T14:53:36Z</time>
      </trkpt>
      <trkpt lat="45.21751" lon="5.01967">
        <ele>346.52001953125</ele>
        <time>2009-12-12T14:53:37Z</time>
      </trkpt>
      <trkpt lat="45.21797" lon="5.01933">
        <ele>345.88153076172</ele>
        <time>2009-12-12T14:53:44Z</time>
      </trkpt>
      <trkpt lat="45.2183" lon="5.01915">
        <ele>347.50253295898</ele>
        <time>2009-12-12T14:53:49Z</time>
      </trkpt>
      <trkpt lat="45.21836" lon="5.01913">
        <ele>347.52813720703</ele>
        <time>2009-12-12T14:53:50Z</time>
      </trkpt>
      <trkpt lat="45.21868" lon="5.01908">
        <ele>346.35998535156</ele>
        <time>2009-12-12T14:53:55Z</time>
      </trkpt>
      <trkpt lat="45.21873" lon="5.01911">
        <ele>346.60717773438</ele>
        <time>2009-12-12T14:53:56Z</time>
      </trkpt>
      <trkpt lat="45.21881" lon="5.01922">
        <ele>347.24786376953</ele>
        <time>2009-12-12T14:53:58Z</time>
      </trkpt>
      <trkpt lat="45.21893" lon="5.01947">
        <ele>348.59167480469</ele>
        <time>2009-12-12T14:54:02Z</time>
      </trkpt>
      <trkpt lat="45.21907" lon="5.02003">
        <ele>352.90405273438</ele>
        <time>2009-12-12T14:54:09Z</time>
      </trkpt>
      <trkpt lat="45.21921" lon="5.02061">
        <ele>356.38409423828</ele>
        <time>2009-12-12T14:54:16Z</time>
      </trkpt>
      <trkpt lat="45.21929" lon="5.02094">
        <ele>358.38681030273</ele>
        <time>2009-12-12T14:54:20Z</time>
      </trkpt>
      <trkpt lat="45.21949" lon="5.02124">
        <ele>361.19982910156</ele>
        <time>2009-12-12T14:54:25Z</time>
      </trkpt>
      <trkpt lat="45.2196" lon="5.02127">
        <ele>363.185546875</ele>
        <time>2009-12-12T14:54:27Z</time>
      </trkpt>
      <trkpt lat="45.21969" lon="5.02124">
        <ele>364.31716918945</ele>
        <time>2009-12-12T14:54:29Z</time>
      </trkpt>
      <trkpt lat="45.22001" lon="5.02113">
        <ele>372.20031738281</ele>
        <time>2009-12-12T14:54:36Z</time>
      </trkpt>
      <trkpt lat="45.22029" lon="5.02104">
        <ele>373.93975830078</ele>
        <time>2009-12-12T14:54:43Z</time>
      </trkpt>
      <trkpt lat="45.22046" lon="5.02085">
        <ele>376.99188232422</ele>
        <time>2009-12-12T14:54:49Z</time>
      </trkpt>
      <trkpt lat="45.22048" lon="5.02059">
        <ele>375.03460693359</ele>
        <time>2009-12-12T14:54:54Z</time>
      </trkpt>
      <trkpt lat="45.22052" lon="5.02033">
        <ele>374.5087890625</ele>
        <time>2009-12-12T14:54:59Z</time>
      </trkpt>
      <trkpt lat="45.22066" lon="5.02003">
        <ele>374.91876220703</ele>
        <time>2009-12-12T14:55:05Z</time>
      </trkpt>
      <trkpt lat="45.22092" lon="5.01978">
        <ele>378.7971496582</ele>
        <time>2009-12-12T14:55:13Z</time>
      </trkpt>
      <trkpt lat="45.22097" lon="5.01972">
        <ele>378.9833984375</ele>
        <time>2009-12-12T14:55:15Z</time>
      </trkpt>
      <trkpt lat="45.22099" lon="5.01952">
        <ele>377.72338867188</ele>
        <time>2009-12-12T14:55:19Z</time>
      </trkpt>
      <trkpt lat="45.22104" lon="5.0191">
        <ele>376.23159790039</ele>
        <time>2009-12-12T14:55:27Z</time>
      </trkpt>
      <trkpt lat="45.2211" lon="5.01878">
        <ele>375.12219238281</ele>
        <time>2009-12-12T14:55:33Z</time>
      </trkpt>
      <trkpt lat="45.22133" lon="5.0185">
        <ele>374.89611816406</ele>
        <time>2009-12-12T14:55:40Z</time>
      </trkpt>
      <trkpt lat="45.22164" lon="5.01827">
        <ele>374.44805908203</ele>
        <time>2009-12-12T14:55:49Z</time>
      </trkpt>
      <trkpt lat="45.22193" lon="5.01816">
        <ele>374.6630859375</ele>
        <time>2009-12-12T14:55:56Z</time>
      </trkpt>
      <trkpt lat="45.22213" lon="5.01822">
        <ele>377.30822753906</ele>
        <time>2009-12-12T14:56:01Z</time>
      </trkpt>
      <trkpt lat="45.22219" lon="5.01828">
        <ele>378.89987182617</ele>
        <time>2009-12-12T14:56:03Z</time>
      </trkpt>
      <trkpt lat="45.22234" lon="5.01844">
        <ele>381.99465942383</ele>
        <time>2009-12-12T14:56:11Z</time>
      </trkpt>
      <trkpt lat="45.22258" lon="5.01851">
        <ele>384.63244628906</ele>
        <time>2009-12-12T14:56:15Z</time>
      </trkpt>
      <trkpt lat="45.22274" lon="5.0184">
        <ele>382.81796264648</ele>
        <time>2009-12-12T14:56:20Z</time>
      </trkpt>
      <trkpt lat="45.22312" lon="5.01815">
        <ele>384.70422363281</ele>
        <time>2009-12-12T14:56:31Z</time>
      </trkpt>
      <trkpt lat="45.22339" lon="5.01805">
        <ele>385.19494628906</ele>
        <time>2009-12-12T14:56:38Z</time>
      </trkpt>
      <trkpt lat="45.22342" lon="5.01805">
        <ele>385.25329589844</ele>
        <time>2009-12-12T14:56:45Z</time>
      </trkpt>
      <trkpt lat="45.22391" lon="5.01822">
        <ele>391.38507080078</ele>
        <time>2009-12-12T14:56:52Z</time>
      </trkpt>
      <trkpt lat="45.22412" lon="5.01815">
        <ele>393.78128051758</ele>
        <time>2009-12-12T14:56:58Z</time>
      </trkpt>
      <trkpt lat="45.22429" lon="5.01807">
        <ele>394.96063232422</ele>
        <time>2009-12-12T14:57:03Z</time>
      </trkpt>
      <trkpt lat="45.22458" lon="5.01794">
        <ele>396.77941894531</ele>
        <time>2009-12-12T14:57:11Z</time>
      </trkpt>
      <trkpt lat="45.22464" lon="5.01789">
        <ele>397.19277954102</ele>
        <time>2009-12-12T14:57:13Z</time>
      </trkpt>
      <trkpt lat="45.22482" lon="5.01752">
        <ele>398.34906005859</ele>
        <time>2009-12-12T14:57:21Z</time>
      </trkpt>
      <trkpt lat="45.22484" lon="5.01748">
        <ele>398.38446044922</ele>
        <time>2009-12-12T14:57:22Z</time>
      </trkpt>
      <trkpt lat="45.22516" lon="5.01718">
        <ele>399.58502197266</ele>
        <time>2009-12-12T14:57:31Z</time>
      </trkpt>
      <trkpt lat="45.22537" lon="5.01703">
        <ele>399.89779663086</ele>
        <time>2009-12-12T14:57:37Z</time>
      </trkpt>
      <trkpt lat="45.22546" lon="5.01699">
        <ele>399.90191650391</ele>
        <time>2009-12-12T14:57:41Z</time>
      </trkpt>
      <trkpt lat="45.22558" lon="5.01694">
        <ele>399.91851806641</ele>
        <time>2009-12-12T14:57:47Z</time>
      </trkpt>
      <trkpt lat="45.2257" lon="5.01694">
        <ele>399.4967956543</ele>
        <time>2009-12-12T14:57:55Z</time>
      </trkpt>
      <trkpt lat="45.22573" lon="5.01695">
        <ele>399.3669128418</ele>
        <time>2009-12-12T14:57:57Z</time>
      </trkpt>
      <trkpt lat="45.22584" lon="5.01696">
        <ele>398.97052001953</ele>
        <time>2009-12-12T14:58:04Z</time>
      </trkpt>
      <trkpt lat="45.22589" lon="5.01696">
        <ele>398.80572509766</ele>
        <time>2009-12-12T14:58:07Z</time>
      </trkpt>
      <trkpt lat="45.2259" lon="5.01696">
        <ele>398.75079345703</ele>
        <time>2009-12-12T14:58:08Z</time>
      </trkpt>
      <trkpt lat="45.22593" lon="5.01697">
        <ele>398.65466308594</ele>
        <time>2009-12-12T14:58:10Z</time>
      </trkpt>
      <trkpt lat="45.22599" lon="5.01697">
        <ele>398.42120361328</ele>
        <time>2009-12-12T14:58:16Z</time>
      </trkpt>
      <trkpt lat="45.22599" lon="5.01697">
        <ele>398.42120361328</ele>
        <time>2009-12-12T14:58:19Z</time>
      </trkpt>
      <trkpt lat="45.22598" lon="5.01701">
        <ele>398.47613525391</ele>
        <time>2009-12-12T14:58:25Z</time>
      </trkpt>
      <trkpt lat="45.22597" lon="5.01701">
        <ele>398.50360107422</ele>
        <time>2009-12-12T14:58:26Z</time>
      </trkpt>
      <trkpt lat="45.22599" lon="5.01697">
        <ele>398.42120361328</ele>
        <time>2009-12-12T14:58:33Z</time>
      </trkpt>
      <trkpt lat="45.22599" lon="5.01697">
        <ele>398.42120361328</ele>
        <time>2009-12-12T14:58:35Z</time>
      </trkpt>
      <trkpt lat="45.22603" lon="5.01696">
        <ele>398.28387451172</ele>
        <time>2009-12-12T14:59:00Z</time>
      </trkpt>
      <trkpt lat="45.22606" lon="5.01695">
        <ele>398.17401123047</ele>
        <time>2009-12-12T14:59:03Z</time>
      </trkpt>
      <trkpt lat="45.22621" lon="5.01688">
        <ele>398.14584350586</ele>
        <time>2009-12-12T14:59:11Z</time>
      </trkpt>
      <trkpt lat="45.22636" lon="5.01664">
        <ele>398.1257019043</ele>
        <time>2009-12-12T14:59:17Z</time>
      </trkpt>
      <trkpt lat="45.22642" lon="5.01655">
        <ele>397.89685058594</ele>
        <time>2009-12-12T14:59:19Z</time>
      </trkpt>
      <trkpt lat="45.22668" lon="5.01612">
        <ele>395.91400146484</ele>
        <time>2009-12-12T14:59:27Z</time>
      </trkpt>
      <trkpt lat="45.22695" lon="5.01565">
        <ele>391.93161010742</ele>
        <time>2009-12-12T14:59:35Z</time>
      </trkpt>
      <trkpt lat="45.22718" lon="5.01516">
        <ele>387.42565917969</ele>
        <time>2009-12-12T14:59:42Z</time>
      </trkpt>
      <trkpt lat="45.22732" lon="5.01485">
        <ele>384.75509643555</ele>
        <time>2009-12-12T14:59:46Z</time>
      </trkpt>
      <trkpt lat="45.22754" lon="5.01429">
        <ele>380.2483215332</ele>
        <time>2009-12-12T14:59:52Z</time>
      </trkpt>
      <trkpt lat="45.22775" lon="5.01372">
        <ele>378.37838745117</ele>
        <time>2009-12-12T14:59:57Z</time>
      </trkpt>
      <trkpt lat="45.22789" lon="5.01334">
        <ele>378</ele>
        <time>2009-12-12T15:00:00Z</time>
      </trkpt>
      <trkpt lat="45.22807" lon="5.01279">
        <ele>377.90100097656</ele>
        <time>2009-12-12T15:00:04Z</time>
      </trkpt>
      <trkpt lat="45.22814" lon="5.01238">
        <ele>376.40661621094</ele>
        <time>2009-12-12T15:00:10Z</time>
      </trkpt>
      <trkpt lat="45.22827" lon="5.0111">
        <ele>373.70916748047</ele>
        <time>2009-12-12T15:00:17Z</time>
      </trkpt>
      <trkpt lat="45.2283" lon="5.01055">
        <ele>372.50610351562</ele>
        <time>2009-12-12T15:00:19Z</time>
      </trkpt>
      <trkpt lat="45.22834" lon="5.00983">
        <ele>375.16809082031</ele>
        <time>2009-12-12T15:00:25Z</time>
      </trkpt>
      <trkpt lat="45.22837" lon="5.00935">
        <ele>379.45367431641</ele>
        <time>2009-12-12T15:00:30Z</time>
      </trkpt>
      <trkpt lat="45.22838" lon="5.00912">
        <ele>381.18383789062</ele>
        <time>2009-12-12T15:00:33Z</time>
      </trkpt>
      <trkpt lat="45.22839" lon="5.00896">
        <ele>382.83865356445</ele>
        <time>2009-12-12T15:00:36Z</time>
      </trkpt>
      <trkpt lat="45.22831" lon="5.0089">
        <ele>384.02139282227</ele>
        <time>2009-12-12T15:00:39Z</time>
      </trkpt>
      <trkpt lat="45.22816" lon="5.00896">
        <ele>384.45056152344</ele>
        <time>2009-12-12T15:00:45Z</time>
      </trkpt>
      <trkpt lat="45.22804" lon="5.00901">
        <ele>384.74508666992</ele>
        <time>2009-12-12T15:00:51Z</time>
      </trkpt>
      <trkpt lat="45.22787" lon="5.00908">
        <ele>385.02719116211</ele>
        <time>2009-12-12T15:00:57Z</time>
      </trkpt>
      <trkpt lat="45.22773" lon="5.00914">
        <ele>385.37371826172</ele>
        <time>2009-12-12T15:01:03Z</time>
      </trkpt>
      <trkpt lat="45.22756" lon="5.00921">
        <ele>385.45733642578</ele>
        <time>2009-12-12T15:01:09Z</time>
      </trkpt>
      <trkpt lat="45.2273" lon="5.00932">
        <ele>385.6083984375</ele>
        <time>2009-12-12T15:01:17Z</time>
      </trkpt>
      <trkpt lat="45.22708" lon="5.00941">
        <ele>385.73883056641</ele>
        <time>2009-12-12T15:01:24Z</time>
      </trkpt>
      <trkpt lat="45.22683" lon="5.00951">
        <ele>385.30187988281</ele>
        <time>2009-12-12T15:01:30Z</time>
      </trkpt>
      <trkpt lat="45.22668" lon="5.00952">
        <ele>385.20401000977</ele>
        <time>2009-12-12T15:01:33Z</time>
      </trkpt>
      <trkpt lat="45.22622" lon="5.00955">
        <ele>385.54043579102</ele>
        <time>2009-12-12T15:01:41Z</time>
      </trkpt>
      <trkpt lat="45.22573" lon="5.00944">
        <ele>388.05297851562</ele>
        <time>2009-12-12T15:01:49Z</time>
      </trkpt>
      <trkpt lat="45.22557" lon="5.00939">
        <ele>388.39974975586</ele>
        <time>2009-12-12T15:01:52Z</time>
      </trkpt>
      <trkpt lat="45.22546" lon="5.00936">
        <ele>388.29284667969</ele>
        <time>2009-12-12T15:01:54Z</time>
      </trkpt>
      <trkpt lat="45.2251" lon="5.00918">
        <ele>388.26879882812</ele>
        <time>2009-12-12T15:02:01Z</time>
      </trkpt>
      <trkpt lat="45.22471" lon="5.0089">
        <ele>387.75143432617</ele>
        <time>2009-12-12T15:02:09Z</time>
      </trkpt>
      <trkpt lat="45.22449" lon="5.00866">
        <ele>385.57693481445</ele>
        <time>2009-12-12T15:02:14Z</time>
      </trkpt>
      <trkpt lat="45.22415" lon="5.00826">
        <ele>383.14440917969</ele>
        <time>2009-12-12T15:02:22Z</time>
      </trkpt>
      <trkpt lat="45.22389" lon="5.00797">
        <ele>381.99114990234</ele>
        <time>2009-12-12T15:02:28Z</time>
      </trkpt>
      <trkpt lat="45.22363" lon="5.00775">
        <ele>377.390625</ele>
        <time>2009-12-12T15:02:33Z</time>
      </trkpt>
      <trkpt lat="45.22333" lon="5.00748">
        <ele>367.94580078125</ele>
        <time>2009-12-12T15:02:37Z</time>
      </trkpt>
      <trkpt lat="45.22317" lon="5.00726">
        <ele>363.33154296875</ele>
        <time>2009-12-12T15:02:40Z</time>
      </trkpt>
      <trkpt lat="45.22321" lon="5.00703">
        <ele>364.94738769531</ele>
        <time>2009-12-12T15:02:42Z</time>
      </trkpt>
      <trkpt lat="45.22329" lon="5.00689">
        <ele>367.05297851562</ele>
        <time>2009-12-12T15:02:45Z</time>
      </trkpt>
      <trkpt lat="45.22379" lon="5.00645">
        <ele>381.71109008789</ele>
        <time>2009-12-12T15:02:52Z</time>
      </trkpt>
      <trkpt lat="45.22403" lon="5.00621">
        <ele>386.35522460938</ele>
        <time>2009-12-12T15:02:57Z</time>
      </trkpt>
      <trkpt lat="45.22407" lon="5.00604">
        <ele>386.97647094727</ele>
        <time>2009-12-12T15:02:59Z</time>
      </trkpt>
      <trkpt lat="45.22411" lon="5.00532">
        <ele>386.68603515625</ele>
        <time>2009-12-12T15:03:08Z</time>
      </trkpt>
      <trkpt lat="45.22411" lon="5.00508">
        <ele>384.68432617188</ele>
        <time>2009-12-12T15:03:11Z</time>
      </trkpt>
      <trkpt lat="45.22423" lon="5.00466">
        <ele>383.31329345703</ele>
        <time>2009-12-12T15:03:16Z</time>
      </trkpt>
      <trkpt lat="45.22437" lon="5.00446">
        <ele>384.52767944336</ele>
        <time>2009-12-12T15:03:19Z</time>
      </trkpt>
      <trkpt lat="45.22471" lon="5.00426">
        <ele>394.29724121094</ele>
        <time>2009-12-12T15:03:25Z</time>
      </trkpt>
      <trkpt lat="45.22498" lon="5.00405">
        <ele>398.21725463867</ele>
        <time>2009-12-12T15:03:30Z</time>
      </trkpt>
      <trkpt lat="45.22507" lon="5.00377">
        <ele>397.11334228516</ele>
        <time>2009-12-12T15:03:34Z</time>
      </trkpt>
      <trkpt lat="45.22508" lon="5.00352">
        <ele>395.11013793945</ele>
        <time>2009-12-12T15:03:37Z</time>
      </trkpt>
      <trkpt lat="45.22506" lon="5.00344">
        <ele>393.94970703125</ele>
        <time>2009-12-12T15:03:38Z</time>
      </trkpt>
      <trkpt lat="45.22479" lon="5.00267">
        <ele>382.57730102539</ele>
        <time>2009-12-12T15:03:46Z</time>
      </trkpt>
      <trkpt lat="45.22455" lon="5.00221">
        <ele>375.25540161133</ele>
        <time>2009-12-12T15:03:51Z</time>
      </trkpt>
      <trkpt lat="45.22422" lon="5.00176">
        <ele>378.44564819336</ele>
        <time>2009-12-12T15:03:57Z</time>
      </trkpt>
      <trkpt lat="45.22364" lon="5.00116">
        <ele>380</ele>
        <time>2009-12-12T15:04:07Z</time>
      </trkpt>
      <trkpt lat="45.22322" lon="5.00071">
        <ele>378.45529174805</ele>
        <time>2009-12-12T15:04:16Z</time>
      </trkpt>
      <trkpt lat="45.22288" lon="5.00036">
        <ele>373.19735717773</ele>
        <time>2009-12-12T15:04:24Z</time>
      </trkpt>
      <trkpt lat="45.22255" lon="5.00001">
        <ele>364.86318969727</ele>
        <time>2009-12-12T15:04:31Z</time>
      </trkpt>
      <trkpt lat="45.22212" lon="4.99958">
        <ele>360.98226928711</ele>
        <time>2009-12-12T15:04:39Z</time>
      </trkpt>
      <trkpt lat="45.22201" lon="4.99931">
        <ele>359.79656982422</ele>
        <time>2009-12-12T15:04:42Z</time>
      </trkpt>
      <trkpt lat="45.22205" lon="4.99911">
        <ele>360.70867919922</ele>
        <time>2009-12-12T15:04:44Z</time>
      </trkpt>
      <trkpt lat="45.22211" lon="4.99882">
        <ele>358.986328125</ele>
        <time>2009-12-12T15:04:47Z</time>
      </trkpt>
      <trkpt lat="45.22231" lon="4.99852">
        <ele>358.38726806641</ele>
        <time>2009-12-12T15:04:51Z</time>
      </trkpt>
      <trkpt lat="45.22236" lon="4.99846">
        <ele>358.16299438477</ele>
        <time>2009-12-12T15:04:52Z</time>
      </trkpt>
      <trkpt lat="45.22278" lon="4.99811">
        <ele>357.23471069336</ele>
        <time>2009-12-12T15:05:00Z</time>
      </trkpt>
      <trkpt lat="45.22323" lon="4.99784">
        <ele>356.85607910156</ele>
        <time>2009-12-12T15:05:08Z</time>
      </trkpt>
      <trkpt lat="45.22346" lon="4.99771">
        <ele>355.80816650391</ele>
        <time>2009-12-12T15:05:12Z</time>
      </trkpt>
      <trkpt lat="45.2236" lon="4.99756">
        <ele>354.12783813477</ele>
        <time>2009-12-12T15:05:15Z</time>
      </trkpt>
      <trkpt lat="45.22374" lon="4.99734">
        <ele>352.73416137695</ele>
        <time>2009-12-12T15:05:19Z</time>
      </trkpt>
      <trkpt lat="45.22372" lon="4.9971">
        <ele>351.54000854492</ele>
        <time>2009-12-12T15:05:22Z</time>
      </trkpt>
      <trkpt lat="45.22367" lon="4.99691">
        <ele>350.4186706543</ele>
        <time>2009-12-12T15:05:24Z</time>
      </trkpt>
      <trkpt lat="45.22345" lon="4.99631">
        <ele>350.38363647461</ele>
        <time>2009-12-12T15:05:30Z</time>
      </trkpt>
      <trkpt lat="45.2233" lon="4.99592">
        <ele>352.08465576172</ele>
        <time>2009-12-12T15:05:34Z</time>
      </trkpt>
      <trkpt lat="45.22326" lon="4.99584">
        <ele>352.20513916016</ele>
        <time>2009-12-12T15:05:35Z</time>
      </trkpt>
      <trkpt lat="45.22307" lon="4.9954">
        <ele>355.55020141602</ele>
        <time>2009-12-12T15:05:42Z</time>
      </trkpt>
      <trkpt lat="45.22287" lon="4.99508">
        <ele>357.52621459961</ele>
        <time>2009-12-12T15:05:48Z</time>
      </trkpt>
      <trkpt lat="45.22275" lon="4.99488">
        <ele>359.58441162109</ele>
        <time>2009-12-12T15:05:52Z</time>
      </trkpt>
      <trkpt lat="45.22261" lon="4.99466">
        <ele>361.95980834961</ele>
        <time>2009-12-12T15:05:57Z</time>
      </trkpt>
      <trkpt lat="45.22243" lon="4.99435">
        <ele>364.4814453125</ele>
        <time>2009-12-12T15:06:04Z</time>
      </trkpt>
      <trkpt lat="45.22227" lon="4.99408">
        <ele>364.95816040039</ele>
        <time>2009-12-12T15:06:10Z</time>
      </trkpt>
      <trkpt lat="45.2221" lon="4.99379">
        <ele>363.84820556641</ele>
        <time>2009-12-12T15:06:16Z</time>
      </trkpt>
      <trkpt lat="45.22204" lon="4.99368">
        <ele>363.32867431641</ele>
        <time>2009-12-12T15:06:18Z</time>
      </trkpt>
      <trkpt lat="45.22197" lon="4.99356">
        <ele>362.70678710938</ele>
        <time>2009-12-12T15:06:21Z</time>
      </trkpt>
      <trkpt lat="45.22189" lon="4.99373">
        <ele>359.41192626953</ele>
        <time>2009-12-12T15:06:24Z</time>
      </trkpt>
      <trkpt lat="45.22175" lon="4.99408">
        <ele>353.41848754883</ele>
        <time>2009-12-12T15:06:29Z</time>
      </trkpt>
      <trkpt lat="45.22169" lon="4.99424">
        <ele>350.69821166992</ele>
        <time>2009-12-12T15:06:31Z</time>
      </trkpt>
      <trkpt lat="45.22155" lon="4.99458">
        <ele>345.72775268555</ele>
        <time>2009-12-12T15:06:35Z</time>
      </trkpt>
      <trkpt lat="45.2216" lon="4.99489">
        <ele>343.54974365234</ele>
        <time>2009-12-12T15:06:38Z</time>
      </trkpt>
      <trkpt lat="45.22166" lon="4.99495">
        <ele>343.45788574219</ele>
        <time>2009-12-12T15:06:39Z</time>
      </trkpt>
      <trkpt lat="45.22188" lon="4.99511">
        <ele>345.16949462891</ele>
        <time>2009-12-12T15:06:42Z</time>
      </trkpt>
      <trkpt lat="45.22213" lon="4.99542">
        <ele>345.26831054688</ele>
        <time>2009-12-12T15:06:46Z</time>
      </trkpt>
      <trkpt lat="45.2223" lon="4.99583">
        <ele>342.3313293457</ele>
        <time>2009-12-12T15:06:50Z</time>
      </trkpt>
      <trkpt lat="45.22227" lon="4.99618">
        <ele>341.39044189453</ele>
        <time>2009-12-12T15:06:53Z</time>
      </trkpt>
      <trkpt lat="45.22226" lon="4.99629">
        <ele>341.07418823242</ele>
        <time>2009-12-12T15:06:54Z</time>
      </trkpt>
      <trkpt lat="45.22214" lon="4.99655">
        <ele>339.60140991211</ele>
        <time>2009-12-12T15:06:57Z</time>
      </trkpt>
      <trkpt lat="45.22186" lon="4.99691">
        <ele>338.87783813477</ele>
        <time>2009-12-12T15:07:02Z</time>
      </trkpt>
      <trkpt lat="45.22129" lon="4.99726">
        <ele>337.32699584961</ele>
        <time>2009-12-12T15:07:10Z</time>
      </trkpt>
      <trkpt lat="45.22103" lon="4.99752">
        <ele>337.23629760742</ele>
        <time>2009-12-12T15:07:14Z</time>
      </trkpt>
      <trkpt lat="45.22092" lon="4.99771">
        <ele>336.98239135742</ele>
        <time>2009-12-12T15:07:16Z</time>
      </trkpt>
      <trkpt lat="45.2206" lon="4.99848">
        <ele>334.87359619141</ele>
        <time>2009-12-12T15:07:24Z</time>
      </trkpt>
      <trkpt lat="45.22044" lon="4.99878">
        <ele>332.45657348633</ele>
        <time>2009-12-12T15:07:27Z</time>
      </trkpt>
      <trkpt lat="45.22033" lon="4.99923">
        <ele>329.279296875</ele>
        <time>2009-12-12T15:07:31Z</time>
      </trkpt>
      <trkpt lat="45.22036" lon="4.99935">
        <ele>329.2546081543</ele>
        <time>2009-12-12T15:07:32Z</time>
      </trkpt>
      <trkpt lat="45.22044" lon="4.99963">
        <ele>329.39398193359</ele>
        <time>2009-12-12T15:07:34Z</time>
      </trkpt>
      <trkpt lat="45.22052" lon="4.99992">
        <ele>329.31039428711</ele>
        <time>2009-12-12T15:07:36Z</time>
      </trkpt>
      <trkpt lat="45.22054" lon="5.00036">
        <ele>329.03680419922</ele>
        <time>2009-12-12T15:07:39Z</time>
      </trkpt>
      <trkpt lat="45.22052" lon="5.00048">
        <ele>327.66006469727</ele>
        <time>2009-12-12T15:07:40Z</time>
      </trkpt>
      <trkpt lat="45.22038" lon="5.00065">
        <ele>322.44921875</ele>
        <time>2009-12-12T15:07:42Z</time>
      </trkpt>
      <trkpt lat="45.22033" lon="5.00071">
        <ele>320.71646118164</ele>
        <time>2009-12-12T15:07:43Z</time>
      </trkpt>
      <trkpt lat="45.22005" lon="5.00083">
        <ele>316.62594604492</ele>
        <time>2009-12-12T15:07:46Z</time>
      </trkpt>
      <trkpt lat="45.21999" lon="5.00081">
        <ele>316.00848388672</ele>
        <time>2009-12-12T15:07:47Z</time>
      </trkpt>
      <trkpt lat="45.2199" lon="5.00075">
        <ele>315.50720214844</ele>
        <time>2009-12-12T15:07:48Z</time>
      </trkpt>
      <trkpt lat="45.21964" lon="5.00058">
        <ele>313.0615234375</ele>
        <time>2009-12-12T15:07:53Z</time>
      </trkpt>
      <trkpt lat="45.21884" lon="5.00007">
        <ele>306.79275512695</ele>
        <time>2009-12-12T15:07:59Z</time>
      </trkpt>
      <trkpt lat="45.21849" lon="4.99992">
        <ele>311.49285888672</ele>
        <time>2009-12-12T15:08:01Z</time>
      </trkpt>
      <trkpt lat="45.21799" lon="4.99977">
        <ele>307.62582397461</ele>
        <time>2009-12-12T15:08:06Z</time>
      </trkpt>
      <trkpt lat="45.21732" lon="4.99969">
        <ele>302.61557006836</ele>
        <time>2009-12-12T15:08:11Z</time>
      </trkpt>
      <trkpt lat="45.21718" lon="4.99967">
        <ele>301.73455810547</ele>
        <time>2009-12-12T15:08:12Z</time>
      </trkpt>
      <trkpt lat="45.2169" lon="4.99955">
        <ele>300.34170532227</ele>
        <time>2009-12-12T15:08:14Z</time>
      </trkpt>
      <trkpt lat="45.21648" lon="4.99961">
        <ele>299.84918212891</ele>
        <time>2009-12-12T15:08:17Z</time>
      </trkpt>
      <trkpt lat="45.21635" lon="4.9997">
        <ele>300.88623046875</ele>
        <time>2009-12-12T15:08:18Z</time>
      </trkpt>
      <trkpt lat="45.21598" lon="4.9998">
        <ele>304.74798583984</ele>
        <time>2009-12-12T15:08:21Z</time>
      </trkpt>
      <trkpt lat="45.21593" lon="4.99972">
        <ele>304.75854492188</ele>
        <time>2009-12-12T15:08:22Z</time>
      </trkpt>
      <trkpt lat="45.21566" lon="4.99935">
        <ele>304.81576538086</ele>
        <time>2009-12-12T15:08:26Z</time>
      </trkpt>
      <trkpt lat="45.21543" lon="4.99903">
        <ele>304.86419677734</ele>
        <time>2009-12-12T15:08:30Z</time>
      </trkpt>
      <trkpt lat="45.21531" lon="4.99887">
        <ele>304.63140869141</ele>
        <time>2009-12-12T15:08:32Z</time>
      </trkpt>
      <trkpt lat="45.21526" lon="4.99879">
        <ele>304.29885864258</ele>
        <time>2009-12-12T15:08:33Z</time>
      </trkpt>
      <trkpt lat="45.21503" lon="4.9987">
        <ele>304.6555480957</ele>
        <time>2009-12-12T15:08:36Z</time>
      </trkpt>
      <trkpt lat="45.215" lon="4.99872">
        <ele>305.22689819336</ele>
        <time>2009-12-12T15:08:37Z</time>
      </trkpt>
      <trkpt lat="45.21498" lon="4.99879">
        <ele>306.39877319336</ele>
        <time>2009-12-12T15:08:38Z</time>
      </trkpt>
      <trkpt lat="45.21508" lon="4.99914">
        <ele>309.66717529297</ele>
        <time>2009-12-12T15:08:44Z</time>
      </trkpt>
      <trkpt lat="45.21511" lon="4.99919">
        <ele>310.01947021484</ele>
        <time>2009-12-12T15:08:45Z</time>
      </trkpt>
      <trkpt lat="45.21522" lon="4.99937">
        <ele>310.98489379883</ele>
        <time>2009-12-12T15:08:49Z</time>
      </trkpt>
      <trkpt lat="45.21535" lon="4.99957">
        <ele>311.57385253906</ele>
        <time>2009-12-12T15:08:55Z</time>
      </trkpt>
      <trkpt lat="45.21551" lon="4.99978">
        <ele>311.5436706543</ele>
        <time>2009-12-12T15:09:03Z</time>
      </trkpt>
      <trkpt lat="45.21566" lon="5.00001">
        <ele>298.39007568359</ele>
        <time>2009-12-12T15:09:11Z</time>
      </trkpt>
      <trkpt lat="45.21565" lon="5.00016">
        <ele>298.33514404297</ele>
        <time>2009-12-12T15:09:16Z</time>
      </trkpt>
      <trkpt lat="45.2156" lon="5.00033">
        <ele>298.17034912109</ele>
        <time>2009-12-12T15:09:21Z</time>
      </trkpt>
      <trkpt lat="45.21545" lon="5.00042">
        <ele>296.62768554688</ele>
        <time>2009-12-12T15:09:27Z</time>
      </trkpt>
      <trkpt lat="45.21523" lon="5.00054">
        <ele>295.84329223633</ele>
        <time>2009-12-12T15:09:36Z</time>
      </trkpt>
      <trkpt lat="45.21502" lon="5.00068">
        <ele>299.72259521484</ele>
        <time>2009-12-12T15:09:45Z</time>
      </trkpt>
      <trkpt lat="45.21479" lon="5.00084">
        <ele>303.03506469727</ele>
        <time>2009-12-12T15:09:55Z</time>
      </trkpt>
      <trkpt lat="45.21467" lon="5.0008">
        <ele>304.78158569336</ele>
        <time>2009-12-12T15:10:00Z</time>
      </trkpt>
      <trkpt lat="45.21462" lon="5.00064">
        <ele>304.92907714844</ele>
        <time>2009-12-12T15:10:05Z</time>
      </trkpt>
      <trkpt lat="45.2146" lon="5.00027">
        <ele>304.28210449219</ele>
        <time>2009-12-12T15:10:15Z</time>
      </trkpt>
      <trkpt lat="45.21453" lon="4.99999">
        <ele>331.19757080078</ele>
        <time>2009-12-12T15:10:23Z</time>
      </trkpt>
      <trkpt lat="45.21439" lon="4.99965">
        <ele>329.16766357422</ele>
        <time>2009-12-12T15:10:34Z</time>
      </trkpt>
      <trkpt lat="45.21429" lon="4.99942">
        <ele>327.93969726562</ele>
        <time>2009-12-12T15:10:42Z</time>
      </trkpt>
      <trkpt lat="45.2142" lon="4.9993">
        <ele>328.15682983398</ele>
        <time>2009-12-12T15:10:47Z</time>
      </trkpt>
      <trkpt lat="45.21407" lon="4.99936">
        <ele>330.74334716797</ele>
        <time>2009-12-12T15:10:52Z</time>
      </trkpt>
      <trkpt lat="45.21406" lon="4.99945">
        <ele>331.95642089844</ele>
        <time>2009-12-12T15:10:55Z</time>
      </trkpt>
      <trkpt lat="45.21403" lon="4.99979">
        <ele>336.56750488281</ele>
        <time>2009-12-12T15:11:05Z</time>
      </trkpt>
      <trkpt lat="45.21396" lon="5.00002">
        <ele>315.44573974609</ele>
        <time>2009-12-12T15:11:12Z</time>
      </trkpt>
      <trkpt lat="45.2139" lon="5.00016">
        <ele>318.46182250977</ele>
        <time>2009-12-12T15:11:17Z</time>
      </trkpt>
      <trkpt lat="45.21373" lon="5.00054">
        <ele>321.11743164062</ele>
        <time>2009-12-12T15:11:30Z</time>
      </trkpt>
      <trkpt lat="45.21362" lon="5.0008">
        <ele>323.73681640625</ele>
        <time>2009-12-12T15:11:39Z</time>
      </trkpt>
      <trkpt lat="45.2135" lon="5.00107">
        <ele>326.82797241211</ele>
        <time>2009-12-12T15:11:48Z</time>
      </trkpt>
      <trkpt lat="45.21337" lon="5.0013">
        <ele>331.37524414062</ele>
        <time>2009-12-12T15:11:56Z</time>
      </trkpt>
      <trkpt lat="45.21323" lon="5.00156">
        <ele>335.2102355957</ele>
        <time>2009-12-12T15:12:04Z</time>
      </trkpt>
      <trkpt lat="45.21315" lon="5.00185">
        <ele>338.328125</ele>
        <time>2009-12-12T15:12:11Z</time>
      </trkpt>
      <trkpt lat="45.21302" lon="5.00226">
        <ele>342.78082275391</ele>
        <time>2009-12-12T15:12:21Z</time>
      </trkpt>
      <trkpt lat="45.21291" lon="5.00262">
        <ele>347.17150878906</ele>
        <time>2009-12-12T15:12:30Z</time>
      </trkpt>
      <trkpt lat="45.21277" lon="5.00296">
        <ele>352.41799926758</ele>
        <time>2009-12-12T15:12:39Z</time>
      </trkpt>
      <trkpt lat="45.21258" lon="5.00337">
        <ele>358.49502563477</ele>
        <time>2009-12-12T15:12:49Z</time>
      </trkpt>
      <trkpt lat="45.21246" lon="5.00357">
        <ele>360</ele>
        <time>2009-12-12T15:12:54Z</time>
      </trkpt>
      <trkpt lat="45.21227" lon="5.00377">
        <ele>359.90469360352</ele>
        <time>2009-12-12T15:13:00Z</time>
      </trkpt>
      <trkpt lat="45.21219" lon="5.00378">
        <ele>360</ele>
        <time>2009-12-12T15:13:02Z</time>
      </trkpt>
      <trkpt lat="45.21182" lon="5.00384">
        <ele>360</ele>
        <time>2009-12-12T15:13:11Z</time>
      </trkpt>
      <trkpt lat="45.21151" lon="5.00389">
        <ele>359.98413085938</ele>
        <time>2009-12-12T15:13:18Z</time>
      </trkpt>
      <trkpt lat="45.21146" lon="5.00389">
        <ele>360</ele>
        <time>2009-12-12T15:13:19Z</time>
      </trkpt>
      <trkpt lat="45.21116" lon="5.00401">
        <ele>357.2096862793</ele>
        <time>2009-12-12T15:13:24Z</time>
      </trkpt>
      <trkpt lat="45.21067" lon="5.00459">
        <ele>349.61624145508</ele>
        <time>2009-12-12T15:13:33Z</time>
      </trkpt>
      <trkpt lat="45.21045" lon="5.00481">
        <ele>347.66110229492</ele>
        <time>2009-12-12T15:13:37Z</time>
      </trkpt>
      <trkpt lat="45.21001" lon="5.00499">
        <ele>345.02416992188</ele>
        <time>2009-12-12T15:13:44Z</time>
      </trkpt>
      <trkpt lat="45.20938" lon="5.00519">
        <ele>350.29147338867</ele>
        <time>2009-12-12T15:13:53Z</time>
      </trkpt>
      <trkpt lat="45.20893" lon="5.00531">
        <ele>357.20468139648</ele>
        <time>2009-12-12T15:14:00Z</time>
      </trkpt>
      <trkpt lat="45.20834" lon="5.00546">
        <ele>355.05780029297</ele>
        <time>2009-12-12T15:14:10Z</time>
      </trkpt>
      <trkpt lat="45.20795" lon="5.00557">
        <ele>354.58206176758</ele>
        <time>2009-12-12T15:14:17Z</time>
      </trkpt>
      <trkpt lat="45.20791" lon="5.00561">
        <ele>354.95626831055</ele>
        <time>2009-12-12T15:14:18Z</time>
      </trkpt>
      <trkpt lat="45.20762" lon="5.00586">
        <ele>357.14419555664</ele>
        <time>2009-12-12T15:14:25Z</time>
      </trkpt>
      <trkpt lat="45.2073" lon="5.00612">
        <ele>360</ele>
        <time>2009-12-12T15:14:34Z</time>
      </trkpt>
      <trkpt lat="45.20702" lon="5.0063">
        <ele>360</ele>
        <time>2009-12-12T15:14:42Z</time>
      </trkpt>
      <trkpt lat="45.20691" lon="5.00631">
        <ele>360</ele>
        <time>2009-12-12T15:14:45Z</time>
      </trkpt>
      <trkpt lat="45.20662" lon="5.00633">
        <ele>360</ele>
        <time>2009-12-12T15:14:53Z</time>
      </trkpt>
      <trkpt lat="45.20622" lon="5.00637">
        <ele>359.92959594727</ele>
        <time>2009-12-12T15:15:03Z</time>
      </trkpt>
      <trkpt lat="45.20592" lon="5.0064">
        <ele>360.07440185547</ele>
        <time>2009-12-12T15:15:10Z</time>
      </trkpt>
      <trkpt lat="45.20574" lon="5.00642">
        <ele>359.56155395508</ele>
        <time>2009-12-12T15:15:16Z</time>
      </trkpt>
      <trkpt lat="45.20528" lon="5.00642">
        <ele>355.55346679688</ele>
        <time>2009-12-12T15:15:24Z</time>
      </trkpt>
      <trkpt lat="45.2048" lon="5.00637">
        <ele>353.61328125</ele>
        <time>2009-12-12T15:15:34Z</time>
      </trkpt>
      <trkpt lat="45.20449" lon="5.00632">
        <ele>352.47079467773</ele>
        <time>2009-12-12T15:15:41Z</time>
      </trkpt>
      <trkpt lat="45.20423" lon="5.00625">
        <ele>351.29513549805</ele>
        <time>2009-12-12T15:15:47Z</time>
      </trkpt>
      <trkpt lat="45.20395" lon="5.00612">
        <ele>349.71179199219</ele>
        <time>2009-12-12T15:15:53Z</time>
      </trkpt>
      <trkpt lat="45.20381" lon="5.00605">
        <ele>348.87097167969</ele>
        <time>2009-12-12T15:15:56Z</time>
      </trkpt>
      <trkpt lat="45.20343" lon="5.00606">
        <ele>346.97677612305</ele>
        <time>2009-12-12T15:16:03Z</time>
      </trkpt>
      <trkpt lat="45.20313" lon="5.00617">
        <ele>347.25482177734</ele>
        <time>2009-12-12T15:16:09Z</time>
      </trkpt>
      <trkpt lat="45.20278" lon="5.0064">
        <ele>350.181640625</ele>
        <time>2009-12-12T15:16:17Z</time>
      </trkpt>
      <trkpt lat="45.20266" lon="5.00651">
        <ele>351.27374267578</ele>
        <time>2009-12-12T15:16:20Z</time>
      </trkpt>
      <trkpt lat="45.20253" lon="5.00662">
        <ele>352.41870117188</ele>
        <time>2009-12-12T15:16:23Z</time>
      </trkpt>
      <trkpt lat="45.20226" lon="5.00715">
        <ele>357.10101318359</ele>
        <time>2009-12-12T15:16:31Z</time>
      </trkpt>
      <trkpt lat="45.20201" lon="5.00779">
        <ele>363.86605834961</ele>
        <time>2009-12-12T15:16:40Z</time>
      </trkpt>
      <trkpt lat="45.20176" lon="5.00821">
        <ele>368.17181396484</ele>
        <time>2009-12-12T15:16:47Z</time>
      </trkpt>
      <trkpt lat="45.20166" lon="5.00835">
        <ele>370.13543701172</ele>
        <time>2009-12-12T15:16:50Z</time>
      </trkpt>
      <trkpt lat="45.20153" lon="5.00843">
        <ele>370.89590454102</ele>
        <time>2009-12-12T15:16:53Z</time>
      </trkpt>
      <trkpt lat="45.20145" lon="5.00849">
        <ele>371.55853271484</ele>
        <time>2009-12-12T15:16:55Z</time>
      </trkpt>
      <trkpt lat="45.20134" lon="5.00853">
        <ele>371.88842773438</ele>
        <time>2009-12-12T15:16:58Z</time>
      </trkpt>
      <trkpt lat="45.20115" lon="5.00854">
        <ele>371.38372802734</ele>
        <time>2009-12-12T15:17:02Z</time>
      </trkpt>
      <trkpt lat="45.20084" lon="5.00856">
        <ele>371.49114990234</ele>
        <time>2009-12-12T15:17:10Z</time>
      </trkpt>
      <trkpt lat="45.2006" lon="5.00845">
        <ele>371.11868286133</ele>
        <time>2009-12-12T15:17:16Z</time>
      </trkpt>
      <trkpt lat="45.20051" lon="5.00841">
        <ele>370.82775878906</ele>
        <time>2009-12-12T15:17:18Z</time>
      </trkpt>
      <trkpt lat="45.20029" lon="5.00831">
        <ele>369.61740112305</ele>
        <time>2009-12-12T15:17:23Z</time>
      </trkpt>
      <trkpt lat="45.20001" lon="5.00803">
        <ele>371.63150024414</ele>
        <time>2009-12-12T15:17:30Z</time>
      </trkpt>
      <trkpt lat="45.19979" lon="5.00781">
        <ele>372.38064575195</ele>
        <time>2009-12-12T15:17:35Z</time>
      </trkpt>
      <trkpt lat="45.19943" lon="5.0076">
        <ele>374.31463623047</ele>
        <time>2009-12-12T15:17:43Z</time>
      </trkpt>
      <trkpt lat="45.19917" lon="5.0075">
        <ele>376.96105957031</ele>
        <time>2009-12-12T15:17:49Z</time>
      </trkpt>
      <trkpt lat="45.19908" lon="5.00746">
        <ele>376.30358886719</ele>
        <time>2009-12-12T15:17:51Z</time>
      </trkpt>
      <trkpt lat="45.19904" lon="5.00745">
        <ele>375.99630737305</ele>
        <time>2009-12-12T15:17:58Z</time>
      </trkpt>
      <trkpt lat="45.19855" lon="5.00706">
        <ele>370.71096801758</ele>
        <time>2009-12-12T15:18:05Z</time>
      </trkpt>
      <trkpt lat="45.19835" lon="5.00695">
        <ele>370.89465332031</ele>
        <time>2009-12-12T15:18:11Z</time>
      </trkpt>
      <trkpt lat="45.19818" lon="5.00689">
        <ele>371.71612548828</ele>
        <time>2009-12-12T15:18:17Z</time>
      </trkpt>
      <trkpt lat="45.19807" lon="5.00685">
        <ele>372.24829101562</ele>
        <time>2009-12-12T15:18:22Z</time>
      </trkpt>
      <trkpt lat="45.19801" lon="5.00627">
        <ele>367.47860717773</ele>
        <time>2009-12-12T15:18:28Z</time>
      </trkpt>
      <trkpt lat="45.19794" lon="5.00589">
        <ele>365.22640991211</ele>
        <time>2009-12-12T15:18:32Z</time>
      </trkpt>
      <trkpt lat="45.19788" lon="5.00566">
        <ele>363.78070068359</ele>
        <time>2009-12-12T15:18:34Z</time>
      </trkpt>
      <trkpt lat="45.19784" lon="5.00554">
        <ele>363.25042724609</ele>
        <time>2009-12-12T15:18:35Z</time>
      </trkpt>
      <trkpt lat="45.19758" lon="5.00489">
        <ele>360.73870849609</ele>
        <time>2009-12-12T15:18:40Z</time>
      </trkpt>
      <trkpt lat="45.19719" lon="5.00423">
        <ele>355.17816162109</ele>
        <time>2009-12-12T15:18:45Z</time>
      </trkpt>
      <trkpt lat="45.19701" lon="5.00395">
        <ele>351.17477416992</ele>
        <time>2009-12-12T15:18:47Z</time>
      </trkpt>
      <trkpt lat="45.19674" lon="5.00353">
        <ele>347.40930175781</ele>
        <time>2009-12-12T15:18:50Z</time>
      </trkpt>
      <trkpt lat="45.19612" lon="5.00254">
        <ele>354.04528808594</ele>
        <time>2009-12-12T15:18:57Z</time>
      </trkpt>
      <trkpt lat="45.19573" lon="5.00193">
        <ele>353.26181030273</ele>
        <time>2009-12-12T15:19:02Z</time>
      </trkpt>
      <trkpt lat="45.1954" lon="5.00142">
        <ele>352.78338623047</ele>
        <time>2009-12-12T15:19:07Z</time>
      </trkpt>
      <trkpt lat="45.19507" lon="5.0009">
        <ele>354.55673217773</ele>
        <time>2009-12-12T15:19:13Z</time>
      </trkpt>
      <trkpt lat="45.19481" lon="5.00049">
        <ele>356.90246582031</ele>
        <time>2009-12-12T15:19:19Z</time>
      </trkpt>
      <trkpt lat="45.19474" lon="5.00038">
        <ele>357.56680297852</ele>
        <time>2009-12-12T15:19:21Z</time>
      </trkpt>
      <trkpt lat="45.19448" lon="5.0003">
        <ele>358.72616577148</ele>
        <time>2009-12-12T15:19:26Z</time>
      </trkpt>
      <trkpt lat="45.19432" lon="5.00028">
        <ele>359.42340087891</ele>
        <time>2009-12-12T15:19:30Z</time>
      </trkpt>
      <trkpt lat="45.19432" lon="5.00028">
        <ele>359.42340087891</ele>
        <time>2009-12-12T15:19:32Z</time>
      </trkpt>
      <trkpt lat="45.19432" lon="5.00028">
        <ele>359.42340087891</ele>
        <time>2009-12-12T15:19:33Z</time>
      </trkpt>
      <trkpt lat="45.19373" lon="5.00025">
        <ele>364.12445068359</ele>
        <time>2009-12-12T15:19:42Z</time>
      </trkpt>
      <trkpt lat="45.19359" lon="5.00024">
        <ele>365.77926635742</ele>
        <time>2009-12-12T15:19:47Z</time>
      </trkpt>
      <trkpt lat="45.19359" lon="5.00024">
        <ele>365.77926635742</ele>
        <time>2009-12-12T15:19:49Z</time>
      </trkpt>
      <trkpt lat="45.19359" lon="5.00024">
        <ele>365.77926635742</ele>
        <time>2009-12-12T15:19:51Z</time>
      </trkpt>
      <trkpt lat="45.19359" lon="5.00024">
        <ele>365.77926635742</ele>
        <time>2009-12-12T15:19:53Z</time>
      </trkpt>
      <trkpt lat="45.19339" lon="5.0001">
        <ele>369.97467041016</ele>
        <time>2009-12-12T15:19:56Z</time>
      </trkpt>
      <trkpt lat="45.19336" lon="5.00008">
        <ele>370.45532226562</ele>
        <time>2009-12-12T15:19:57Z</time>
      </trkpt>
      <trkpt lat="45.19321" lon="4.99998">
        <ele>366.41754150391</ele>
        <time>2009-12-12T15:20:05Z</time>
      </trkpt>
      <trkpt lat="45.19295" lon="4.99982">
        <ele>369.27856445312</ele>
        <time>2009-12-12T15:20:13Z</time>
      </trkpt>
      <trkpt lat="45.19273" lon="4.99967">
        <ele>372.14697265625</ele>
        <time>2009-12-12T15:20:20Z</time>
      </trkpt>
      <trkpt lat="45.19251" lon="4.99947">
        <ele>376.44744873047</ele>
        <time>2009-12-12T15:20:27Z</time>
      </trkpt>
      <trkpt lat="45.19242" lon="4.99937">
        <ele>378.29602050781</ele>
        <time>2009-12-12T15:20:30Z</time>
      </trkpt>
      <trkpt lat="45.19218" lon="4.99927">
        <ele>379.91580200195</ele>
        <time>2009-12-12T15:20:36Z</time>
      </trkpt>
      <trkpt lat="45.19204" lon="4.9993">
        <ele>379.31497192383</ele>
        <time>2009-12-12T15:20:40Z</time>
      </trkpt>
      <trkpt lat="45.19191" lon="4.99933">
        <ele>378.76751708984</ele>
        <time>2009-12-12T15:20:44Z</time>
      </trkpt>
      <trkpt lat="45.19184" lon="4.99933">
        <ele>378.748046875</ele>
        <time>2009-12-12T15:20:46Z</time>
      </trkpt>
      <trkpt lat="45.19163" lon="4.99922">
        <ele>380.09002685547</ele>
        <time>2009-12-12T15:20:53Z</time>
      </trkpt>
      <trkpt lat="45.1914" lon="4.99902">
        <ele>382.43212890625</ele>
        <time>2009-12-12T15:21:02Z</time>
      </trkpt>
      <trkpt lat="45.19123" lon="4.99895">
        <ele>382.48919677734</ele>
        <time>2009-12-12T15:21:09Z</time>
      </trkpt>
      <trkpt lat="45.1908" lon="4.99878">
        <ele>381.21337890625</ele>
        <time>2009-12-12T15:21:17Z</time>
      </trkpt>
      <trkpt lat="45.19056" lon="4.99841">
        <ele>379.49371337891</ele>
        <time>2009-12-12T15:21:24Z</time>
      </trkpt>
      <trkpt lat="45.1905" lon="4.99826">
        <ele>379.88070678711</ele>
        <time>2009-12-12T15:21:28Z</time>
      </trkpt>
      <trkpt lat="45.19011" lon="4.99754">
        <ele>382.50360107422</ele>
        <time>2009-12-12T15:21:36Z</time>
      </trkpt>
      <trkpt lat="45.18993" lon="4.99732">
        <ele>384.55450439453</ele>
        <time>2009-12-12T15:21:40Z</time>
      </trkpt>
      <trkpt lat="45.18961" lon="4.99688">
        <ele>390.10882568359</ele>
        <time>2009-12-12T15:21:47Z</time>
      </trkpt>
      <trkpt lat="45.18932" lon="4.99651">
        <ele>393.63977050781</ele>
        <time>2009-12-12T15:21:54Z</time>
      </trkpt>
      <trkpt lat="45.18921" lon="4.99637">
        <ele>394.98425292969</ele>
        <time>2009-12-12T15:21:57Z</time>
      </trkpt>
      <trkpt lat="45.18901" lon="4.99634">
        <ele>393.87759399414</ele>
        <time>2009-12-12T15:22:01Z</time>
      </trkpt>
      <trkpt lat="45.18897" lon="4.99637">
        <ele>392.76449584961</ele>
        <time>2009-12-12T15:22:02Z</time>
      </trkpt>
      <trkpt lat="45.18887" lon="4.99644">
        <ele>390.34628295898</ele>
        <time>2009-12-12T15:22:04Z</time>
      </trkpt>
      <trkpt lat="45.18856" lon="4.99644">
        <ele>387.67184448242</ele>
        <time>2009-12-12T15:22:09Z</time>
      </trkpt>
      <trkpt lat="45.18784" lon="4.99627">
        <ele>385.4241027832</ele>
        <time>2009-12-12T15:22:20Z</time>
      </trkpt>
      <trkpt lat="45.18752" lon="4.99619">
        <ele>384.7861328125</ele>
        <time>2009-12-12T15:22:25Z</time>
      </trkpt>
      <trkpt lat="45.18708" lon="4.99587">
        <ele>387.53042602539</ele>
        <time>2009-12-12T15:22:32Z</time>
      </trkpt>
      <trkpt lat="45.18701" lon="4.99582">
        <ele>387.8518371582</ele>
        <time>2009-12-12T15:22:33Z</time>
      </trkpt>
      <trkpt lat="45.18668" lon="4.99567">
        <ele>387.76071166992</ele>
        <time>2009-12-12T15:22:38Z</time>
      </trkpt>
      <trkpt lat="45.18648" lon="4.99573">
        <ele>387.74740600586</ele>
        <time>2009-12-12T15:22:41Z</time>
      </trkpt>
      <trkpt lat="45.18623" lon="4.99588">
        <ele>386.55865478516</ele>
        <time>2009-12-12T15:22:45Z</time>
      </trkpt>
      <trkpt lat="45.18604" lon="4.99599">
        <ele>385.65856933594</ele>
        <time>2009-12-12T15:22:48Z</time>
      </trkpt>
      <trkpt lat="45.18572" lon="4.99599">
        <ele>388.43948364258</ele>
        <time>2009-12-12T15:22:53Z</time>
      </trkpt>
      <trkpt lat="45.18551" lon="4.9961">
        <ele>387.21926879883</ele>
        <time>2009-12-12T15:22:57Z</time>
      </trkpt>
      <trkpt lat="45.18541" lon="4.99628">
        <ele>383.77410888672</ele>
        <time>2009-12-12T15:23:00Z</time>
      </trkpt>
      <trkpt lat="45.18523" lon="4.9967">
        <ele>377.30709838867</ele>
        <time>2009-12-12T15:23:05Z</time>
      </trkpt>
      <trkpt lat="45.18509" lon="4.99681">
        <ele>378.05517578125</ele>
        <time>2009-12-12T15:23:08Z</time>
      </trkpt>
      <trkpt lat="45.18491" lon="4.99676">
        <ele>380.27465820312</ele>
        <time>2009-12-12T15:23:11Z</time>
      </trkpt>
      <trkpt lat="45.18463" lon="4.99668">
        <ele>382.21237182617</ele>
        <time>2009-12-12T15:23:16Z</time>
      </trkpt>
      <trkpt lat="45.18433" lon="4.9966">
        <ele>384.53460693359</ele>
        <time>2009-12-12T15:23:22Z</time>
      </trkpt>
      <trkpt lat="45.18418" lon="4.99655">
        <ele>385.70913696289</ele>
        <time>2009-12-12T15:23:25Z</time>
      </trkpt>
      <trkpt lat="45.18391" lon="4.99648">
        <ele>383.67877197266</ele>
        <time>2009-12-12T15:23:31Z</time>
      </trkpt>
      <trkpt lat="45.18384" lon="4.99645">
        <ele>383.12768554688</ele>
        <time>2009-12-12T15:23:33Z</time>
      </trkpt>
      <trkpt lat="45.18361" lon="4.99618">
        <ele>383.76812744141</ele>
        <time>2009-12-12T15:23:39Z</time>
      </trkpt>
      <trkpt lat="45.18328" lon="4.99561">
        <ele>387.16131591797</ele>
        <time>2009-12-12T15:23:47Z</time>
      </trkpt>
      <trkpt lat="45.18299" lon="4.9953">
        <ele>388.11297607422</ele>
        <time>2009-12-12T15:23:52Z</time>
      </trkpt>
      <trkpt lat="45.18287" lon="4.99518">
        <ele>388.6735534668</ele>
        <time>2009-12-12T15:23:54Z</time>
      </trkpt>
      <trkpt lat="45.18263" lon="4.99501">
        <ele>388.87237548828</ele>
        <time>2009-12-12T15:23:58Z</time>
      </trkpt>
      <trkpt lat="45.18257" lon="4.99501">
        <ele>387.70379638672</ele>
        <time>2009-12-12T15:23:59Z</time>
      </trkpt>
      <trkpt lat="45.18194" lon="4.99507">
        <ele>384.24719238281</ele>
        <time>2009-12-12T15:24:08Z</time>
      </trkpt>
      <trkpt lat="45.18141" lon="4.99512">
        <ele>383.70199584961</ele>
        <time>2009-12-12T15:24:15Z</time>
      </trkpt>
      <trkpt lat="45.18105" lon="4.99527">
        <ele>382.56979370117</ele>
        <time>2009-12-12T15:24:20Z</time>
      </trkpt>
      <trkpt lat="45.18082" lon="4.99558">
        <ele>379.3469543457</ele>
        <time>2009-12-12T15:24:25Z</time>
      </trkpt>
      <trkpt lat="45.18056" lon="4.99573">
        <ele>376.37884521484</ele>
        <time>2009-12-12T15:24:30Z</time>
      </trkpt>
      <trkpt lat="45.18029" lon="4.99567">
        <ele>376.13705444336</ele>
        <time>2009-12-12T15:24:36Z</time>
      </trkpt>
      <trkpt lat="45.18025" lon="4.99563">
        <ele>376.40621948242</ele>
        <time>2009-12-12T15:24:37Z</time>
      </trkpt>
      <trkpt lat="45.18011" lon="4.99552">
        <ele>377.24667358398</ele>
        <time>2009-12-12T15:24:40Z</time>
      </trkpt>
      <trkpt lat="45.17988" lon="4.99518">
        <ele>379.04635620117</ele>
        <time>2009-12-12T15:24:47Z</time>
      </trkpt>
      <trkpt lat="45.17973" lon="4.99497">
        <ele>379.09042358398</ele>
        <time>2009-12-12T15:24:52Z</time>
      </trkpt>
      <trkpt lat="45.1796" lon="4.9947">
        <ele>379.05578613281</ele>
        <time>2009-12-12T15:24:59Z</time>
      </trkpt>
      <trkpt lat="45.17959" lon="4.99454">
        <ele>380.15628051758</ele>
        <time>2009-12-12T15:25:02Z</time>
      </trkpt>
      <trkpt lat="45.17956" lon="4.99405">
        <ele>383.93133544922</ele>
        <time>2009-12-12T15:25:09Z</time>
      </trkpt>
      <trkpt lat="45.17955" lon="4.99397">
        <ele>384.70471191406</ele>
        <time>2009-12-12T15:25:10Z</time>
      </trkpt>
      <trkpt lat="45.17951" lon="4.99382">
        <ele>385.90869140625</ele>
        <time>2009-12-12T15:25:12Z</time>
      </trkpt>
      <trkpt lat="45.17937" lon="4.9936">
        <ele>386.27474975586</ele>
        <time>2009-12-12T15:25:16Z</time>
      </trkpt>
      <trkpt lat="45.17914" lon="4.99346">
        <ele>384.55490112305</ele>
        <time>2009-12-12T15:25:20Z</time>
      </trkpt>
      <trkpt lat="45.17908" lon="4.99347">
        <ele>384.10879516602</ele>
        <time>2009-12-12T15:25:21Z</time>
      </trkpt>
      <trkpt lat="45.1789" lon="4.99349">
        <ele>382.728515625</ele>
        <time>2009-12-12T15:25:24Z</time>
      </trkpt>
      <trkpt lat="45.17866" lon="4.99343">
        <ele>382.57891845703</ele>
        <time>2009-12-12T15:25:28Z</time>
      </trkpt>
      <trkpt lat="45.17822" lon="4.99325">
        <ele>383.10342407227</ele>
        <time>2009-12-12T15:25:36Z</time>
      </trkpt>
      <trkpt lat="45.17801" lon="4.99311">
        <ele>382.75524902344</ele>
        <time>2009-12-12T15:25:40Z</time>
      </trkpt>
      <trkpt lat="45.17778" lon="4.99287">
        <ele>383.40142822266</ele>
        <time>2009-12-12T15:25:45Z</time>
      </trkpt>
      <trkpt lat="45.17747" lon="4.99243">
        <ele>385.03430175781</ele>
        <time>2009-12-12T15:25:52Z</time>
      </trkpt>
      <trkpt lat="45.17736" lon="4.99232">
        <ele>386.34429931641</ele>
        <time>2009-12-12T15:25:54Z</time>
      </trkpt>
      <trkpt lat="45.17706" lon="4.99215">
        <ele>388.25866699219</ele>
        <time>2009-12-12T15:25:59Z</time>
      </trkpt>
      <trkpt lat="45.17693" lon="4.99209">
        <ele>389.1535949707</ele>
        <time>2009-12-12T15:26:01Z</time>
      </trkpt>
      <trkpt lat="45.17653" lon="4.9922">
        <ele>385.43402099609</ele>
        <time>2009-12-12T15:26:07Z</time>
      </trkpt>
      <trkpt lat="45.17625" lon="4.99227">
        <ele>383.42437744141</ele>
        <time>2009-12-12T15:26:11Z</time>
      </trkpt>
      <trkpt lat="45.17581" lon="4.99238">
        <ele>381.05053710938</ele>
        <time>2009-12-12T15:26:17Z</time>
      </trkpt>
      <trkpt lat="45.17531" lon="4.99232">
        <ele>380.80969238281</ele>
        <time>2009-12-12T15:26:24Z</time>
      </trkpt>
      <trkpt lat="45.17484" lon="4.99227">
        <ele>380.54733276367</ele>
        <time>2009-12-12T15:26:30Z</time>
      </trkpt>
      <trkpt lat="45.17414" lon="4.99219">
        <ele>380.39547729492</ele>
        <time>2009-12-12T15:26:39Z</time>
      </trkpt>
      <trkpt lat="45.17399" lon="4.99217">
        <ele>379.27740478516</ele>
        <time>2009-12-12T15:26:41Z</time>
      </trkpt>
      <trkpt lat="45.17351" lon="4.99192">
        <ele>378.90380859375</ele>
        <time>2009-12-12T15:26:48Z</time>
      </trkpt>
      <trkpt lat="45.17318" lon="4.99161">
        <ele>379.54827880859</ele>
        <time>2009-12-12T15:26:54Z</time>
      </trkpt>
      <trkpt lat="45.17289" lon="4.99142">
        <ele>378.05978393555</ele>
        <time>2009-12-12T15:26:59Z</time>
      </trkpt>
      <trkpt lat="45.1725" lon="4.99132">
        <ele>376.71176147461</ele>
        <time>2009-12-12T15:27:05Z</time>
      </trkpt>
      <trkpt lat="45.17205" lon="4.99124">
        <ele>380.07437133789</ele>
        <time>2009-12-12T15:27:12Z</time>
      </trkpt>
      <trkpt lat="45.17186" lon="4.99129">
        <ele>380.44470214844</ele>
        <time>2009-12-12T15:27:15Z</time>
      </trkpt>
      <trkpt lat="45.17134" lon="4.99156">
        <ele>379.27029418945</ele>
        <time>2009-12-12T15:27:22Z</time>
      </trkpt>
      <trkpt lat="45.17084" lon="4.99181">
        <ele>376.56951904297</ele>
        <time>2009-12-12T15:27:28Z</time>
      </trkpt>
      <trkpt lat="45.1702" lon="4.99211">
        <ele>370.35998535156</ele>
        <time>2009-12-12T15:27:35Z</time>
      </trkpt>
      <trkpt lat="45.16957" lon="4.99237">
        <ele>369.45764160156</ele>
        <time>2009-12-12T15:27:42Z</time>
      </trkpt>
      <trkpt lat="45.16914" lon="4.99255">
        <ele>370.19412231445</ele>
        <time>2009-12-12T15:27:47Z</time>
      </trkpt>
      <trkpt lat="45.16876" lon="4.99249">
        <ele>366.16207885742</ele>
        <time>2009-12-12T15:27:51Z</time>
      </trkpt>
      <trkpt lat="45.16867" lon="4.99242">
        <ele>365.77560424805</ele>
        <time>2009-12-12T15:27:52Z</time>
      </trkpt>
      <trkpt lat="45.16841" lon="4.99218">
        <ele>365.27471923828</ele>
        <time>2009-12-12T15:27:55Z</time>
      </trkpt>
      <trkpt lat="45.16832" lon="4.99209">
        <ele>365.29013061523</ele>
        <time>2009-12-12T15:27:56Z</time>
      </trkpt>
      <trkpt lat="45.16815" lon="4.99192">
        <ele>365.49554443359</ele>
        <time>2009-12-12T15:27:58Z</time>
      </trkpt>
      <trkpt lat="45.16796" lon="4.99178">
        <ele>365.12191772461</ele>
        <time>2009-12-12T15:28:00Z</time>
      </trkpt>
      <trkpt lat="45.16774" lon="4.99184">
        <ele>362.52008056641</ele>
        <time>2009-12-12T15:28:02Z</time>
      </trkpt>
      <trkpt lat="45.16753" lon="4.99193">
        <ele>359.42388916016</ele>
        <time>2009-12-12T15:28:04Z</time>
      </trkpt>
      <trkpt lat="45.16731" lon="4.99185">
        <ele>358.8473815918</ele>
        <time>2009-12-12T15:28:06Z</time>
      </trkpt>
      <trkpt lat="45.16696" lon="4.99146">
        <ele>361.03457641602</ele>
        <time>2009-12-12T15:28:10Z</time>
      </trkpt>
      <trkpt lat="45.16663" lon="4.99163">
        <ele>356.95147705078</ele>
        <time>2009-12-12T15:28:13Z</time>
      </trkpt>
      <trkpt lat="45.1664" lon="4.99163">
        <ele>354.30462646484</ele>
        <time>2009-12-12T15:28:15Z</time>
      </trkpt>
      <trkpt lat="45.16622" lon="4.99147">
        <ele>354.17544555664</ele>
        <time>2009-12-12T15:28:17Z</time>
      </trkpt>
      <trkpt lat="45.16604" lon="4.99125">
        <ele>355.14410400391</ele>
        <time>2009-12-12T15:28:19Z</time>
      </trkpt>
      <trkpt lat="45.16583" lon="4.99108">
        <ele>355.44491577148</ele>
        <time>2009-12-12T15:28:21Z</time>
      </trkpt>
      <trkpt lat="45.16571" lon="4.99106">
        <ele>354.84753417969</ele>
        <time>2009-12-12T15:28:22Z</time>
      </trkpt>
      <trkpt lat="45.16536" lon="4.9911">
        <ele>351.68896484375</ele>
        <time>2009-12-12T15:28:25Z</time>
      </trkpt>
      <trkpt lat="45.16523" lon="4.99112">
        <ele>350.61093139648</ele>
        <time>2009-12-12T15:28:26Z</time>
      </trkpt>
      <trkpt lat="45.16512" lon="4.99113">
        <ele>349.57409667969</ele>
        <time>2009-12-12T15:28:27Z</time>
      </trkpt>
      <trkpt lat="45.16499" lon="4.99114">
        <ele>348.53903198242</ele>
        <time>2009-12-12T15:28:28Z</time>
      </trkpt>
      <trkpt lat="45.16449" lon="4.99123">
        <ele>345.78311157227</ele>
        <time>2009-12-12T15:28:32Z</time>
      </trkpt>
      <trkpt lat="45.16411" lon="4.99136">
        <ele>342.51580810547</ele>
        <time>2009-12-12T15:28:35Z</time>
      </trkpt>
      <trkpt lat="45.16345" lon="4.9916">
        <ele>337.23913574219</ele>
        <time>2009-12-12T15:28:40Z</time>
      </trkpt>
      <trkpt lat="45.16266" lon="4.99188">
        <ele>333.34301757812</ele>
        <time>2009-12-12T15:28:46Z</time>
      </trkpt>
      <trkpt lat="45.16187" lon="4.99209">
        <ele>327.07034301758</ele>
        <time>2009-12-12T15:28:52Z</time>
      </trkpt>
      <trkpt lat="45.16147" lon="4.99205">
        <ele>324.31878662109</ele>
        <time>2009-12-12T15:28:55Z</time>
      </trkpt>
      <trkpt lat="45.1613" lon="4.99174">
        <ele>324.25521850586</ele>
        <time>2009-12-12T15:28:57Z</time>
      </trkpt>
      <trkpt lat="45.16121" lon="4.99159">
        <ele>323.99313354492</ele>
        <time>2009-12-12T15:28:58Z</time>
      </trkpt>
      <trkpt lat="45.16098" lon="4.99146">
        <ele>322.29821777344</ele>
        <time>2009-12-12T15:29:00Z</time>
      </trkpt>
      <trkpt lat="45.16086" lon="4.99145">
        <ele>321.10400390625</ele>
        <time>2009-12-12T15:29:01Z</time>
      </trkpt>
      <trkpt lat="45.16062" lon="4.9915">
        <ele>321.5927734375</ele>
        <time>2009-12-12T15:29:03Z</time>
      </trkpt>
      <trkpt lat="45.1601" lon="4.99161">
        <ele>323.19610595703</ele>
        <time>2009-12-12T15:29:08Z</time>
      </trkpt>
      <trkpt lat="45.15957" lon="4.99179">
        <ele>326.04705810547</ele>
        <time>2009-12-12T15:29:14Z</time>
      </trkpt>
      <trkpt lat="45.15916" lon="4.99198">
        <ele>326.34136962891</ele>
        <time>2009-12-12T15:29:19Z</time>
      </trkpt>
      <trkpt lat="45.15876" lon="4.99203">
        <ele>328.37380981445</ele>
        <time>2009-12-12T15:29:24Z</time>
      </trkpt>
      <trkpt lat="45.1583" lon="4.99206">
        <ele>330.65432739258</ele>
        <time>2009-12-12T15:29:30Z</time>
      </trkpt>
      <trkpt lat="45.15771" lon="4.99219">
        <ele>330.03692626953</ele>
        <time>2009-12-12T15:29:38Z</time>
      </trkpt>
      <trkpt lat="45.15714" lon="4.99236">
        <ele>328.98980712891</ele>
        <time>2009-12-12T15:29:46Z</time>
      </trkpt>
      <trkpt lat="45.15692" lon="4.99243">
        <ele>328.93713378906</ele>
        <time>2009-12-12T15:29:49Z</time>
      </trkpt>
      <trkpt lat="45.15639" lon="4.99259">
        <ele>332.07312011719</ele>
        <time>2009-12-12T15:29:56Z</time>
      </trkpt>
      <trkpt lat="45.15607" lon="4.99291">
        <ele>330.92697143555</ele>
        <time>2009-12-12T15:30:01Z</time>
      </trkpt>
      <trkpt lat="45.15569" lon="4.9933">
        <ele>329.47796630859</ele>
        <time>2009-12-12T15:30:07Z</time>
      </trkpt>
      <trkpt lat="45.15554" lon="4.9934">
        <ele>330.51434326172</ele>
        <time>2009-12-12T15:30:09Z</time>
      </trkpt>
      <trkpt lat="45.15499" lon="4.99377">
        <ele>331.59777832031</ele>
        <time>2009-12-12T15:30:16Z</time>
      </trkpt>
      <trkpt lat="45.15469" lon="4.99408">
        <ele>330.92987060547</ele>
        <time>2009-12-12T15:30:20Z</time>
      </trkpt>
      <trkpt lat="45.15432" lon="4.99462">
        <ele>326.58901977539</ele>
        <time>2009-12-12T15:30:25Z</time>
      </trkpt>
      <trkpt lat="45.15421" lon="4.99469">
        <ele>326.28628540039</ele>
        <time>2009-12-12T15:30:26Z</time>
      </trkpt>
      <trkpt lat="45.1539" lon="4.9949">
        <ele>326.52893066406</ele>
        <time>2009-12-12T15:30:29Z</time>
      </trkpt>
      <trkpt lat="45.15372" lon="4.9953">
        <ele>324.52798461914</ele>
        <time>2009-12-12T15:30:32Z</time>
      </trkpt>
      <trkpt lat="45.15364" lon="4.99561">
        <ele>322.37576293945</ele>
        <time>2009-12-12T15:30:34Z</time>
      </trkpt>
      <trkpt lat="45.15343" lon="4.99607">
        <ele>319.11801147461</ele>
        <time>2009-12-12T15:30:38Z</time>
      </trkpt>
      <trkpt lat="45.15336" lon="4.9962">
        <ele>317.6135559082</ele>
        <time>2009-12-12T15:30:39Z</time>
      </trkpt>
      <trkpt lat="45.15331" lon="4.99632">
        <ele>315.80551147461</ele>
        <time>2009-12-12T15:30:40Z</time>
      </trkpt>
      <trkpt lat="45.15312" lon="4.99645">
        <ele>313.6383972168</ele>
        <time>2009-12-12T15:30:42Z</time>
      </trkpt>
      <trkpt lat="45.15293" lon="4.99657">
        <ele>311.67425537109</ele>
        <time>2009-12-12T15:30:44Z</time>
      </trkpt>
      <trkpt lat="45.15283" lon="4.99661">
        <ele>311.27365112305</ele>
        <time>2009-12-12T15:30:45Z</time>
      </trkpt>
      <trkpt lat="45.15272" lon="4.99663">
        <ele>311.05844116211</ele>
        <time>2009-12-12T15:30:46Z</time>
      </trkpt>
      <trkpt lat="45.15249" lon="4.99669">
        <ele>310.50689697266</ele>
        <time>2009-12-12T15:30:48Z</time>
      </trkpt>
      <trkpt lat="45.15205" lon="4.99662">
        <ele>301.27597045898</ele>
        <time>2009-12-12T15:30:52Z</time>
      </trkpt>
      <trkpt lat="45.15196" lon="4.99621">
        <ele>303.44250488281</ele>
        <time>2009-12-12T15:30:55Z</time>
      </trkpt>
      <trkpt lat="45.15196" lon="4.99588">
        <ele>306.80740356445</ele>
        <time>2009-12-12T15:30:57Z</time>
      </trkpt>
      <trkpt lat="45.15184" lon="4.99537">
        <ele>309.46710205078</ele>
        <time>2009-12-12T15:31:00Z</time>
      </trkpt>
      <trkpt lat="45.15172" lon="4.99516">
        <ele>307.94332885742</ele>
        <time>2009-12-12T15:31:02Z</time>
      </trkpt>
      <trkpt lat="45.15141" lon="4.99473">
        <ele>305.26864624023</ele>
        <time>2009-12-12T15:31:06Z</time>
      </trkpt>
      <trkpt lat="45.15103" lon="4.99442">
        <ele>299.5842590332</ele>
        <time>2009-12-12T15:31:10Z</time>
      </trkpt>
      <trkpt lat="45.15049" lon="4.99389">
        <ele>291.07791137695</ele>
        <time>2009-12-12T15:31:16Z</time>
      </trkpt>
      <trkpt lat="45.15012" lon="4.99354">
        <ele>284.94821166992</ele>
        <time>2009-12-12T15:31:20Z</time>
      </trkpt>
      <trkpt lat="45.14952" lon="4.99318">
        <ele>285.96520996094</ele>
        <time>2009-12-12T15:31:26Z</time>
      </trkpt>
      <trkpt lat="45.14894" lon="4.99279">
        <ele>289.68399047852</ele>
        <time>2009-12-12T15:31:32Z</time>
      </trkpt>
      <trkpt lat="45.14807" lon="4.99218">
        <ele>281.61514282227</ele>
        <time>2009-12-12T15:31:41Z</time>
      </trkpt>
      <trkpt lat="45.14759" lon="4.99185">
        <ele>278.57550048828</ele>
        <time>2009-12-12T15:31:46Z</time>
      </trkpt>
      <trkpt lat="45.14709" lon="4.99171">
        <ele>276.98049926758</ele>
        <time>2009-12-12T15:31:51Z</time>
      </trkpt>
      <trkpt lat="45.14638" lon="4.99164">
        <ele>275.22506713867</ele>
        <time>2009-12-12T15:31:59Z</time>
      </trkpt>
      <trkpt lat="45.14581" lon="4.99158">
        <ele>273.87564086914</ele>
        <time>2009-12-12T15:32:05Z</time>
      </trkpt>
      <trkpt lat="45.14535" lon="4.99153">
        <ele>273.1096496582</ele>
        <time>2009-12-12T15:32:09Z</time>
      </trkpt>
      <trkpt lat="45.14473" lon="4.99139">
        <ele>273.63500976562</ele>
        <time>2009-12-12T15:32:14Z</time>
      </trkpt>
      <trkpt lat="45.1444" lon="4.99126">
        <ele>276.00869750977</ele>
        <time>2009-12-12T15:32:17Z</time>
      </trkpt>
      <trkpt lat="45.14399" lon="4.99119">
        <ele>277.90975952148</ele>
        <time>2009-12-12T15:32:21Z</time>
      </trkpt>
      <trkpt lat="45.14356" lon="4.99121">
        <ele>278.25973510742</ele>
        <time>2009-12-12T15:32:26Z</time>
      </trkpt>
      <trkpt lat="45.14343" lon="4.99122">
        <ele>278.3401184082</ele>
        <time>2009-12-12T15:32:28Z</time>
      </trkpt>
      <trkpt lat="45.14329" lon="4.9913">
        <ele>275.74942016602</ele>
        <time>2009-12-12T15:32:32Z</time>
      </trkpt>
      <trkpt lat="45.14334" lon="4.99122">
        <ele>278.3948059082</ele>
        <time>2009-12-12T15:32:36Z</time>
      </trkpt>
      <trkpt lat="45.14347" lon="4.99122">
        <ele>278.31484985352</ele>
        <time>2009-12-12T15:32:42Z</time>
      </trkpt>
      <trkpt lat="45.14361" lon="4.99121">
        <ele>278.22277832031</ele>
        <time>2009-12-12T15:32:45Z</time>
      </trkpt>
      <trkpt lat="45.14367" lon="4.99121">
        <ele>278.17309570312</ele>
        <time>2009-12-12T15:32:46Z</time>
      </trkpt>
      <trkpt lat="45.14408" lon="4.99157">
        <ele>267.53286743164</ele>
        <time>2009-12-12T15:32:51Z</time>
      </trkpt>
      <trkpt lat="45.1445" lon="4.99193">
        <ele>263.21170043945</ele>
        <time>2009-12-12T15:32:56Z</time>
      </trkpt>
      <trkpt lat="45.14465" lon="4.99213">
        <ele>261.1930847168</ele>
        <time>2009-12-12T15:32:58Z</time>
      </trkpt>
      <trkpt lat="45.14497" lon="4.99254">
        <ele>257.22717285156</ele>
        <time>2009-12-12T15:33:02Z</time>
      </trkpt>
      <trkpt lat="45.14514" lon="4.99287">
        <ele>259.52178955078</ele>
        <time>2009-12-12T15:33:05Z</time>
      </trkpt>
      <trkpt lat="45.14505" lon="4.99303">
        <ele>260.69268798828</ele>
        <time>2009-12-12T15:33:08Z</time>
      </trkpt>
      <trkpt lat="45.14504" lon="4.99302">
        <ele>260.65704345703</ele>
        <time>2009-12-12T15:33:09Z</time>
      </trkpt>
      <trkpt lat="45.14484" lon="4.99296">
        <ele>260.14324951172</ele>
        <time>2009-12-12T15:33:15Z</time>
      </trkpt>
      <trkpt lat="45.14472" lon="4.99298">
        <ele>260.19979858398</ele>
        <time>2009-12-12T15:33:18Z</time>
      </trkpt>
      <trkpt lat="45.1445" lon="4.99316">
        <ele>261.48623657227</ele>
        <time>2009-12-12T15:33:25Z</time>
      </trkpt>
      <trkpt lat="45.14426" lon="4.99336">
        <ele>263.56127929688</ele>
        <time>2009-12-12T15:33:33Z</time>
      </trkpt>
      <trkpt lat="45.1442" lon="4.99341">
        <ele>264.44473266602</ele>
        <time>2009-12-12T15:33:35Z</time>
      </trkpt>
      <trkpt lat="45.14405" lon="4.99352">
        <ele>265.62460327148</ele>
        <time>2009-12-12T15:33:40Z</time>
      </trkpt>
      <trkpt lat="45.14393" lon="4.99376">
        <ele>268.78729248047</ele>
        <time>2009-12-12T15:33:46Z</time>
      </trkpt>
      <trkpt lat="45.1439" lon="4.99383">
        <ele>269.81829833984</ele>
        <time>2009-12-12T15:33:48Z</time>
      </trkpt>
      <trkpt lat="45.14387" lon="4.99391">
        <ele>270.75723266602</ele>
        <time>2009-12-12T15:33:50Z</time>
      </trkpt>
      <trkpt lat="45.1438" lon="4.99407">
        <ele>272.83627319336</ele>
        <time>2009-12-12T15:33:54Z</time>
      </trkpt>
      <trkpt lat="45.14362" lon="4.99426">
        <ele>275.33508300781</ele>
        <time>2009-12-12T15:34:00Z</time>
      </trkpt>
      <trkpt lat="45.14341" lon="4.99437">
        <ele>276.1233215332</ele>
        <time>2009-12-12T15:34:06Z</time>
      </trkpt>
      <trkpt lat="45.14322" lon="4.99446">
        <ele>276.9951171875</ele>
        <time>2009-12-12T15:34:11Z</time>
      </trkpt>
      <trkpt lat="45.14299" lon="4.99459">
        <ele>278.14974975586</ele>
        <time>2009-12-12T15:34:18Z</time>
      </trkpt>
      <trkpt lat="45.14285" lon="4.99466">
        <ele>278.66036987305</ele>
        <time>2009-12-12T15:34:22Z</time>
      </trkpt>
      <trkpt lat="45.14262" lon="4.99477">
        <ele>279.25601196289</ele>
        <time>2009-12-12T15:34:28Z</time>
      </trkpt>
      <trkpt lat="45.1424" lon="4.99489">
        <ele>279.33648681641</ele>
        <time>2009-12-12T15:34:34Z</time>
      </trkpt>
      <trkpt lat="45.14236" lon="4.99491">
        <ele>279.25335693359</ele>
        <time>2009-12-12T15:34:35Z</time>
      </trkpt>
      <trkpt lat="45.14212" lon="4.99503">
        <ele>278.51971435547</ele>
        <time>2009-12-12T15:34:40Z</time>
      </trkpt>
      <trkpt lat="45.14191" lon="4.99514">
        <ele>277.37454223633</ele>
        <time>2009-12-12T15:34:44Z</time>
      </trkpt>
      <trkpt lat="45.14169" lon="4.9954">
        <ele>277.61828613281</ele>
        <time>2009-12-12T15:34:49Z</time>
      </trkpt>
      <trkpt lat="45.14165" lon="4.99561">
        <ele>280.04888916016</ele>
        <time>2009-12-12T15:34:52Z</time>
      </trkpt>
      <trkpt lat="45.14162" lon="4.99577">
        <ele>282.13009643555</ele>
        <time>2009-12-12T15:34:55Z</time>
      </trkpt>
      <trkpt lat="45.14158" lon="4.99595">
        <ele>283.79513549805</ele>
        <time>2009-12-12T15:34:59Z</time>
      </trkpt>
      <trkpt lat="45.14152" lon="4.99623">
        <ele>285.53109741211</ele>
        <time>2009-12-12T15:35:05Z</time>
      </trkpt>
      <trkpt lat="45.14149" lon="4.99641">
        <ele>286.56173706055</ele>
        <time>2009-12-12T15:35:09Z</time>
      </trkpt>
      <trkpt lat="45.14152" lon="4.99659">
        <ele>287.80990600586</ele>
        <time>2009-12-12T15:35:13Z</time>
      </trkpt>
      <trkpt lat="45.14159" lon="4.99668">
        <ele>288.62249755859</ele>
        <time>2009-12-12T15:35:16Z</time>
      </trkpt>
      <trkpt lat="45.14165" lon="4.99676">
        <ele>288.8083190918</ele>
        <time>2009-12-12T15:35:19Z</time>
      </trkpt>
      <trkpt lat="45.1417" lon="4.99684">
        <ele>289.24499511719</ele>
        <time>2009-12-12T15:35:22Z</time>
      </trkpt>
      <trkpt lat="45.14182" lon="4.99699">
        <ele>290.22717285156</ele>
        <time>2009-12-12T15:35:28Z</time>
      </trkpt>
      <trkpt lat="45.14197" lon="4.99712">
        <ele>291.18817138672</ele>
        <time>2009-12-12T15:35:34Z</time>
      </trkpt>
      <trkpt lat="45.14213" lon="4.99724">
        <ele>291.70486450195</ele>
        <time>2009-12-12T15:35:40Z</time>
      </trkpt>
      <trkpt lat="45.14226" lon="4.99731">
        <ele>292.01281738281</ele>
        <time>2009-12-12T15:35:44Z</time>
      </trkpt>
      <trkpt lat="45.14243" lon="4.99737">
        <ele>292.35763549805</ele>
        <time>2009-12-12T15:35:49Z</time>
      </trkpt>
      <trkpt lat="45.1426" lon="4.99743">
        <ele>292.05102539062</ele>
        <time>2009-12-12T15:35:54Z</time>
      </trkpt>
      <trkpt lat="45.1429" lon="4.99749">
        <ele>291.64752197266</ele>
        <time>2009-12-12T15:36:02Z</time>
      </trkpt>
      <trkpt lat="45.14315" lon="4.99753">
        <ele>291.80758666992</ele>
        <time>2009-12-12T15:36:09Z</time>
      </trkpt>
      <trkpt lat="45.14351" lon="4.99759">
        <ele>292.96572875977</ele>
        <time>2009-12-12T15:36:19Z</time>
      </trkpt>
      <trkpt lat="45.1438" lon="4.99765">
        <ele>294.40197753906</ele>
        <time>2009-12-12T15:36:27Z</time>
      </trkpt>
      <trkpt lat="45.14396" lon="4.99782">
        <ele>295.40673828125</ele>
        <time>2009-12-12T15:36:33Z</time>
      </trkpt>
      <trkpt lat="45.14413" lon="4.9981">
        <ele>296.53283691406</ele>
        <time>2009-12-12T15:36:41Z</time>
      </trkpt>
      <trkpt lat="45.14428" lon="4.99838">
        <ele>299.23504638672</ele>
        <time>2009-12-12T15:36:50Z</time>
      </trkpt>
      <trkpt lat="45.14432" lon="4.99844">
        <ele>300.2864074707</ele>
        <time>2009-12-12T15:36:52Z</time>
      </trkpt>
      <trkpt lat="45.14439" lon="4.99869">
        <ele>303.13681030273</ele>
        <time>2009-12-12T15:36:59Z</time>
      </trkpt>
      <trkpt lat="45.14442" lon="4.99892">
        <ele>305.27941894531</ele>
        <time>2009-12-12T15:37:05Z</time>
      </trkpt>
      <trkpt lat="45.14445" lon="4.99914">
        <ele>307.361328125</ele>
        <time>2009-12-12T15:37:10Z</time>
      </trkpt>
      <trkpt lat="45.1445" lon="4.99948">
        <ele>308.76889038086</ele>
        <time>2009-12-12T15:37:19Z</time>
      </trkpt>
      <trkpt lat="45.14454" lon="4.99969">
        <ele>309.36532592773</ele>
        <time>2009-12-12T15:37:24Z</time>
      </trkpt>
      <trkpt lat="45.14454" lon="4.99972">
        <ele>309.4313659668</ele>
        <time>2009-12-12T15:37:26Z</time>
      </trkpt>
      <trkpt lat="45.14467" lon="4.99978">
        <ele>311.03515625</ele>
        <time>2009-12-12T15:37:31Z</time>
      </trkpt>
      <trkpt lat="45.14481" lon="4.99984">
        <ele>312.63104248047</ele>
        <time>2009-12-12T15:37:37Z</time>
      </trkpt>
      <trkpt lat="45.14495" lon="4.99984">
        <ele>314.20062255859</ele>
        <time>2009-12-12T15:37:42Z</time>
      </trkpt>
      <trkpt lat="45.14506" lon="4.99983">
        <ele>315.19924926758</ele>
        <time>2009-12-12T15:37:45Z</time>
      </trkpt>
      <trkpt lat="45.14532" lon="4.9998">
        <ele>317.20547485352</ele>
        <time>2009-12-12T15:37:50Z</time>
      </trkpt>
      <trkpt lat="45.14545" lon="4.99979">
        <ele>318.24948120117</ele>
        <time>2009-12-12T15:37:52Z</time>
      </trkpt>
      <trkpt lat="45.14552" lon="4.99978">
        <ele>318.78335571289</ele>
        <time>2009-12-12T15:37:53Z</time>
      </trkpt>
      <trkpt lat="45.14574" lon="4.99978">
        <ele>320.39349365234</ele>
        <time>2009-12-12T15:37:57Z</time>
      </trkpt>
      <trkpt lat="45.14583" lon="4.9999">
        <ele>319.43902587891</ele>
        <time>2009-12-12T15:38:00Z</time>
      </trkpt>
      <trkpt lat="45.14585" lon="4.99995">
        <ele>318.71795654297</ele>
        <time>2009-12-12T15:38:01Z</time>
      </trkpt>
      <trkpt lat="45.14602" lon="5.00006">
        <ele>320.69232177734</ele>
        <time>2009-12-12T15:38:03Z</time>
      </trkpt>
      <trkpt lat="45.14602" lon="5.00007">
        <ele>320.68099975586</ele>
        <time>2009-12-12T15:38:04Z</time>
      </trkpt>
      <trkpt lat="45.14607" lon="5.0001">
        <ele>320.60687255859</ele>
        <time>2009-12-12T15:38:05Z</time>
      </trkpt>
      <trkpt lat="45.14617" lon="5.00015">
        <ele>320.56680297852</ele>
        <time>2009-12-12T15:38:07Z</time>
      </trkpt>
      <trkpt lat="45.14627" lon="5.00017">
        <ele>320.74072265625</ele>
        <time>2009-12-12T15:38:09Z</time>
      </trkpt>
      <trkpt lat="45.14632" lon="5.00019">
        <ele>320.84399414062</ele>
        <time>2009-12-12T15:38:10Z</time>
      </trkpt>
      <trkpt lat="45.14638" lon="5.0002">
        <ele>320.97109985352</ele>
        <time>2009-12-12T15:38:11Z</time>
      </trkpt>
      <trkpt lat="45.14657" lon="5.00024">
        <ele>321</ele>
        <time>2009-12-12T15:38:15Z</time>
      </trkpt>
      <trkpt lat="45.14676" lon="5.00028">
        <ele>320.99920654297</ele>
        <time>2009-12-12T15:38:19Z</time>
      </trkpt>
      <trkpt lat="45.14698" lon="5.00024">
        <ele>321</ele>
        <time>2009-12-12T15:38:25Z</time>
      </trkpt>
      <trkpt lat="45.14727" lon="5.00007">
        <ele>321</ele>
        <time>2009-12-12T15:38:34Z</time>
      </trkpt>
      <trkpt lat="45.14746" lon="4.99997">
        <ele>323.10150146484</ele>
        <time>2009-12-12T15:38:40Z</time>
      </trkpt>
      <trkpt lat="45.14758" lon="4.99995">
        <ele>324.40374755859</ele>
        <time>2009-12-12T15:38:44Z</time>
      </trkpt>
      <trkpt lat="45.14775" lon="4.99991">
        <ele>326.48620605469</ele>
        <time>2009-12-12T15:38:50Z</time>
      </trkpt>
      <trkpt lat="45.1478" lon="4.9999">
        <ele>327.06008911133</ele>
        <time>2009-12-12T15:38:57Z</time>
      </trkpt>
      <trkpt lat="45.14808" lon="4.99992">
        <ele>329.61190795898</ele>
        <time>2009-12-12T15:39:03Z</time>
      </trkpt>
      <trkpt lat="45.14814" lon="4.99993">
        <ele>330.23294067383</ele>
        <time>2009-12-12T15:39:05Z</time>
      </trkpt>
      <trkpt lat="45.14825" lon="4.99994">
        <ele>331.35165405273</ele>
        <time>2009-12-12T15:39:09Z</time>
      </trkpt>
      <trkpt lat="45.14836" lon="4.99998">
        <ele>332.32720947266</ele>
        <time>2009-12-12T15:39:13Z</time>
      </trkpt>
      <trkpt lat="45.14832" lon="5.00014">
        <ele>331.91580200195</ele>
        <time>2009-12-12T15:39:18Z</time>
      </trkpt>
      <trkpt lat="45.14831" lon="5.00019">
        <ele>332.1296081543</ele>
        <time>2009-12-12T15:39:20Z</time>
      </trkpt>
      <trkpt lat="45.14829" lon="5.00027">
        <ele>332.46600341797</ele>
        <time>2009-12-12T15:39:23Z</time>
      </trkpt>
      <trkpt lat="45.14825" lon="5.00037">
        <ele>332.48297119141</ele>
        <time>2009-12-12T15:39:27Z</time>
      </trkpt>
      <trkpt lat="45.14825" lon="5.00039">
        <ele>332.48641967773</ele>
        <time>2009-12-12T15:39:28Z</time>
      </trkpt>
      <trkpt lat="45.14818" lon="5.00057">
        <ele>332.37274169922</ele>
        <time>2009-12-12T15:39:35Z</time>
      </trkpt>
      <trkpt lat="45.1481" lon="5.00075">
        <ele>332.33636474609</ele>
        <time>2009-12-12T15:39:43Z</time>
      </trkpt>
      <trkpt lat="45.14805" lon="5.00089">
        <ele>332.07098388672</ele>
        <time>2009-12-12T15:39:49Z</time>
      </trkpt>
      <trkpt lat="45.14798" lon="5.00111">
        <ele>331.61608886719</ele>
        <time>2009-12-12T15:39:58Z</time>
      </trkpt>
      <trkpt lat="45.14793" lon="5.00129">
        <ele>332.35620117188</ele>
        <time>2009-12-12T15:40:04Z</time>
      </trkpt>
      <trkpt lat="45.14788" lon="5.00146">
        <ele>332.92962646484</ele>
        <time>2009-12-12T15:40:11Z</time>
      </trkpt>
      <trkpt lat="45.14784" lon="5.00164">
        <ele>333.43222045898</ele>
        <time>2009-12-12T15:40:17Z</time>
      </trkpt>
      <trkpt lat="45.14783" lon="5.00183">
        <ele>334.02478027344</ele>
        <time>2009-12-12T15:40:22Z</time>
      </trkpt>
      <trkpt lat="45.14782" lon="5.00219">
        <ele>335.57824707031</ele>
        <time>2009-12-12T15:40:30Z</time>
      </trkpt>
      <trkpt lat="45.1478" lon="5.0026">
        <ele>336.83612060547</ele>
        <time>2009-12-12T15:40:38Z</time>
      </trkpt>
      <trkpt lat="45.14779" lon="5.00297">
        <ele>335.36572265625</ele>
        <time>2009-12-12T15:40:46Z</time>
      </trkpt>
      <trkpt lat="45.14778" lon="5.00318">
        <ele>334.1155090332</ele>
        <time>2009-12-12T15:40:52Z</time>
      </trkpt>
      <trkpt lat="45.14777" lon="5.00337">
        <ele>332.77270507812</ele>
        <time>2009-12-12T15:40:57Z</time>
      </trkpt>
      <trkpt lat="45.14776" lon="5.00356">
        <ele>332.03796386719</ele>
        <time>2009-12-12T15:41:02Z</time>
      </trkpt>
      <trkpt lat="45.14777" lon="5.00362">
        <ele>331.89205932617</ele>
        <time>2009-12-12T15:41:04Z</time>
      </trkpt>
      <trkpt lat="45.14779" lon="5.00372">
        <ele>331.6357421875</ele>
        <time>2009-12-12T15:41:07Z</time>
      </trkpt>
      <trkpt lat="45.1478" lon="5.0038">
        <ele>331.42803955078</ele>
        <time>2009-12-12T15:41:10Z</time>
      </trkpt>
      <trkpt lat="45.14783" lon="5.00377">
        <ele>331.73397827148</ele>
        <time>2009-12-12T15:41:17Z</time>
      </trkpt>
      <trkpt lat="45.14784" lon="5.00376">
        <ele>331.81369018555</ele>
        <time>2009-12-12T15:41:29Z</time>
      </trkpt>
      <trkpt lat="45.14784" lon="5.00376">
        <ele>331.81369018555</ele>
        <time>2009-12-12T15:41:31Z</time>
      </trkpt>
      <trkpt lat="45.14784" lon="5.00376">
        <ele>331.81369018555</ele>
        <time>2009-12-12T15:41:36Z</time>
      </trkpt>
      <trkpt lat="45.14784" lon="5.00376">
        <ele>331.81369018555</ele>
        <time>2009-12-12T15:41:38Z</time>
      </trkpt>
      <trkpt lat="45.14785" lon="5.00379">
        <ele>331.67129516602</ele>
        <time>2009-12-12T15:42:51Z</time>
      </trkpt>
      <trkpt lat="45.14785" lon="5.00379">
        <ele>331.67129516602</ele>
        <time>2009-12-12T15:42:53Z</time>
      </trkpt>
      <trkpt lat="45.14785" lon="5.00387">
        <ele>331.37356567383</ele>
        <time>2009-12-12T15:43:02Z</time>
      </trkpt>
      <trkpt lat="45.14787" lon="5.00405">
        <ele>329.96563720703</ele>
        <time>2009-12-12T15:43:07Z</time>
      </trkpt>
      <trkpt lat="45.14788" lon="5.00416">
        <ele>329.09057617188</ele>
        <time>2009-12-12T15:43:09Z</time>
      </trkpt>
      <trkpt lat="45.14791" lon="5.00441">
        <ele>328.11273193359</ele>
        <time>2009-12-12T15:43:13Z</time>
      </trkpt>
      <trkpt lat="45.1479" lon="5.00482">
        <ele>325.64501953125</ele>
        <time>2009-12-12T15:43:18Z</time>
      </trkpt>
      <trkpt lat="45.14782" lon="5.00537">
        <ele>323.45297241211</ele>
        <time>2009-12-12T15:43:23Z</time>
      </trkpt>
      <trkpt lat="45.1478" lon="5.0055">
        <ele>323.04782104492</ele>
        <time>2009-12-12T15:43:24Z</time>
      </trkpt>
      <trkpt lat="45.1478" lon="5.00603">
        <ele>319.26651000977</ele>
        <time>2009-12-12T15:43:28Z</time>
      </trkpt>
      <trkpt lat="45.14796" lon="5.00655">
        <ele>312.04296875</ele>
        <time>2009-12-12T15:43:32Z</time>
      </trkpt>
      <trkpt lat="45.14802" lon="5.00666">
        <ele>309.91958618164</ele>
        <time>2009-12-12T15:43:33Z</time>
      </trkpt>
      <trkpt lat="45.14846" lon="5.00739">
        <ele>305.57757568359</ele>
        <time>2009-12-12T15:43:40Z</time>
      </trkpt>
      <trkpt lat="45.14854" lon="5.00765">
        <ele>306.17163085938</ele>
        <time>2009-12-12T15:43:42Z</time>
      </trkpt>
      <trkpt lat="45.14865" lon="5.00804">
        <ele>308.67736816406</ele>
        <time>2009-12-12T15:43:45Z</time>
      </trkpt>
      <trkpt lat="45.14848" lon="5.00834">
        <ele>315.17614746094</ele>
        <time>2009-12-12T15:43:48Z</time>
      </trkpt>
      <trkpt lat="45.1484" lon="5.00841">
        <ele>316.77206420898</ele>
        <time>2009-12-12T15:43:49Z</time>
      </trkpt>
      <trkpt lat="45.14813" lon="5.0086">
        <ele>319.75439453125</ele>
        <time>2009-12-12T15:43:52Z</time>
      </trkpt>
      <trkpt lat="45.14792" lon="5.00886">
        <ele>316.90725708008</ele>
        <time>2009-12-12T15:43:55Z</time>
      </trkpt>
      <trkpt lat="45.14784" lon="5.00929">
        <ele>308.18676757812</ele>
        <time>2009-12-12T15:43:58Z</time>
      </trkpt>
      <trkpt lat="45.14784" lon="5.00991">
        <ele>295.05706787109</ele>
        <time>2009-12-12T15:44:02Z</time>
      </trkpt>
      <trkpt lat="45.1478" lon="5.01032">
        <ele>288.45031738281</ele>
        <time>2009-12-12T15:44:05Z</time>
      </trkpt>
      <trkpt lat="45.14767" lon="5.01045">
        <ele>292.56997680664</ele>
        <time>2009-12-12T15:44:07Z</time>
      </trkpt>
      <trkpt lat="45.14749" lon="5.01052">
        <ele>300.462890625</ele>
        <time>2009-12-12T15:44:09Z</time>
      </trkpt>
      <trkpt lat="45.14682" lon="5.01064">
        <ele>302.72424316406</ele>
        <time>2009-12-12T15:44:15Z</time>
      </trkpt>
      <trkpt lat="45.14671" lon="5.01066">
        <ele>302.43927001953</ele>
        <time>2009-12-12T15:44:16Z</time>
      </trkpt>
      <trkpt lat="45.14633" lon="5.01065">
        <ele>303.34069824219</ele>
        <time>2009-12-12T15:44:19Z</time>
      </trkpt>
      <trkpt lat="45.14583" lon="5.01033">
        <ele>307.05758666992</ele>
        <time>2009-12-12T15:44:23Z</time>
      </trkpt>
      <trkpt lat="45.14548" lon="5.00997">
        <ele>306.93231201172</ele>
        <time>2009-12-12T15:44:26Z</time>
      </trkpt>
      <trkpt lat="45.14482" lon="5.00948">
        <ele>298.01293945312</ele>
        <time>2009-12-12T15:44:31Z</time>
      </trkpt>
      <trkpt lat="45.14447" lon="5.00914">
        <ele>293.13861083984</ele>
        <time>2009-12-12T15:44:34Z</time>
      </trkpt>
      <trkpt lat="45.14431" lon="5.00905">
        <ele>292.49359130859</ele>
        <time>2009-12-12T15:44:36Z</time>
      </trkpt>
      <trkpt lat="45.14407" lon="5.00783">
        <ele>316.44836425781</ele>
        <time>2009-12-12T15:44:39Z</time>
      </trkpt>
      <trkpt lat="45.1443" lon="5.00943">
        <ele>286.1630859375</ele>
        <time>2009-12-12T15:44:42Z</time>
      </trkpt>
      <trkpt lat="45.14439" lon="5.00947">
        <ele>286.669921875</ele>
        <time>2009-12-12T15:44:43Z</time>
      </trkpt>
      <trkpt lat="45.14479" lon="5.00984">
        <ele>290.15548706055</ele>
        <time>2009-12-12T15:44:48Z</time>
      </trkpt>
      <trkpt lat="45.14518" lon="5.01043">
        <ele>286.3991394043</ele>
        <time>2009-12-12T15:44:53Z</time>
      </trkpt>
      <trkpt lat="45.14564" lon="5.0112">
        <ele>275.71304321289</ele>
        <time>2009-12-12T15:44:59Z</time>
      </trkpt>
      <trkpt lat="45.14577" lon="5.01162">
        <ele>261.77749633789</ele>
        <time>2009-12-12T15:45:03Z</time>
      </trkpt>
      <trkpt lat="45.14597" lon="5.01198">
        <ele>255.52754211426</ele>
        <time>2009-12-12T15:45:07Z</time>
      </trkpt>
      <trkpt lat="45.14605" lon="5.01211">
        <ele>252.01684570312</ele>
        <time>2009-12-12T15:45:10Z</time>
      </trkpt>
      <trkpt lat="45.14606" lon="5.01212">
        <ele>251.57029724121</ele>
        <time>2009-12-12T15:45:13Z</time>
      </trkpt>
      <trkpt lat="45.146" lon="5.01211">
        <ele>250.9412689209</ele>
        <time>2009-12-12T15:45:51Z</time>
      </trkpt>
      <trkpt lat="45.14585" lon="5.012">
        <ele>252.43272399902</ele>
        <time>2009-12-12T15:45:57Z</time>
      </trkpt>
      <trkpt lat="45.14575" lon="5.01193">
        <ele>253.84428405762</ele>
        <time>2009-12-12T15:46:00Z</time>
      </trkpt>
      <trkpt lat="45.14563" lon="5.01184">
        <ele>255.36264038086</ele>
        <time>2009-12-12T15:46:03Z</time>
      </trkpt>
      <trkpt lat="45.14555" lon="5.01178">
        <ele>256.73373413086</ele>
        <time>2009-12-12T15:46:05Z</time>
      </trkpt>
      <trkpt lat="45.14545" lon="5.01171">
        <ele>257.10296630859</ele>
        <time>2009-12-12T15:46:07Z</time>
      </trkpt>
      <trkpt lat="45.1454" lon="5.01167">
        <ele>257.12966918945</ele>
        <time>2009-12-12T15:46:08Z</time>
      </trkpt>
      <trkpt lat="45.14526" lon="5.01157">
        <ele>257.7200012207</ele>
        <time>2009-12-12T15:46:11Z</time>
      </trkpt>
      <trkpt lat="45.14481" lon="5.0112">
        <ele>263.70596313477</ele>
        <time>2009-12-12T15:46:20Z</time>
      </trkpt>
      <trkpt lat="45.14451" lon="5.01088">
        <ele>264.53353881836</ele>
        <time>2009-12-12T15:46:26Z</time>
      </trkpt>
      <trkpt lat="45.1441" lon="5.01041">
        <ele>267.10198974609</ele>
        <time>2009-12-12T15:46:34Z</time>
      </trkpt>
      <trkpt lat="45.14371" lon="5.00995">
        <ele>266.22802734375</ele>
        <time>2009-12-12T15:46:42Z</time>
      </trkpt>
      <trkpt lat="45.1433" lon="5.00948">
        <ele>266.5029296875</ele>
        <time>2009-12-12T15:46:50Z</time>
      </trkpt>
      <trkpt lat="45.14302" lon="5.00924">
        <ele>265.37533569336</ele>
        <time>2009-12-12T15:46:55Z</time>
      </trkpt>
      <trkpt lat="45.14286" lon="5.00912">
        <ele>265.37310791016</ele>
        <time>2009-12-12T15:47:02Z</time>
      </trkpt>
      <trkpt lat="45.14225" lon="5.00879">
        <ele>264.61724853516</ele>
        <time>2009-12-12T15:47:08Z</time>
      </trkpt>
      <trkpt lat="45.14178" lon="5.00857">
        <ele>266.9462890625</ele>
        <time>2009-12-12T15:47:15Z</time>
      </trkpt>
      <trkpt lat="45.14131" lon="5.00834">
        <ele>266.68933105469</ele>
        <time>2009-12-12T15:47:22Z</time>
      </trkpt>
      <trkpt lat="45.1407" lon="5.00805">
        <ele>273.23416137695</ele>
        <time>2009-12-12T15:47:31Z</time>
      </trkpt>
      <trkpt lat="45.14022" lon="5.00782">
        <ele>274.03991699219</ele>
        <time>2009-12-12T15:47:38Z</time>
      </trkpt>
      <trkpt lat="45.13951" lon="5.00748">
        <ele>272.05087280273</ele>
        <time>2009-12-12T15:47:48Z</time>
      </trkpt>
      <trkpt lat="45.13888" lon="5.00717">
        <ele>266.31817626953</ele>
        <time>2009-12-12T15:47:57Z</time>
      </trkpt>
      <trkpt lat="45.13814" lon="5.00676">
        <ele>259.38690185547</ele>
        <time>2009-12-12T15:48:08Z</time>
      </trkpt>
      <trkpt lat="45.13762" lon="5.00636">
        <ele>250.00689697266</ele>
        <time>2009-12-12T15:48:16Z</time>
      </trkpt>
      <trkpt lat="45.13706" lon="5.00576">
        <ele>241.3356628418</ele>
        <time>2009-12-12T15:48:25Z</time>
      </trkpt>
      <trkpt lat="45.13644" lon="5.00505">
        <ele>239.81246948242</ele>
        <time>2009-12-12T15:48:36Z</time>
      </trkpt>
      <trkpt lat="45.1361" lon="5.00486">
        <ele>240</ele>
        <time>2009-12-12T15:48:41Z</time>
      </trkpt>
      <trkpt lat="45.13559" lon="5.00466">
        <ele>241.80671691894</ele>
        <time>2009-12-12T15:48:48Z</time>
      </trkpt>
      <trkpt lat="45.13508" lon="5.00448">
        <ele>245.83982849121</ele>
        <time>2009-12-12T15:48:55Z</time>
      </trkpt>
      <trkpt lat="45.13453" lon="5.00414">
        <ele>250.02561950684</ele>
        <time>2009-12-12T15:49:03Z</time>
      </trkpt>
      <trkpt lat="45.13391" lon="5.00374">
        <ele>256.4289855957</ele>
        <time>2009-12-12T15:49:12Z</time>
      </trkpt>
      <trkpt lat="45.13338" lon="5.00353">
        <ele>252.38421630859</ele>
        <time>2009-12-12T15:49:19Z</time>
      </trkpt>
      <trkpt lat="45.13282" lon="5.00346">
        <ele>246.97515869141</ele>
        <time>2009-12-12T15:49:26Z</time>
      </trkpt>
      <trkpt lat="45.13209" lon="5.0035">
        <ele>240.97052001953</ele>
        <time>2009-12-12T15:49:35Z</time>
      </trkpt>
      <trkpt lat="45.13166" lon="5.00343">
        <ele>240.89363098144</ele>
        <time>2009-12-12T15:49:40Z</time>
      </trkpt>
      <trkpt lat="45.13127" lon="5.00322">
        <ele>242.90200805664</ele>
        <time>2009-12-12T15:49:45Z</time>
      </trkpt>
      <trkpt lat="45.13095" lon="5.00309">
        <ele>243.82089233398</ele>
        <time>2009-12-12T15:49:49Z</time>
      </trkpt>
      <trkpt lat="45.13047" lon="5.0029">
        <ele>241.05464172363</ele>
        <time>2009-12-12T15:49:55Z</time>
      </trkpt>
      <trkpt lat="45.13008" lon="5.00275">
        <ele>238.59661865234</ele>
        <time>2009-12-12T15:50:00Z</time>
      </trkpt>
      <trkpt lat="45.12949" lon="5.00239">
        <ele>238.16987609863</ele>
        <time>2009-12-12T15:50:08Z</time>
      </trkpt>
      <trkpt lat="45.12914" lon="5.00211">
        <ele>240.49563598633</ele>
        <time>2009-12-12T15:50:13Z</time>
      </trkpt>
      <trkpt lat="45.12878" lon="5.00152">
        <ele>239.39735412598</ele>
        <time>2009-12-12T15:50:19Z</time>
      </trkpt>
      <trkpt lat="45.1286" lon="5.00123">
        <ele>239.55055236816</ele>
        <time>2009-12-12T15:50:22Z</time>
      </trkpt>
      <trkpt lat="45.12833" lon="5.00087">
        <ele>234.56434631348</ele>
        <time>2009-12-12T15:50:26Z</time>
      </trkpt>
      <trkpt lat="45.12824" lon="5.00081">
        <ele>233.36883544922</ele>
        <time>2009-12-12T15:50:27Z</time>
      </trkpt>
      <trkpt lat="45.12766" lon="5.00059">
        <ele>224.10409545898</ele>
        <time>2009-12-12T15:50:33Z</time>
      </trkpt>
      <trkpt lat="45.12746" lon="5.00052">
        <ele>221.30892944336</ele>
        <time>2009-12-12T15:50:35Z</time>
      </trkpt>
      <trkpt lat="45.12701" lon="5.00017">
        <ele>216.93226623535</ele>
        <time>2009-12-12T15:50:40Z</time>
      </trkpt>
      <trkpt lat="45.12684" lon="5.00001">
        <ele>215.86981201172</ele>
        <time>2009-12-12T15:50:42Z</time>
      </trkpt>
      <trkpt lat="45.12656" lon="4.99947">
        <ele>219.06425476074</ele>
        <time>2009-12-12T15:50:47Z</time>
      </trkpt>
      <trkpt lat="45.12646" lon="4.99911">
        <ele>218.83068847656</ele>
        <time>2009-12-12T15:50:50Z</time>
      </trkpt>
      <trkpt lat="45.12627" lon="4.99857">
        <ele>220.29064941406</ele>
        <time>2009-12-12T15:50:55Z</time>
      </trkpt>
      <trkpt lat="45.12621" lon="4.9985">
        <ele>220.04296875</ele>
        <time>2009-12-12T15:50:56Z</time>
      </trkpt>
      <trkpt lat="45.12582" lon="4.99804">
        <ele>219.9660949707</ele>
        <time>2009-12-12T15:51:02Z</time>
      </trkpt>
      <trkpt lat="45.12547" lon="4.99744">
        <ele>221.09869384766</ele>
        <time>2009-12-12T15:51:09Z</time>
      </trkpt>
      <trkpt lat="45.12517" lon="4.99706">
        <ele>222.12339782715</ele>
        <time>2009-12-12T15:51:14Z</time>
      </trkpt>
      <trkpt lat="45.12482" lon="4.99666">
        <ele>223.5489654541</ele>
        <time>2009-12-12T15:51:20Z</time>
      </trkpt>
      <trkpt lat="45.12439" lon="4.99609">
        <ele>225.4549407959</ele>
        <time>2009-12-12T15:51:28Z</time>
      </trkpt>
      <trkpt lat="45.12406" lon="4.99537">
        <ele>227.29370117188</ele>
        <time>2009-12-12T15:51:36Z</time>
      </trkpt>
      <trkpt lat="45.12388" lon="4.99489">
        <ele>227.65539550781</ele>
        <time>2009-12-12T15:51:41Z</time>
      </trkpt>
      <trkpt lat="45.12373" lon="4.99427">
        <ele>226.32330322266</ele>
        <time>2009-12-12T15:51:51Z</time>
      </trkpt>
      <trkpt lat="45.12352" lon="4.9929">
        <ele>228.67723083496</ele>
        <time>2009-12-12T15:52:01Z</time>
      </trkpt>
      <trkpt lat="45.12335" lon="4.99233">
        <ele>227.48403930664</ele>
        <time>2009-12-12T15:52:07Z</time>
      </trkpt>
      <trkpt lat="45.12311" lon="4.99182">
        <ele>227.93672180176</ele>
        <time>2009-12-12T15:52:13Z</time>
      </trkpt>
      <trkpt lat="45.1229" lon="4.99137">
        <ele>226.73887634277</ele>
        <time>2009-12-12T15:52:18Z</time>
      </trkpt>
      <trkpt lat="45.12283" lon="4.99117">
        <ele>226.3371887207</ele>
        <time>2009-12-12T15:52:20Z</time>
      </trkpt>
      <trkpt lat="45.12278" lon="4.99097">
        <ele>226.09895324707</ele>
        <time>2009-12-12T15:52:24Z</time>
      </trkpt>
      <trkpt lat="45.12254" lon="4.9908">
        <ele>217.88005065918</ele>
        <time>2009-12-12T15:52:26Z</time>
      </trkpt>
      <trkpt lat="45.12239" lon="4.99069">
        <ele>215.251953125</ele>
        <time>2009-12-12T15:52:30Z</time>
      </trkpt>
      <trkpt lat="45.12235" lon="4.99067">
        <ele>214.92027282715</ele>
        <time>2009-12-12T15:52:32Z</time>
      </trkpt>
      <trkpt lat="45.12235" lon="4.99067">
        <ele>214.92027282715</ele>
        <time>2009-12-12T15:52:36Z</time>
      </trkpt>
      <trkpt lat="45.12199" lon="4.99042">
        <ele>211.00660705566</ele>
        <time>2009-12-12T15:52:40Z</time>
      </trkpt>
      <trkpt lat="45.12194" lon="4.99036">
        <ele>210.46389770508</ele>
        <time>2009-12-12T15:52:41Z</time>
      </trkpt>
      <trkpt lat="45.12177" lon="4.99016">
        <ele>208.38983154297</ele>
        <time>2009-12-12T15:52:44Z</time>
      </trkpt>
      <trkpt lat="45.12141" lon="4.98971">
        <ele>205.98558044434</ele>
        <time>2009-12-12T15:52:50Z</time>
      </trkpt>
      <trkpt lat="45.12102" lon="4.98907">
        <ele>203.96769714356</ele>
        <time>2009-12-12T15:52:57Z</time>
      </trkpt>
      <trkpt lat="45.12069" lon="4.98828">
        <ele>203.86856079102</ele>
        <time>2009-12-12T15:53:05Z</time>
      </trkpt>
      <trkpt lat="45.12045" lon="4.98759">
        <ele>203.59558105469</ele>
        <time>2009-12-12T15:53:12Z</time>
      </trkpt>
      <trkpt lat="45.1203" lon="4.98701">
        <ele>203.45790100098</ele>
        <time>2009-12-12T15:53:18Z</time>
      </trkpt>
      <trkpt lat="45.1202" lon="4.98636">
        <ele>203.67004394531</ele>
        <time>2009-12-12T15:53:25Z</time>
      </trkpt>
      <trkpt lat="45.12018" lon="4.98618">
        <ele>203.759765625</ele>
        <time>2009-12-12T15:53:27Z</time>
      </trkpt>
      <trkpt lat="45.12016" lon="4.98543">
        <ele>204.58445739746</ele>
        <time>2009-12-12T15:53:35Z</time>
      </trkpt>
      <trkpt lat="45.12019" lon="4.98482">
        <ele>205.23217773438</ele>
        <time>2009-12-12T15:53:42Z</time>
      </trkpt>
      <trkpt lat="45.1202" lon="4.98462">
        <ele>205.24591064453</ele>
        <time>2009-12-12T15:53:45Z</time>
      </trkpt>
      <trkpt lat="45.12042" lon="4.98436">
        <ele>205.5068359375</ele>
        <time>2009-12-12T15:53:49Z</time>
      </trkpt>
      <trkpt lat="45.12059" lon="4.98411">
        <ele>205.56509399414</ele>
        <time>2009-12-12T15:53:54Z</time>
      </trkpt>
      <trkpt lat="45.12045" lon="4.98389">
        <ele>204.86585998535</ele>
        <time>2009-12-12T15:53:57Z</time>
      </trkpt>
      <trkpt lat="45.1204" lon="4.98389">
        <ele>204.81550598144</ele>
        <time>2009-12-12T15:53:58Z</time>
      </trkpt>
      <trkpt lat="45.12035" lon="4.98397">
        <ele>204.94596862793</ele>
        <time>2009-12-12T15:54:00Z</time>
      </trkpt>
      <trkpt lat="45.12009" lon="4.984">
        <ele>204.69877624512</ele>
        <time>2009-12-12T15:54:05Z</time>
      </trkpt>
      <trkpt lat="45.12003" lon="4.98397">
        <ele>204.57518005371</ele>
        <time>2009-12-12T15:54:06Z</time>
      </trkpt>
      <trkpt lat="45.11983" lon="4.98387">
        <ele>203.81381225586</ele>
        <time>2009-12-12T15:54:10Z</time>
      </trkpt>
      <trkpt lat="45.11978" lon="4.98401">
        <ele>203.92015075684</ele>
        <time>2009-12-12T15:54:12Z</time>
      </trkpt>
      <trkpt lat="45.11978" lon="4.98411">
        <ele>204.10139465332</ele>
        <time>2009-12-12T15:54:14Z</time>
      </trkpt>
      <trkpt lat="45.12006" lon="4.98399">
        <ele>204.63812255859</ele>
        <time>2009-12-12T15:54:18Z</time>
      </trkpt>
      <trkpt lat="45.12006" lon="4.98399">
        <ele>204.63812255859</ele>
        <time>2009-12-12T15:54:19Z</time>
      </trkpt>
      <trkpt lat="45.12012" lon="4.98401">
        <ele>204.77659606934</ele>
        <time>2009-12-12T15:54:22Z</time>
      </trkpt>
      <trkpt lat="45.12016" lon="4.98404">
        <ele>204.88645935059</ele>
        <time>2009-12-12T15:54:26Z</time>
      </trkpt>
      <trkpt lat="45.12016" lon="4.98404">
        <ele>204.87501525879</ele>
        <time>2009-12-12T15:54:29Z</time>
      </trkpt>
      <trkpt lat="45.11978" lon="4.98418">
        <ele>204.20237731934</ele>
        <time>2009-12-12T15:55:35Z</time>
      </trkpt>
      <trkpt lat="45.12007" lon="4.98399">
        <ele>204.65414428711</ele>
        <time>2009-12-12T15:55:39Z</time>
      </trkpt>
      <trkpt lat="45.12002" lon="4.98396">
        <ele>204.53741455078</ele>
        <time>2009-12-12T15:55:41Z</time>
      </trkpt>
      <trkpt lat="45.11993" lon="4.98392">
        <ele>204.21090698242</ele>
        <time>2009-12-12T15:55:44Z</time>
      </trkpt>
      <trkpt lat="45.11978" lon="4.98398">
        <ele>203.86727905273</ele>
        <time>2009-12-12T15:55:48Z</time>
      </trkpt>
      <trkpt lat="45.11989" lon="4.9839">
        <ele>204.06060791016</ele>
        <time>2009-12-12T15:55:51Z</time>
      </trkpt>
      <trkpt lat="45.11994" lon="4.98392">
        <ele>204.23934936523</ele>
        <time>2009-12-12T15:55:52Z</time>
      </trkpt>
      <trkpt lat="45.12008" lon="4.984">
        <ele>204.68504333496</ele>
        <time>2009-12-12T15:55:55Z</time>
      </trkpt>
      <trkpt lat="45.12025" lon="4.98408">
        <ele>205.10504150391</ele>
        <time>2009-12-12T15:55:59Z</time>
      </trkpt>
      <trkpt lat="45.12029" lon="4.9841">
        <ele>205.1954498291</ele>
        <time>2009-12-12T15:56:01Z</time>
      </trkpt>
      <trkpt lat="45.12029" lon="4.9841">
        <ele>205.1954498291</ele>
        <time>2009-12-12T15:56:05Z</time>
      </trkpt>
      <trkpt lat="45.12042" lon="4.98436">
        <ele>205.5068359375</ele>
        <time>2009-12-12T15:56:09Z</time>
      </trkpt>
      <trkpt lat="45.12057" lon="4.98403">
        <ele>205.35223388672</ele>
        <time>2009-12-12T15:56:10Z</time>
      </trkpt>
      <trkpt lat="45.12052" lon="4.98351">
        <ele>204.03616333008</ele>
        <time>2009-12-12T15:56:16Z</time>
      </trkpt>
      <trkpt lat="45.12062" lon="4.98278">
        <ele>204.58253479004</ele>
        <time>2009-12-12T15:56:23Z</time>
      </trkpt>
      <trkpt lat="45.12067" lon="4.98206">
        <ele>205.63240051269</ele>
        <time>2009-12-12T15:56:30Z</time>
      </trkpt>
      <trkpt lat="45.12058" lon="4.98136">
        <ele>205.33140563965</ele>
        <time>2009-12-12T15:56:37Z</time>
      </trkpt>
      <trkpt lat="45.1204" lon="4.98051">
        <ele>202.89961242676</ele>
        <time>2009-12-12T15:56:45Z</time>
      </trkpt>
      <trkpt lat="45.12026" lon="4.97986">
        <ele>201.341796875</ele>
        <time>2009-12-12T15:56:51Z</time>
      </trkpt>
      <trkpt lat="45.12017" lon="4.97941">
        <ele>200.14900207519</ele>
        <time>2009-12-12T15:56:55Z</time>
      </trkpt>
      <trkpt lat="45.12015" lon="4.9793">
        <ele>199.82968139648</ele>
        <time>2009-12-12T15:56:56Z</time>
      </trkpt>
      <trkpt lat="45.11992" lon="4.97809">
        <ele>197.97164916992</ele>
        <time>2009-12-12T15:57:07Z</time>
      </trkpt>
      <trkpt lat="45.11967" lon="4.97677">
        <ele>196.58358764648</ele>
        <time>2009-12-12T15:57:19Z</time>
      </trkpt>
      <trkpt lat="45.11956" lon="4.97613">
        <ele>196.85855102539</ele>
        <time>2009-12-12T15:57:25Z</time>
      </trkpt>
      <trkpt lat="45.11945" lon="4.97548">
        <ele>196.83447265625</ele>
        <time>2009-12-12T15:57:31Z</time>
      </trkpt>
      <trkpt lat="45.11921" lon="4.97413">
        <ele>196.09541320801</ele>
        <time>2009-12-12T15:57:43Z</time>
      </trkpt>
      <trkpt lat="45.11904" lon="4.97322">
        <ele>195.97029113769</ele>
        <time>2009-12-12T15:57:51Z</time>
      </trkpt>
      <trkpt lat="45.11891" lon="4.97247">
        <ele>196.41729736328</ele>
        <time>2009-12-12T15:57:58Z</time>
      </trkpt>
      <trkpt lat="45.11882" lon="4.97197">
        <ele>196.54298400879</ele>
        <time>2009-12-12T15:58:03Z</time>
      </trkpt>
      <trkpt lat="45.1188" lon="4.97187">
        <ele>196.55776977539</ele>
        <time>2009-12-12T15:58:04Z</time>
      </trkpt>
      <trkpt lat="45.11879" lon="4.97167">
        <ele>196.64210510254</ele>
        <time>2009-12-12T15:58:06Z</time>
      </trkpt>
      <trkpt lat="45.11879" lon="4.97149">
        <ele>196.74136352539</ele>
        <time>2009-12-12T15:58:08Z</time>
      </trkpt>
      <trkpt lat="45.11879" lon="4.97139">
        <ele>196.79183959961</ele>
        <time>2009-12-12T15:58:09Z</time>
      </trkpt>
      <trkpt lat="45.11881" lon="4.97112">
        <ele>196.99157714844</ele>
        <time>2009-12-12T15:58:12Z</time>
      </trkpt>
      <trkpt lat="45.11883" lon="4.97098">
        <ele>197.11721801758</ele>
        <time>2009-12-12T15:58:14Z</time>
      </trkpt>
      <trkpt lat="45.11905" lon="4.97072">
        <ele>197.8924407959</ele>
        <time>2009-12-12T15:58:19Z</time>
      </trkpt>
      <trkpt lat="45.11897" lon="4.97057">
        <ele>197.98333740234</ele>
        <time>2009-12-12T15:58:22Z</time>
      </trkpt>
      <trkpt lat="45.11888" lon="4.97054">
        <ele>197.9001159668</ele>
        <time>2009-12-12T15:58:25Z</time>
      </trkpt>
      <trkpt lat="45.11851" lon="4.97015">
        <ele>198.52043151856</ele>
        <time>2009-12-12T15:58:31Z</time>
      </trkpt>
      <trkpt lat="45.11842" lon="4.97003">
        <ele>198.90353393555</ele>
        <time>2009-12-12T15:58:33Z</time>
      </trkpt>
      <trkpt lat="45.11797" lon="4.96937">
        <ele>197.26617431641</ele>
        <time>2009-12-12T15:58:43Z</time>
      </trkpt>
      <trkpt lat="45.11783" lon="4.96914">
        <ele>196.97523498535</ele>
        <time>2009-12-12T15:58:46Z</time>
      </trkpt>
      <trkpt lat="45.11779" lon="4.96907">
        <ele>196.88642883301</ele>
        <time>2009-12-12T15:58:47Z</time>
      </trkpt>
      <trkpt lat="45.11776" lon="4.96899">
        <ele>196.77705383301</ele>
        <time>2009-12-12T15:58:48Z</time>
      </trkpt>
      <trkpt lat="45.11766" lon="4.96879">
        <ele>196.34368896484</ele>
        <time>2009-12-12T15:58:51Z</time>
      </trkpt>
      <trkpt lat="45.11763" lon="4.96873">
        <ele>196.18646240234</ele>
        <time>2009-12-12T15:58:52Z</time>
      </trkpt>
      <trkpt lat="45.11763" lon="4.96845">
        <ele>195.68086242676</ele>
        <time>2009-12-12T15:58:55Z</time>
      </trkpt>
      <trkpt lat="45.11755" lon="4.96827">
        <ele>195.23571777344</ele>
        <time>2009-12-12T15:58:58Z</time>
      </trkpt>
      <trkpt lat="45.11745" lon="4.96826">
        <ele>195.14323425293</ele>
        <time>2009-12-12T15:59:00Z</time>
      </trkpt>
      <trkpt lat="45.11716" lon="4.96806">
        <ele>195.59638977051</ele>
        <time>2009-12-12T15:59:04Z</time>
      </trkpt>
      <trkpt lat="45.11674" lon="4.96737">
        <ele>195.7180480957</ele>
        <time>2009-12-12T15:59:13Z</time>
      </trkpt>
      <trkpt lat="45.11645" lon="4.96665">
        <ele>194.04266357422</ele>
        <time>2009-12-12T15:59:21Z</time>
      </trkpt>
      <trkpt lat="45.11602" lon="4.96559">
        <ele>195.42691040039</ele>
        <time>2009-12-12T15:59:33Z</time>
      </trkpt>
      <trkpt lat="45.11584" lon="4.96518">
        <ele>195.04573059082</ele>
        <time>2009-12-12T15:59:38Z</time>
      </trkpt>
      <trkpt lat="45.11572" lon="4.96494">
        <ele>194.67607116699</ele>
        <time>2009-12-12T15:59:42Z</time>
      </trkpt>
      <trkpt lat="45.1158" lon="4.96455">
        <ele>196.47911071777</ele>
        <time>2009-12-12T15:59:47Z</time>
      </trkpt>
      <trkpt lat="45.11557" lon="4.9647">
        <ele>194.92158508301</ele>
        <time>2009-12-12T15:59:52Z</time>
      </trkpt>
      <trkpt lat="45.11557" lon="4.9647">
        <ele>194.92158508301</ele>
        <time>2009-12-12T15:59:53Z</time>
      </trkpt>
      <trkpt lat="45.11581" lon="4.96453">
        <ele>196.56784057617</ele>
        <time>2009-12-12T16:00:25Z</time>
      </trkpt>
      <trkpt lat="45.11556" lon="4.96469">
        <ele>194.92439270019</ele>
        <time>2009-12-12T16:00:27Z</time>
      </trkpt>
      <trkpt lat="45.11547" lon="4.96455">
        <ele>195.13873291016</ele>
        <time>2009-12-12T16:00:33Z</time>
      </trkpt>
      <trkpt lat="45.11544" lon="4.9645">
        <ele>195.20454406738</ele>
        <time>2009-12-12T16:00:35Z</time>
      </trkpt>
      <trkpt lat="45.11546" lon="4.96453">
        <ele>195.17007446289</ele>
        <time>2009-12-12T16:00:40Z</time>
      </trkpt>
      <trkpt lat="45.11547" lon="4.96454">
        <ele>195.15234375</ele>
        <time>2009-12-12T16:00:42Z</time>
      </trkpt>
      <trkpt lat="45.11547" lon="4.96454">
        <ele>195.15234375</ele>
        <time>2009-12-12T16:00:50Z</time>
      </trkpt>
    </trkseg>
  </trk>
</gpx>